[[{"header":{"parameterUnit":"m.s-1","parameterCategory":1,"la1":31.0,"la2":29.5877,"lo1":-88.7671,"lo2":-86.6584,"dy":0.0162,"dx":0.0185,"nx":115,"ny":88,"refTime":"2023-04-05T18:00:00:Z","depth":0,"parameterNumber":2,"parameterNumberName":"U-component_of_WINDS"},"data":[0.0,0.0,0.0,0.0,0.0,0.0,0.0,0.0,0.0,0.0,0.0,0.0,0.0,0.0,0.0,0.0,0.0,0.0,0.0,0.0,0.0,0.0,0.0,0.0,0.0,0.0,0.0,0.0,0.0,0.0,0.0,0.0,0.0,0.0,0.0,0.0,0.0,0.0,0.0,0.0,0.0,0.0,0.0,0.0,0.0,0.0,0.0,0.0,0.0,0.0,0.0,0.0,0.0,0.0,0.0,0.0,0.0,0.0,0.0,0.0,0.0,0.0,0.0,0.0,0.0,0.0,0.0,0.0,0.0,0.0,0.0,0.0,0.0,0.0,0.0,0.0,0.0,0.0,0.0,0.0,0.0,0.0,0.0,0.0,0.0,0.0,0.0,0.0,0.0,0.0,0.0,0.0,0.0,0.0,0.0,0.0,0.0,0.0,0.0,0.0,0.0,0.0,0.0,0.0,0.0,0.0,0.0,0.0,0.0,0.0,0.0,0.0,0.0,0.0,0.0,0.0,0.0,0.0,0.0,0.0,0.0,0.0,0.0,0.0,0.0,0.0,0.0,0.0,0.0,0.0,0.0,0.0,0.0,0.0,0.0,0.0,0.0,0.0,0.0,0.0,0.0,0.0,0.0,0.0,0.0,0.0,0.0,0.0,0.0,0.0,0.0,0.0,0.0,0.0,0.0,0.0,0.0,0.0,0.0,0.0,0.0,0.0,0.0,0.0,0.0,0.0,0.0,0.0,0.0,0.0,0.0,0.0,0.0,0.0,0.0,0.0,0.0,0.0,0.0,0.0,0.0,0.0,0.0,0.0,0.0,0.0,0.0,0.0,0.0,0.0,0.0,0.0,0.0,0.0,0.0,0.0,0.0,0.0,0.0,0.0,0.0,0.0,0.0,0.0,0.0,0.0,0.0,0.0,0.0,0.0,0.0,0.0,0.0,0.0,0.0,0.0,0.0,0.0,0.0,0.0,0.0,0.0,0.0,0.0,0.0,0.0,0.0,0.0,0.0,0.0,0.0,0.0,0.0,0.0,0.0,0.0,0.0,0.0,0.0,0.0,0.0,0.0,0.0,0.0,0.0,0.0,0.0,0.0,0.0,0.0,0.0,0.0,0.0,0.0,0.0,0.0,0.0,0.0,0.0,0.0,0.0,0.0,0.0,0.0,0.0,0.0,0.0,0.0,0.0,0.0,0.0,0.0,0.0,0.0,0.0,0.0,0.0,0.0,0.0,0.0,0.0,0.0,0.0,0.0,0.0,0.0,0.0,0.0,0.0,0.0,0.0,0.0,0.0,0.0,0.0,0.0,0.0,0.0,0.0,0.0,0.0,0.0,0.0,0.0,0.0,0.0,0.0,0.0,0.0,0.0,0.0,0.0,0.0,0.0,0.0,0.0,0.0,0.0,0.0,0.0,0.0,0.0,0.0,0.0,0.0,0.0,0.0,0.0,0.0,0.0,0.0,0.0,0.0,0.0,0.0,0.0,0.0,0.0,0.0,0.0,0.0,0.0,0.0,0.0,0.0,0.0,0.0,0.0,0.0,0.0,0.0,0.0,0.0,0.0,0.0,0.0,0.0,0.0,0.0,0.0,0.0,0.0,0.0,0.0,0.0,0.0,0.0,0.0,0.0,0.0,0.0,0.0,0.0,0.0,0.0,0.0,0.0,0.0,0.0,0.0,0.0,0.0,0.0,0.0,0.0,0.0,0.0,0.0,0.0,0.0,0.0,0.0,0.0,0.0,0.0,0.0,0.0,0.0,0.0,0.0,0.0,0.0,0.0,0.0,0.0,0.0,0.0,0.0,0.0,0.0,0.0,0.0,0.0,0.0,0.0,0.0,0.0,0.0,0.0,0.0,0.0,0.0,0.0,0.0,0.0,0.0,0.0,0.0,0.0,0.0,0.0,0.0,0.0,0.0,0.0,0.0,0.0,0.0,0.0,0.0,0.0,0.0,0.0,0.0,0.0,0.0,0.0,0.0,0.0,0.0,0.0,0.0,0.0,0.0,0.0,0.0,0.0,0.0,0.0,0.0,0.0,0.0,0.0,0.0,0.0,0.0,0.0,0.0,0.0,0.0,0.0,0.0,0.0,0.0,0.0,0.0,0.0,0.0,0.0,0.0,0.0,0.0,0.0,0.0,0.0,0.0,0.0,0.0,0.0,0.0,0.0,0.0,0.0,0.0,0.0,0.0,0.0,0.0,0.0,0.0,0.0,0.0,0.0,0.0,0.0,0.0,0.0,0.0,0.0,0.0,0.0,0.0,0.0,0.0,0.0,0.0,0.0,0.0,0.0,0.0,0.0,0.0,0.0,0.0,0.0,0.0,0.0,0.0,0.0,0.0,0.0,0.0,0.0,0.0,0.0,0.0,0.0,0.0,0.0,0.0,0.0,0.0,0.0,0.0,0.0,0.0,0.0,0.0,0.0,0.0,0.0,0.0,0.0,0.0,0.0,0.0,0.0,0.0,0.0,0.0,0.0,0.0,0.0,0.0,0.0,0.0,0.0,0.0,0.0,0.0,0.0,0.0,0.0,0.0,0.0,0.0,0.0,0.0,0.0,0.0,0.0,0.0,0.0,0.0,0.0,0.0,0.0,0.0,0.0,0.0,0.0,0.0,0.0,0.0,0.0,0.0,0.0,0.0,0.0,0.0,0.0,0.0,0.0,0.0,0.0,0.0,0.0,0.0,0.0,0.0,0.0,0.0,0.0,0.0,0.0,0.0,0.0,0.0,0.0,0.0,0.0,0.0,0.0,0.0,0.0,0.0,0.0,0.0,0.0,0.0,0.0,0.0,0.0,0.0,0.0,0.0,0.0,0.0,0.0,0.0,0.0,0.0,0.0,0.0,0.0,0.0,0.0,0.0,0.0,0.0,0.0,0.0,0.0,0.0,0.0,0.0,0.0,0.0,0.0,0.0,0.0,0.0,0.0,0.0,0.0,0.0,0.0,0.0,0.0,0.0,0.0,0.0,0.0,0.0,0.0,0.0,0.0,0.0,0.0,0.0,0.0,0.0,0.0,0.0,0.0,0.0,0.0,0.0,0.0,0.0,0.0,0.0,0.0,0.0,0.0,0.0,0.0,0.0,0.0,0.0,0.0,0.0,0.0,0.0,0.0,0.0,0.0,0.0,0.0,0.0,0.0,0.0,0.0,0.0,0.0,0.0,0.0,0.0,0.0,0.0,0.0,0.0,0.0,0.0,0.0,0.0,0.0,0.0,0.0,0.0,0.0,0.0,0.0,0.0,0.0,0.0,0.0,0.0,0.0,0.0,0.0,0.0,0.0,0.0,0.0,0.0,0.0,0.0,0.0,0.0,0.0,0.0,0.0,0.0,0.0,0.0,0.0,0.0,0.0,0.0,0.0,0.0,0.0,0.0,0.0,0.0,0.0,0.0,0.0,0.0,0.0,0.0,0.0,0.0,0.0,0.0,0.0,0.0,0.0,0.0,0.0,0.0,0.0,0.0,0.0,0.0,0.0,0.0,0.0,0.0,0.0,0.0,0.0,0.0,0.0,0.0,0.0,0.0,0.0,0.0,0.0,0.0,0.0,0.0,0.0,0.0,0.0,0.0,0.0,0.0,0.0,0.0,0.0,0.0,0.0,0.0,0.0,0.0,0.0,0.0,0.0,0.0,0.0,0.0,0.0,0.0,0.0,0.0,0.0,0.0,0.0,0.0,0.0,0.0,0.0,0.0,0.0,0.0,0.0,0.0,0.0,0.0,0.0,0.0,0.0,0.0,0.0,0.0,0.0,0.0,0.0,0.0,0.0,0.0,0.0,0.0,0.0,0.0,0.0,0.0,0.0,0.0,0.0,0.0,0.0,0.0,0.0,0.0,0.0,0.0,0.0,0.0,0.0,0.0,0.0,0.0,0.0,0.0,0.0,0.0,0.0,0.0,0.0,0.0,0.0,0.0,0.0,0.0,0.0,0.0,0.0,0.0,0.0,0.0,0.0,0.0,0.0,0.0,0.0,0.0,0.0,0.0,0.0,0.0,0.0,0.0,0.0,0.0,0.0,0.0,0.0,0.0,0.0,0.0,0.0,0.0,0.0,0.0,0.0,0.0,0.0,0.0,0.0,0.0,0.0,0.0,0.0,0.0,0.0,0.0,0.0,0.0,0.0,0.0,0.0,0.0,0.0,0.0,0.0,0.0,0.0,0.0,0.0,0.0,0.0,0.0,0.0,0.0,0.0,0.0,0.0,0.0,0.0,0.0,0.0,0.0,0.0,0.0,0.0,0.0,0.0,0.0,0.0,0.0,0.0,0.0,-0.5664,0.0,0.0,0.0,0.0,0.0,0.0,0.0,0.0,0.0,0.0,0.0,0.0,0.0,0.0,0.0,0.0,0.0,0.0,0.0,0.0,0.0,0.0,0.0,0.0,0.0,0.0,0.0,0.0,0.0,0.0,0.0,0.0,0.0,0.0,0.0,0.0,0.0,0.0,0.0,0.0,0.0,0.0,0.0,0.0,0.0,0.0,0.0,0.0,0.0,0.0,0.0,0.0,0.0,0.0,0.0,0.0,0.0,0.0,0.0,0.0,0.0,0.0,0.0,0.0,0.0,0.0,0.0,0.0,0.0,0.0,0.0,0.0,0.0,0.0,0.0,0.0,0.0,0.0,0.0,0.0,0.0,0.0,0.0,0.0,0.0,0.0,0.0,0.0,0.0,0.0,0.0,0.0,0.0,0.0,0.0,0.0,0.0,0.0,0.0,0.0,0.0,0.0,0.0,0.0,0.0,0.0,0.0,0.0,0.0,0.0,-0.5187,-0.5462,-0.5681,-0.5896,-0.6132,0.0,0.0,0.0,0.0,0.0,0.0,0.0,0.0,0.0,0.0,0.0,0.0,0.0,0.0,0.0,0.0,0.0,0.0,0.0,0.0,0.0,0.0,0.0,0.0,0.0,0.0,0.0,0.0,0.0,0.0,0.0,0.0,0.0,0.0,0.0,0.0,0.0,0.0,0.0,0.0,0.0,0.0,0.0,0.0,0.0,0.0,0.0,0.0,0.0,0.0,0.0,0.0,0.0,0.0,0.0,0.0,0.0,0.0,0.0,0.0,0.0,0.0,0.0,0.0,0.0,0.0,0.0,0.0,0.0,0.0,0.0,0.0,0.0,0.0,0.0,0.0,0.0,0.0,0.0,0.0,0.0,0.0,0.0,0.0,0.0,0.0,0.0,0.0,0.0,0.0,0.0,0.0,0.0,0.0,0.0,0.0,0.0,0.0,0.0,0.0,0.0,0.0,0.0,0.0,0.0,0.0,0.0,0.0,0.0,0.0,0.0,0.0,-0.6173,-0.644,-0.6707,0.0,0.0,0.0,0.0,0.0,0.0,0.0,0.0,0.0,0.0,0.0,0.0,0.0,0.0,0.0,0.0,0.0,0.0,0.0,0.0,0.0,0.0,0.0,0.0,0.0,0.0,0.0,0.0,0.0,0.0,0.0,0.0,0.0,0.0,0.0,0.0,0.0,0.0,0.0,0.0,0.0,0.0,0.0,0.0,0.0,0.0,0.0,0.0,0.0,0.0,0.0,0.0,0.0,0.0,0.0,0.0,0.0,0.0,0.0,0.0,0.0,0.0,0.0,0.0,0.0,0.0,0.0,0.0,0.0,0.0,0.0,0.0,0.0,0.0,0.0,0.0,0.0,0.0,0.0,0.0,0.0,0.0,0.0,0.0,0.0,0.0,0.0,0.0,0.0,0.0,0.0,0.0,0.0,0.0,0.0,0.0,0.0,0.0,0.0,0.0,0.0,0.0,0.0,0.0,0.0,0.0,0.0,0.0,0.0,0.0,-0.6082,-0.6327,-0.6544,0.0,-0.7563,0.0,0.0,0.0,0.0,0.0,0.0,0.0,0.0,0.0,0.0,0.0,0.0,0.0,0.0,0.0,0.0,0.0,0.0,0.0,0.0,0.0,0.0,0.0,0.0,0.0,0.0,0.0,0.0,0.0,0.0,0.0,0.0,0.0,0.0,0.0,0.0,0.0,0.0,0.0,0.0,0.0,0.0,0.0,0.0,0.0,0.0,0.0,0.0,0.0,0.0,0.0,0.0,0.0,0.0,0.0,0.0,0.0,0.0,0.0,0.0,0.0,0.0,0.0,0.0,0.0,0.0,0.0,0.0,0.0,0.0,0.0,0.0,0.0,0.0,0.0,0.0,0.0,0.0,0.0,0.0,0.0,0.0,0.0,0.0,0.0,0.0,0.0,0.0,0.0,0.0,0.0,0.0,0.0,0.0,0.0,0.0,0.0,0.0,0.0,0.0,0.0,0.0,0.0,0.0,0.0,0.0,0.0,0.0,0.0,0.0,-0.6035,-0.6445,-0.6929,-0.7386,0.0,0.0,0.0,0.0,0.0,0.0,0.0,0.0,0.0,0.0,0.0,0.0,0.0,0.0,0.0,0.0,0.0,0.0,0.0,0.0,0.0,0.0,0.0,0.0,0.0,0.0,0.0,0.0,0.0,0.0,0.0,0.0,0.0,0.0,0.0,0.0,0.0,0.0,0.0,0.0,0.0,0.0,0.0,0.0,0.0,0.0,0.0,0.0,0.0,0.0,0.0,0.0,0.0,0.0,0.0,0.0,0.0,0.0,0.0,0.0,0.0,0.0,0.0,0.0,0.0,0.0,0.0,0.0,0.0,0.0,0.0,0.0,0.0,0.0,0.0,0.0,0.0,0.0,0.0,0.0,0.0,0.0,0.0,0.0,0.0,0.0,0.0,0.0,0.0,0.0,0.0,0.0,0.0,0.0,0.0,0.0,0.0,0.0,0.0,0.0,0.0,0.0,0.0,0.0,0.0,0.0,0.0,0.0,0.0,0.0,-0.5956,-0.621,-0.6719,-0.7184,-0.7632,-0.8029,0.0,0.0,0.0,0.0,0.0,0.0,0.0,0.0,0.0,0.0,0.0,0.0,0.0,0.0,0.0,0.0,0.0,0.0,0.0,0.0,0.0,0.0,0.0,0.0,0.0,0.0,0.0,0.0,0.0,0.0,0.0,0.0,0.0,0.0,0.0,0.0,0.0,0.0,0.0,0.0,0.0,0.0,0.0,0.0,0.0,0.0,0.0,0.0,0.0,0.0,0.0,0.0,0.0,0.0,0.0,0.0,0.0,0.0,0.0,0.0,0.0,0.0,0.0,0.0,0.0,0.0,0.0,0.0,0.0,0.0,0.0,0.0,0.0,0.0,0.0,0.0,0.0,0.0,0.0,0.0,0.0,0.0,0.0,0.0,0.0,0.0,0.0,0.0,0.0,0.0,0.0,0.0,0.0,0.0,0.0,0.0,0.0,0.0,0.0,0.0,0.0,0.0,0.0,0.0,0.0,0.0,0.0,0.0,-0.646,-0.6581,-0.6851,-0.7217,-0.7302,-0.7632,0.0,0.0,0.0,0.0,0.0,0.0,0.0,0.0,0.0,0.0,0.0,0.0,0.0,0.0,0.0,0.0,0.0,0.0,0.0,0.0,0.0,0.0,0.0,0.0,0.0,0.0,0.0,0.0,0.0,0.0,0.0,0.0,0.0,0.0,0.0,0.0,0.0,0.0,0.0,0.0,0.0,0.0,0.0,0.0,0.0,0.0,0.0,0.0,0.0,0.0,0.0,0.0,0.0,0.0,0.0,0.0,0.0,0.0,0.0,0.0,0.0,0.0,0.0,0.0,0.0,0.0,0.0,0.0,0.0,0.0,0.0,0.0,0.0,0.0,0.0,0.0,0.0,0.0,0.0,0.0,0.0,0.0,0.0,0.0,0.0,0.0,0.0,0.0,0.0,0.0,0.0,0.0,0.0,0.0,0.0,0.0,0.0,0.0,0.0,0.0,0.0,0.0,0.0,0.0,0.0,0.0,0.0,0.0,0.0,-0.6439,-0.6688,-0.6882,-0.7061,-0.7462,-0.7841,0.0,0.0,0.0,0.0,0.0,0.0,0.0,0.0,0.0,0.0,0.0,0.0,0.0,0.0,0.0,0.0,0.0,0.0,0.0,0.0,0.0,0.0,0.0,0.0,0.0,0.0,0.0,0.0,0.0,0.0,0.0,0.0,0.0,0.0,0.0,0.0,0.0,0.0,0.0,0.0,0.0,0.0,0.0,0.0,0.0,0.0,0.0,0.0,0.0,0.0,0.0,0.0,0.0,0.0,0.0,0.0,0.0,0.0,0.0,0.0,0.0,0.0,0.0,0.0,0.0,0.0,0.0,0.0,0.0,0.0,0.0,0.0,0.0,0.0,0.0,0.0,0.0,0.0,0.0,0.0,0.0,0.0,0.0,0.0,0.0,0.0,0.0,0.0,0.0,0.0,0.0,0.0,0.0,0.0,0.0,0.0,0.0,0.0,0.0,0.0,0.0,0.0,0.0,0.0,0.0,0.0,0.0,0.0,0.0,-0.6514,0.0,-0.6864,-0.6964,-0.7471,-0.7878,0.0,0.0,0.0,0.0,0.0,0.0,0.0,0.0,0.0,0.0,0.0,0.0,0.0,0.0,0.0,0.0,0.0,0.0,0.0,0.0,0.0,0.0,0.0,0.0,0.0,0.0,0.0,0.0,0.0,0.0,0.0,0.0,0.0,0.0,0.0,0.0,0.0,0.0,0.0,0.0,0.0,0.0,0.0,0.0,0.0,0.0,0.0,0.0,0.0,0.0,0.0,0.0,0.0,0.0,0.0,0.0,0.0,0.0,0.0,0.0,0.0,0.0,0.0,0.0,0.0,0.0,0.0,0.0,0.0,0.0,0.0,0.0,0.0,0.0,0.0,0.0,0.0,0.0,0.0,0.0,0.0,0.0,0.0,0.0,0.0,0.0,0.0,0.0,0.0,0.0,0.0,0.0,0.0,0.0,0.0,0.0,0.0,0.0,0.0,0.0,0.0,0.0,0.0,0.0,0.0,0.0,0.0,0.0,-0.6715,-0.6715,-0.6721,-0.6855,-0.7115,-0.7402,-0.7717,0.0,0.0,0.0,0.0,0.0,0.0,0.0,0.0,0.0,0.0,0.0,0.0,0.0,0.0,0.0,0.0,0.0,0.0,0.0,0.0,0.0,0.0,0.0,0.0,0.0,0.0,0.0,0.0,0.0,0.0,0.0,0.0,0.0,0.0,0.0,0.0,0.0,0.0,0.0,0.0,0.0,0.0,0.0,0.0,0.0,0.0,0.0,0.0,0.0,0.0,0.0,0.0,0.0,0.0,0.0,0.0,0.0,0.0,0.0,0.0,0.0,0.0,0.0,0.0,0.0,0.0,0.0,0.0,0.0,0.0,0.0,0.0,0.0,0.0,0.0,0.0,0.0,0.0,0.0,0.0,0.0,0.0,0.0,0.0,0.0,0.0,0.0,0.0,0.0,0.0,0.0,0.0,0.0,0.0,0.0,0.0,0.0,0.0,0.0,0.0,0.0,0.0,0.0,0.0,0.0,0.0,0.0,0.0,0.0,-0.7188,-0.7188,-0.7332,-0.7632,-0.7902,-0.8218,0.0,0.0,0.0,0.0,0.0,0.0,0.0,0.0,0.0,0.0,0.0,0.0,0.0,0.0,0.0,0.0,0.0,0.0,0.0,0.0,0.0,0.0,0.0,0.0,0.0,0.0,0.0,0.0,0.0,0.0,0.0,0.0,0.0,0.0,0.0,0.0,0.0,0.0,0.0,0.0,0.0,0.0,0.0,0.0,0.0,0.0,0.0,0.0,0.0,0.0,0.0,0.0,0.0,0.0,0.0,0.0,0.0,0.0,0.0,0.0,0.0,0.0,0.0,0.0,0.0,0.0,0.0,0.0,0.0,0.0,0.0,0.0,0.0,0.0,0.0,0.0,0.0,0.0,0.0,0.0,0.0,0.0,0.0,0.0,0.0,0.0,0.0,0.0,0.0,0.0,0.0,0.0,0.0,0.0,0.0,0.0,0.0,0.0,0.0,0.0,0.0,0.0,0.0,0.0,0.0,0.0,0.0,0.0,0.0,-0.7774,-0.7737,-0.7802,-0.8025,-0.8425,-0.8723,-0.8923,0.0,0.0,0.0,0.0,0.0,0.0,0.0,0.0,0.0,0.0,0.0,0.0,0.0,0.0,0.0,0.0,0.0,0.0,0.0,0.0,0.0,0.0,0.0,0.0,0.0,0.0,0.0,0.0,0.0,0.0,0.0,0.0,0.0,0.0,0.0,0.0,0.0,0.0,0.0,0.0,0.0,0.0,0.0,0.0,0.0,0.0,0.0,0.0,0.0,0.0,0.0,0.0,0.0,0.0,0.0,0.0,0.0,0.0,0.0,0.0,0.0,0.0,0.0,0.0,0.0,0.0,0.0,0.0,0.0,0.0,0.0,0.0,0.0,0.0,0.0,0.0,0.0,0.0,0.0,0.0,0.0,0.0,0.0,0.0,0.0,0.0,0.0,0.0,0.0,0.0,0.0,0.0,0.0,0.0,0.0,0.0,0.0,0.0,0.0,0.0,0.0,0.0,0.0,0.0,0.0,0.0,0.0,0.0,-0.8499,-0.8396,-0.8327,-0.8276,-0.8904,-0.9252,0.0,0.0,0.0,0.0,0.0,0.0,0.0,0.0,0.0,0.0,0.0,0.0,0.0,0.0,0.0,0.0,0.0,0.0,0.0,0.0,0.0,0.0,0.0,0.0,0.0,0.0,0.0,0.0,0.0,0.0,0.0,0.0,0.0,0.0,0.0,0.0,0.0,0.0,0.0,0.0,0.0,0.0,0.0,0.0,0.0,0.0,0.0,0.0,0.0,0.0,0.0,0.0,0.0,0.0,0.0,0.0,0.0,0.0,0.0,0.0,0.0,0.0,0.0,0.0,0.0,0.0,0.0,0.0,0.0,0.0,0.0,0.0,0.0,0.0,0.0,0.0,0.0,0.0,0.0,0.0,0.0,0.0,0.0,0.0,0.0,0.0,0.0,0.0,0.0,0.0,0.0,0.0,0.0,0.0,0.0,0.0,0.0,0.0,0.0,0.0,0.0,0.0,0.0,0.0,0.0,0.0,0.0,0.0,0.0,-0.9739,-0.9931,-0.975,-0.9119,-0.9533,-0.9909,0.0,0.0,0.0,0.0,0.0,0.0,0.0,0.0,0.0,0.0,0.0,0.0,0.0,0.0,0.0,0.0,0.0,0.0,0.0,0.0,0.0,0.0,0.0,0.0,0.0,0.0,0.0,0.0,0.0,0.0,0.0,0.0,0.0,0.0,0.0,0.0,0.0,0.0,0.0,0.0,0.0,0.0,0.0,0.0,0.0,0.0,0.0,0.0,0.0,0.0,0.0,0.0,0.0,0.0,0.0,0.0,0.0,0.0,0.0,0.0,0.0,0.0,0.0,0.0,0.0,0.0,0.0,0.0,0.0,0.0,0.0,0.0,0.0,0.0,0.0,0.0,0.0,0.0,0.0,0.0,0.0,0.0,0.0,0.0,0.0,0.0,0.0,0.0,0.0,0.0,0.0,0.0,0.0,0.0,0.0,0.0,0.0,0.0,0.0,0.0,0.0,0.0,0.0,0.0,0.0,0.0,0.0,0.0,-1.044,-1.0494,-1.0856,-1.0819,-1.0299,-1.0448,-1.0623,0.0,0.0,0.0,0.0,0.0,0.0,0.0,0.0,0.0,0.0,0.0,0.0,0.0,0.0,0.0,0.0,0.0,0.0,0.0,0.0,0.0,0.0,0.0,0.0,0.0,0.0,0.0,0.0,0.0,0.0,0.0,0.0,0.0,0.0,0.0,0.0,0.0,0.0,0.0,0.0,0.0,0.0,0.0,0.0,0.0,0.0,0.0,0.0,0.0,0.0,0.0,0.0,0.0,0.0,0.0,0.0,0.0,0.0,0.0,0.0,0.0,0.0,0.0,0.0,0.0,0.0,0.0,0.0,0.0,0.0,0.0,0.0,0.0,0.0,0.0,0.0,0.0,0.0,0.0,0.0,0.0,0.0,0.0,0.0,0.0,0.0,0.0,0.0,0.0,0.0,0.0,0.0,0.0,0.0,0.0,0.0,0.0,0.0,0.0,0.0,0.0,0.0,0.0,0.0,0.0,0.0,0.0,0.0,-1.0949,-1.1107,-1.1449,-1.1611,-1.162,-1.1458,-1.1377,0.0,0.0,0.0,0.0,0.0,0.0,0.0,0.0,0.0,0.0,0.0,0.0,0.0,0.0,0.0,0.0,0.0,0.0,0.0,0.0,0.0,0.0,0.0,0.0,0.0,0.0,0.0,0.0,0.0,0.0,0.0,0.0,0.0,0.0,0.0,0.0,0.0,0.0,0.0,0.0,0.0,0.0,0.0,0.0,0.0,0.0,0.0,0.0,0.0,0.0,0.0,0.0,0.0,0.0,0.0,0.0,0.0,0.0,0.0,0.0,0.0,0.0,0.0,0.0,0.0,0.0,0.0,0.0,0.0,0.0,0.0,0.0,0.0,0.0,0.0,0.0,0.0,0.0,0.0,0.0,0.0,0.0,0.0,0.0,0.0,0.0,0.0,0.0,0.0,0.0,0.0,0.0,0.0,0.0,0.0,0.0,0.0,0.0,0.0,0.0,0.0,0.0,0.0,0.0,0.0,0.0,0.0,0.0,-1.2181,-1.2311,-1.2397,-1.2435,-1.2445,-1.2104,-1.1868,0.0,0.0,0.0,0.0,0.0,0.0,0.0,0.0,0.0,0.0,0.0,0.0,0.0,0.0,0.0,0.0,0.0,0.0,0.0,0.0,0.0,0.0,0.0,0.0,0.0,0.0,0.0,0.0,0.0,0.0,0.0,0.0,0.0,0.0,0.0,0.0,0.0,0.0,0.0,0.0,0.0,0.0,0.0,0.0,0.0,0.0,0.0,0.0,-1.4254,0.0,0.0,0.0,0.0,0.0,0.0,0.0,0.0,0.0,0.0,0.0,0.0,0.0,0.0,0.0,0.0,0.0,0.0,0.0,0.0,0.0,0.0,0.0,0.0,0.0,0.0,0.0,0.0,0.0,0.0,0.0,0.0,0.0,0.0,0.0,0.0,0.0,0.0,0.0,0.0,0.0,0.0,0.0,0.0,0.0,0.0,0.0,0.0,0.0,0.0,0.0,0.0,0.0,0.0,0.0,0.0,0.0,0.0,0.0,-1.2837,-1.3031,-1.3021,-1.3021,-1.3021,-1.2827,-1.2559,0.0,0.0,0.0,0.0,0.0,0.0,0.0,0.0,0.0,0.0,0.0,0.0,0.0,0.0,0.0,0.0,0.0,0.0,0.0,0.0,0.0,0.0,0.0,0.0,0.0,0.0,0.0,0.0,0.0,0.0,0.0,0.0,0.0,0.0,0.0,0.0,0.0,0.0,0.0,0.0,0.0,0.0,0.0,0.0,0.0,0.0,0.0,0.0,0.0,0.0,0.0,0.0,0.0,0.0,0.0,0.0,0.0,0.0,0.0,0.0,0.0,0.0,0.0,0.0,0.0,0.0,0.0,0.0,0.0,0.0,0.0,0.0,0.0,0.0,0.0,0.0,0.0,0.0,0.0,0.0,0.0,0.0,0.0,0.0,0.0,0.0,0.0,0.0,0.0,0.0,0.0,0.0,0.0,0.0,0.0,0.0,0.0,0.0,0.0,0.0,0.0,0.0,0.0,0.0,0.0,0.0,0.0,-1.3079,-1.3238,-1.3491,-1.3491,-1.3491,-1.3491,-1.3491,-1.3238,-1.2642,0.0,0.0,0.0,0.0,0.0,0.0,0.0,0.0,0.0,0.0,0.0,0.0,0.0,0.0,0.0,0.0,0.0,0.0,0.0,0.0,0.0,0.0,0.0,0.0,0.0,0.0,0.0,0.0,0.0,0.0,0.0,0.0,0.0,0.0,0.0,0.0,0.0,0.0,-1.5264,-1.4962,0.0,0.0,0.0,0.0,0.0,0.0,0.0,0.0,-1.4481,0.0,0.0,0.0,0.0,0.0,0.0,0.0,0.0,0.0,0.0,0.0,0.0,0.0,0.0,0.0,0.0,0.0,0.0,0.0,0.0,0.0,0.0,0.0,0.0,0.0,0.0,0.0,0.0,0.0,0.0,0.0,0.0,0.0,0.0,0.0,0.0,0.0,0.0,0.0,0.0,0.0,0.0,0.0,0.0,0.0,0.0,0.0,0.0,0.0,0.0,0.0,0.0,0.0,0.0,0.0,0.0,-1.3348,-1.3443,-1.3644,-1.3892,-1.3902,-1.3892,-1.3926,-1.3915,-1.3692,-1.3276,0.0,0.0,0.0,0.0,0.0,0.0,0.0,0.0,0.0,0.0,0.0,0.0,0.0,0.0,0.0,0.0,0.0,0.0,0.0,0.0,0.0,0.0,0.0,0.0,0.0,0.0,0.0,0.0,0.0,0.0,0.0,0.0,0.0,0.0,0.0,0.0,0.0,0.0,0.0,-1.5239,-1.4967,0.0,0.0,0.0,0.0,0.0,0.0,0.0,0.0,-1.4404,0.0,0.0,0.0,0.0,0.0,0.0,0.0,0.0,0.0,0.0,0.0,0.0,0.0,0.0,0.0,0.0,0.0,0.0,0.0,0.0,0.0,0.0,0.0,0.0,0.0,0.0,0.0,0.0,0.0,0.0,0.0,0.0,0.0,0.0,0.0,0.0,0.0,0.0,0.0,0.0,0.0,0.0,0.0,0.0,0.0,0.0,0.0,0.0,0.0,0.0,0.0,0.0,0.0,0.0,0.0,-1.3813,-1.3871,-1.4059,-1.4361,-1.4361,-1.4361,-1.4361,-1.4372,-1.4244,0.0,0.0,0.0,0.0,0.0,0.0,0.0,0.0,0.0,0.0,0.0,0.0,0.0,0.0,0.0,0.0,0.0,0.0,0.0,0.0,0.0,0.0,0.0,0.0,0.0,0.0,0.0,0.0,0.0,0.0,0.0,0.0,0.0,0.0,0.0,0.0,0.0,0.0,0.0,0.0,-1.5505,-1.5179,-1.5254,0.0,0.0,0.0,0.0,0.0,0.0,-1.4765,-1.456,0.0,0.0,0.0,0.0,0.0,0.0,0.0,0.0,0.0,0.0,0.0,0.0,0.0,0.0,0.0,0.0,0.0,0.0,0.0,0.0,0.0,0.0,0.0,0.0,0.0,0.0,0.0,0.0,0.0,0.0,0.0,0.0,0.0,0.0,0.0,0.0,0.0,0.0,0.0,0.0,0.0,0.0,0.0,0.0,0.0,0.0,0.0,0.0,0.0,0.0,0.0,0.0,0.0,0.0,0.0,-1.428,-1.4316,-1.4501,-1.4834,-1.4857,-1.4869,-1.4869,-1.4869,-1.4743,0.0,0.0,0.0,0.0,0.0,0.0,0.0,0.0,0.0,0.0,0.0,0.0,0.0,0.0,0.0,0.0,0.0,0.0,0.0,0.0,0.0,0.0,0.0,0.0,0.0,0.0,0.0,0.0,0.0,0.0,0.0,0.0,0.0,0.0,0.0,0.0,0.0,0.0,0.0,0.0,0.0,-1.5593,-1.5698,-1.5581,0.0,0.0,0.0,0.0,-1.5102,-1.4904,0.0,0.0,0.0,0.0,0.0,0.0,0.0,0.0,0.0,0.0,0.0,0.0,0.0,0.0,0.0,0.0,0.0,0.0,0.0,0.0,0.0,0.0,0.0,0.0,0.0,0.0,0.0,0.0,0.0,0.0,0.0,0.0,0.0,0.0,0.0,0.0,0.0,0.0,0.0,0.0,0.0,0.0,0.0,0.0,0.0,0.0,0.0,0.0,0.0,0.0,0.0,0.0,0.0,0.0,0.0,0.0,-1.4557,-1.4731,-1.5006,-1.5379,-1.539,-1.5424,-1.539,-1.539,-1.5232,0.0,0.0,0.0,0.0,0.0,0.0,0.0,0.0,0.0,0.0,0.0,0.0,0.0,0.0,0.0,0.0,0.0,0.0,0.0,0.0,0.0,0.0,0.0,0.0,0.0,0.0,0.0,0.0,0.0,0.0,0.0,0.0,0.0,0.0,0.0,0.0,0.0,0.0,0.0,0.0,0.0,-1.6377,-1.6377,-1.5875,-1.5507,0.0,0.0,-1.5283,-1.5268,-1.4995,0.0,0.0,0.0,0.0,0.0,0.0,0.0,0.0,0.0,0.0,0.0,0.0,0.0,0.0,0.0,0.0,0.0,0.0,0.0,0.0,0.0,0.0,0.0,0.0,0.0,0.0,0.0,0.0,0.0,0.0,0.0,0.0,0.0,0.0,0.0,0.0,0.0,0.0,0.0,0.0,0.0,0.0,0.0,0.0,0.0,0.0,0.0,0.0,0.0,0.0,0.0,0.0,0.0,0.0,0.0,-1.4639,-1.4891,-1.5119,-1.539,-1.5647,-1.5736,-1.578,-1.5802,-1.5768,-1.5657,0.0,0.0,0.0,0.0,0.0,0.0,0.0,0.0,0.0,0.0,0.0,0.0,0.0,0.0,0.0,0.0,0.0,0.0,0.0,0.0,0.0,0.0,0.0,0.0,0.0,0.0,0.0,0.0,0.0,0.0,0.0,0.0,0.0,0.0,0.0,0.0,0.0,0.0,0.0,0.0,0.0,0.0,-1.7184,-1.6619,0.0,0.0,0.0,-1.6075,-1.6394,0.0,0.0,0.0,0.0,0.0,0.0,0.0,0.0,0.0,0.0,0.0,0.0,0.0,0.0,0.0,0.0,0.0,0.0,0.0,0.0,0.0,0.0,0.0,0.0,0.0,0.0,0.0,0.0,0.0,0.0,0.0,0.0,0.0,0.0,0.0,0.0,0.0,0.0,0.0,0.0,0.0,0.0,0.0,0.0,0.0,0.0,0.0,0.0,0.0,0.0,0.0,0.0,0.0,0.0,0.0,0.0,0.0,-1.5198,-1.5446,-1.5714,-1.5935,-1.6032,-1.611,-1.6088,-1.6098,0.0,0.0,0.0,0.0,0.0,0.0,0.0,0.0,0.0,0.0,0.0,0.0,0.0,0.0,0.0,0.0,0.0,0.0,0.0,0.0,0.0,0.0,0.0,0.0,0.0,0.0,0.0,-1.4854,0.0,0.0,0.0,0.0,0.0,0.0,0.0,0.0,0.0,0.0,0.0,0.0,0.0,0.0,-1.7903,-1.7951,-1.7384,-1.7145,0.0,0.0,-1.6922,-1.7296,-1.6632,-1.6196,0.0,0.0,0.0,0.0,0.0,0.0,0.0,0.0,0.0,0.0,0.0,0.0,0.0,0.0,0.0,0.0,0.0,0.0,0.0,0.0,0.0,0.0,0.0,0.0,0.0,0.0,0.0,0.0,0.0,0.0,0.0,0.0,0.0,0.0,0.0,0.0,0.0,0.0,0.0,0.0,0.0,0.0,0.0,0.0,0.0,0.0,0.0,0.0,0.0,0.0,0.0,0.0,0.0,0.0,0.0,-1.5468,-1.5681,-1.5969,-1.6328,-1.6371,-1.6371,-1.6371,-1.6358,-1.6306,0.0,0.0,0.0,0.0,0.0,0.0,0.0,0.0,0.0,0.0,0.0,0.0,0.0,0.0,0.0,0.0,0.0,0.0,0.0,0.0,0.0,0.0,0.0,0.0,0.0,0.0,0.0,0.0,0.0,0.0,0.0,0.0,0.0,0.0,0.0,0.0,0.0,0.0,0.0,0.0,0.0,-1.8625,-1.8642,-1.8057,-1.7654,0.0,0.0,-1.7507,-1.7499,-1.6822,-1.6393,-1.6724,0.0,0.0,0.0,0.0,0.0,0.0,0.0,0.0,0.0,0.0,0.0,0.0,0.0,0.0,0.0,0.0,0.0,0.0,0.0,0.0,0.0,0.0,0.0,0.0,0.0,0.0,0.0,0.0,0.0,0.0,0.0,0.0,0.0,0.0,0.0,0.0,0.0,0.0,0.0,0.0,0.0,0.0,0.0,0.0,0.0,0.0,0.0,0.0,0.0,0.0,0.0,0.0,0.0,-1.539,-1.5669,-1.5925,-1.6166,-1.6371,-1.6436,-1.6457,-1.6457,-1.6556,-1.6513,0.0,0.0,0.0,0.0,0.0,0.0,0.0,0.0,0.0,0.0,0.0,0.0,0.0,0.0,0.0,0.0,0.0,0.0,0.0,0.0,0.0,0.0,0.0,0.0,0.0,0.0,0.0,0.0,-1.453,-1.4532,-1.5504,0.0,0.0,0.0,0.0,0.0,0.0,0.0,0.0,0.0,0.0,-1.9316,-1.9301,-1.8747,0.0,0.0,-1.8527,-1.8357,-1.8737,-1.769,-1.7166,-1.8014,-1.7187,0.0,0.0,0.0,0.0,0.0,0.0,0.0,0.0,0.0,0.0,0.0,0.0,0.0,0.0,0.0,0.0,0.0,0.0,0.0,0.0,0.0,0.0,0.0,0.0,0.0,0.0,0.0,0.0,0.0,0.0,0.0,0.0,0.0,0.0,0.0,0.0,0.0,0.0,0.0,0.0,0.0,0.0,0.0,0.0,0.0,0.0,0.0,0.0,0.0,0.0,0.0,0.0,-1.5592,-1.5881,-1.6122,-1.634,-1.647,-1.6556,-1.6586,-1.6641,-1.6705,-1.6705,0.0,0.0,0.0,0.0,0.0,0.0,0.0,0.0,0.0,0.0,0.0,0.0,0.0,0.0,0.0,0.0,0.0,0.0,0.0,0.0,0.0,0.0,0.0,0.0,0.0,0.0,0.0,0.0,-1.4755,-1.5138,-1.6782,0.0,0.0,0.0,0.0,0.0,0.0,0.0,0.0,0.0,0.0,-1.9723,-1.9708,-1.9318,-1.9166,-1.9615,-1.9263,-1.909,-1.9533,-1.8464,-1.7905,-1.8881,0.0,0.0,0.0,0.0,0.0,0.0,0.0,0.0,0.0,0.0,0.0,0.0,0.0,0.0,0.0,0.0,0.0,0.0,0.0,0.0,0.0,0.0,0.0,0.0,0.0,0.0,0.0,0.0,0.0,0.0,-1.5331,0.0,0.0,0.0,0.0,0.0,0.0,0.0,0.0,0.0,0.0,0.0,0.0,0.0,0.0,0.0,0.0,0.0,0.0,0.0,0.0,0.0,0.0,-1.5859,-1.6001,-1.6262,-1.6504,-1.6688,-1.6697,-1.6761,-1.6888,-1.691,-1.6897,-1.6884,0.0,0.0,0.0,0.0,0.0,0.0,0.0,0.0,0.0,0.0,0.0,0.0,0.0,0.0,0.0,0.0,0.0,0.0,0.0,0.0,0.0,0.0,0.0,0.0,0.0,0.0,-1.48,-1.5271,-1.6148,0.0,0.0,0.0,0.0,0.0,0.0,0.0,0.0,0.0,0.0,-1.969,-1.9723,-1.9708,-1.9693,-1.9663,-1.969,-1.9693,-1.9642,-1.9611,-1.8942,-1.8611,0.0,0.0,0.0,0.0,0.0,0.0,0.0,0.0,0.0,0.0,0.0,0.0,0.0,0.0,0.0,0.0,0.0,0.0,0.0,0.0,0.0,0.0,0.0,0.0,0.0,0.0,0.0,-1.6494,-1.6503,0.0,0.0,0.0,0.0,0.0,0.0,0.0,0.0,0.0,0.0,0.0,-1.7909,-1.8204,0.0,0.0,0.0,0.0,0.0,0.0,0.0,0.0,0.0,0.0,0.0,0.0,-1.5957,-1.6306,-1.6436,-1.6586,-1.6825,-1.6846,-1.6888,-1.696,-1.7044,-1.6974,-1.6717,0.0,0.0,0.0,0.0,0.0,0.0,0.0,0.0,0.0,0.0,0.0,0.0,0.0,0.0,0.0,0.0,0.0,0.0,0.0,0.0,0.0,0.0,0.0,0.0,0.0,-1.4944,0.0,0.0,0.0,0.0,0.0,0.0,0.0,0.0,0.0,0.0,0.0,-1.9723,-1.9723,-1.9723,-1.9723,-1.9723,-1.9723,-1.9723,0.0,0.0,0.0,0.0,0.0,0.0,0.0,0.0,0.0,0.0,0.0,0.0,0.0,0.0,-1.8649,-1.8439,-1.8478,-1.8517,-1.8406,0.0,0.0,0.0,0.0,0.0,0.0,0.0,0.0,0.0,0.0,0.0,0.0,0.0,0.0,-1.7851,0.0,-1.8062,0.0,0.0,0.0,0.0,0.0,0.0,0.0,0.0,-1.853,-1.8679,-1.8827,-1.8946,-1.9011,0.0,-1.8664,-1.7937,0.0,0.0,0.0,0.0,0.0,0.0,0.0,0.0,-1.6197,-1.65,-1.6586,-1.6769,-1.6989,-1.6989,-1.7065,-1.7178,-1.7303,-1.7182,-1.6741,-1.6695,-1.6346,0.0,0.0,0.0,0.0,0.0,0.0,0.0,0.0,0.0,0.0,0.0,0.0,0.0,0.0,0.0,0.0,0.0,0.0,0.0,0.0,0.0,0.0,0.0,-1.5565,0.0,0.0,0.0,0.0,0.0,0.0,0.0,0.0,0.0,-1.9675,-1.9723,-1.9723,-1.9723,-1.9723,-1.9723,-1.9723,0.0,0.0,0.0,0.0,0.0,0.0,0.0,-1.9055,-1.9394,-1.9002,-1.8746,-1.9076,-1.913,-1.913,-1.913,0.0,0.0,-1.8755,-1.8774,-1.8812,-1.8736,-1.8527,-1.8186,-1.7637,-1.7079,-1.6515,0.0,0.0,0.0,0.0,0.0,0.0,0.0,0.0,-1.9063,-1.9313,0.0,-1.9608,0.0,0.0,0.0,0.0,0.0,-1.8433,0.0,0.0,-1.8946,-1.9093,-1.9212,-1.9356,-1.9394,-1.942,-1.9408,-1.9215,-1.8759,-1.7255,0.0,0.0,0.0,0.0,0.0,0.0,-1.6509,-1.6543,-1.6791,-1.7023,-1.7199,-1.722,-1.7323,-1.7496,-1.7645,-1.7497,-1.7044,-1.7003,-1.6674,-1.5958,-1.5858,0.0,0.0,0.0,0.0,0.0,0.0,0.0,0.0,0.0,0.0,0.0,0.0,0.0,0.0,0.0,0.0,0.0,0.0,0.0,0.0,-1.5557,0.0,0.0,0.0,0.0,0.0,0.0,0.0,0.0,0.0,0.0,-1.9708,-1.9723,-1.9723,-1.9723,0.0,0.0,0.0,0.0,-1.9723,-1.9723,-1.9723,-1.9723,-1.9723,-1.965,-1.9578,-1.9593,0.0,0.0,-1.9395,-1.9409,-1.9395,-1.9409,-1.9413,-1.9358,-1.9157,-1.9101,-1.9101,-1.9087,-1.8585,-1.7934,-1.7345,-1.6799,-1.6177,-1.8878,0.0,0.0,0.0,0.0,-1.9231,-1.9371,-1.9436,-1.9778,-1.9983,-2.0152,-2.0286,0.0,0.0,0.0,0.0,0.0,0.0,-1.9066,-1.9223,-1.9263,-1.9408,-1.9618,-1.9656,-1.972,-1.9823,-1.9836,-1.9774,-1.9623,-1.8918,-1.8092,-1.7215,0.0,0.0,0.0,0.0,-1.6842,-1.701,-1.7183,-1.735,-1.7556,-1.7543,-1.7652,-1.7861,-1.8042,-1.7885,-1.7315,-1.7287,-1.6973,-1.629,-1.61,0.0,0.0,0.0,0.0,0.0,0.0,0.0,0.0,0.0,0.0,0.0,0.0,0.0,0.0,0.0,0.0,0.0,0.0,0.0,-1.6288,-1.7021,-1.7678,0.0,0.0,0.0,0.0,0.0,0.0,0.0,0.0,0.0,-1.9723,-1.9723,-1.9723,0.0,0.0,-1.9723,-1.9723,-1.9723,-1.9723,-1.9723,-1.9723,0.0,-1.9723,-1.9672,-1.965,-1.9611,-1.9468,-1.9409,-1.9409,-1.9483,-1.9556,-1.9538,-1.9578,-1.9599,-1.953,-1.9398,-1.9306,-1.9244,-1.8775,-1.8147,-1.7531,-1.6935,-1.6304,-1.9572,-1.9594,-1.9627,-1.9706,-1.9841,-2.0147,-2.0372,-2.0512,-2.0842,-2.1051,-2.1211,-2.1359,-2.1297,-2.109,-2.0945,0.0,0.0,0.0,-1.9737,-1.9655,-1.9641,-1.9772,-2.0029,-2.0042,-2.0118,-2.022,-2.022,-2.0271,-2.0296,-2.0135,-1.9547,-1.8604,0.0,0.0,-1.7252,-1.7174,-1.7183,-1.731,-1.744,-1.7618,-1.7814,-1.7868,-1.7955,-1.8108,-1.8279,-1.8243,-1.7922,-1.7922,-1.759,-1.6902,-1.6743,-1.645,0.0,0.0,0.0,0.0,0.0,0.0,0.0,0.0,0.0,0.0,0.0,-1.6799,0.0,0.0,0.0,0.0,-1.7079,-1.7216,-1.7333,-1.7876,0.0,0.0,0.0,0.0,0.0,0.0,0.0,-2.0453,-2.0483,-2.0501,-2.0501,-2.0483,-2.0288,-1.9783,-1.9723,-1.9723,-1.9723,0.0,-1.9723,-1.9723,-1.9723,-1.9723,-1.9723,-1.9723,-1.969,-1.965,-1.9578,-1.9523,-1.9508,-1.9563,-1.9632,-1.9665,-1.9687,-1.9723,-1.9723,-1.9599,-1.9523,-1.9493,-1.8767,-1.8026,-1.764,-1.6917,-1.6144,-2.0096,-2.0172,-2.0193,-2.0302,-2.0496,-2.1042,-2.1443,-2.1745,-2.2111,-2.2321,-2.2451,-2.2647,-2.2468,-2.1992,-2.1596,0.0,-2.0694,-2.0742,-2.0521,-2.0118,-2.0054,-2.0182,-2.0447,-2.0447,-2.0523,-2.0646,-2.066,-2.0734,-2.0858,-2.0995,-2.0887,-2.0489,-1.9066,-1.8293,-1.8144,-1.7742,-1.7514,-1.755,-1.7686,-1.7848,-1.8062,-1.8175,-1.8288,-1.8324,-1.847,-1.8581,-1.8711,-1.8711,-1.8423,-1.7767,-1.7586,-1.7121,-1.6282,0.0,0.0,0.0,0.0,0.0,0.0,0.0,0.0,0.0,0.0,0.0,0.0,0.0,0.0,0.0,-1.7185,0.0,-1.8226,-1.8376,0.0,0.0,0.0,-1.9779,-2.0436,-2.0559,-2.088,-2.162,0.0,0.0,-2.1695,-2.1695,-2.1246,-2.0022,-1.9813,-1.9783,-1.9783,-1.9738,-1.9723,-1.9723,-1.9723,-1.9723,-1.9723,-1.9723,-1.9708,-1.9705,-1.9723,-1.9705,-1.969,-1.969,-1.969,-1.9708,-1.9723,-1.9723,-1.9723,-1.969,-1.9678,-1.9585,-1.858,-1.7682,-1.7533,-1.6637,-1.5859,-2.0917,-2.0732,-2.0976,-2.1051,-2.1063,-2.1526,-2.187,-2.2123,-2.2543,-2.2757,-2.2787,-2.2927,-2.3015,-2.3026,-2.2633,-2.2416,-2.2362,-2.1529,-2.1146,-2.1108,-2.0667,-2.0598,-2.086,-2.086,-2.097,-2.1191,-2.1191,-2.1264,-2.141,-2.1544,-2.1605,-2.1568,-2.0894,-1.9902,-1.8685,-1.858,-1.8344,-1.7868,-1.8062,-1.8279,-1.8523,-1.8625,-1.8669,-1.8688,-1.8812,-1.8898,-1.8936,-1.8936,-1.8846,-1.8655,-1.7978,-1.7473,-1.7264,-1.7005,0.0,0.0,0.0,0.0,0.0,0.0,0.0,0.0,0.0,-1.7638,-1.7841,0.0,-1.7862,0.0,-1.7784,-1.824,-1.9046,-1.9228,0.0,0.0,-2.0057,-2.0467,-2.062,-2.1087,-2.1476,-2.168,-2.1695,-2.1695,-2.1695,-2.1695,-2.159,-2.1246,-2.0797,-2.0468,-2.0434,-2.0004,-1.9723,-1.9723,-1.9723,-1.9723,-1.9723,-1.9723,-1.9723,-1.9723,-1.9723,-1.9723,-1.9723,-1.9723,-1.9723,-1.9723,-1.9723,-1.9723,-1.9723,-1.9723,-1.9513,-1.9031,-1.8252,-1.7533,-1.704,-1.6338,-1.5814,-2.1743,-2.1576,-2.1777,-2.1851,-2.1851,-2.1975,-2.2235,-2.2525,-2.2787,-2.2969,-2.3163,-2.336,-2.3509,-2.3628,-2.3573,-2.3459,-2.3268,-2.2775,-2.23,-2.1885,-2.154,-2.1347,-2.1277,-2.1326,-2.1471,-2.1688,-2.1722,-2.1793,-2.1878,-2.2067,-2.2208,-2.2263,-2.2093,-2.1394,-2.0259,-1.9782,-1.9433,-1.9175,-1.9037,-1.905,-1.9182,-1.8922,-1.8803,-1.8803,-1.8941,-1.9012,-1.9012,-1.9012,-1.9012,-1.8993,-1.8451,-1.812,-1.8097,-1.7869,-1.7658,0.0,0.0,0.0,0.0,0.0,0.0,0.0,0.0,0.0,0.0,0.0,-1.8445,-1.8335,-1.8633,-1.9115,-1.9823,-1.999,-2.0214,-2.0516,-2.0893,-2.1261,-2.1545,-2.1919,-2.2233,-2.2503,-2.2532,-2.2532,-2.2532,-2.2532,-2.2532,-2.2532,-2.1994,-2.1365,-2.0767,-2.0124,-1.9723,-1.9723,-1.9723,-1.9723,-1.9723,-1.9723,-1.9723,-1.9723,-1.9723,-1.9723,-1.9723,-1.9723,-1.9723,-1.9723,-1.9723,-1.9723,-1.9723,-1.9723,-1.9423,-1.8508,-1.7968,-1.7473,-1.683,-1.6219,-1.5813,-2.2654,-2.2553,-2.2587,-2.2653,-2.2714,-2.2482,-2.2616,-2.2969,-2.2969,-2.318,-2.3492,-2.3832,-2.3966,-2.3995,-2.4392,-2.4341,-2.3929,-2.4096,-2.3646,-2.2743,-2.2647,-2.2328,-2.1822,-2.1941,-2.2042,-2.2091,-2.2231,-2.2301,-2.231,-2.2555,-2.2669,-2.2706,-2.2859,-2.268,-2.2163,-2.1227,-2.0749,-2.0656,-2.0176,-1.9959,-1.9964,-1.9371,-1.907,-1.9085,-1.919,-1.9243,-1.9258,-1.9243,-1.9262,-1.9243,-1.9137,-1.9041,-1.8972,-1.8841,-1.8697,0.0,-1.841,0.0,0.0,0.0,0.0,0.0,0.0,0.0,0.0,-1.8729,-1.9018,-1.9255,-1.9619,-2.0068,-2.0589,-2.0755,-2.1066,-2.162,-2.1769,-2.2074,-2.2613,-2.2763,-2.3032,-2.3535,-2.3595,-2.3595,-2.355,-2.3595,-2.3595,-2.3475,-2.2972,-2.2203,-2.1186,-2.0363,-1.9839,-1.9753,-1.9723,-1.9723,-1.9723,-1.9723,-1.9723,-1.9723,-1.9723,-1.9723,-1.9723,-1.9723,-1.9723,-1.9723,-1.9723,-1.9723,-1.9723,-1.9723,-1.9303,-1.8162,-1.7833,-1.7443,-1.6712,-1.6159,-1.5843,-2.4075,-2.3313,-2.3592,-2.357,-2.342,-2.336,-2.3343,-2.3313,-2.342,-2.3599,-2.3819,-2.4232,-2.4379,-2.4408,-2.475,-2.498,-2.5053,-2.4668,-2.4497,-2.4511,-2.4019,-2.3494,-2.3015,-2.3107,-2.2956,-2.2586,-2.2709,-2.2822,-2.2926,-2.2971,-2.3061,-2.3164,-2.3194,-2.3157,-2.304,0.0,0.0,0.0,-2.0806,-2.0713,-2.0752,-2.0651,-2.0564,-2.0599,-2.0599,0.0,-2.0634,-2.0634,-2.0619,-2.0619,-2.0532,0.0,0.0,0.0,0.0,0.0,0.0,0.0,0.0,0.0,0.0,0.0,-2.0495,-2.0088,-1.8999,-1.9614,-2.0118,-2.0237,-2.0783,-2.1228,-2.1461,-2.148,-2.1545,-2.1695,-2.2194,-2.2568,-2.2703,-2.3137,-2.3475,-2.358,-2.3595,-2.3595,-2.3595,-2.3595,-2.3595,-2.3565,-2.3092,-2.2643,-2.2328,-2.1216,-2.0333,-1.9824,-1.9708,-1.9708,-1.9723,-1.9723,-1.9708,-1.9723,-1.9723,-1.9723,-1.9723,-1.9723,-1.9723,-1.9723,-1.9723,-1.9723,-1.9723,-1.9723,-1.9468,-1.8672,-1.8087,-1.7355,-1.6233,-1.5889,-1.5813,-2.5187,0.0,-2.4502,-2.4309,0.0,-2.4031,-2.4102,-2.4173,-2.394,-2.3969,-2.4232,-2.4723,-2.4964,-2.4951,-2.5342,-2.5646,-2.5823,-2.565,-2.5485,-2.5395,-2.5091,-2.4629,-2.41,-2.4235,-2.396,-2.342,-2.3535,-2.345,-2.3223,-2.3275,-2.3341,-2.34,-2.3414,-2.3458,-2.3436,-2.3407,-2.2994,-2.2189,-2.1783,-2.1608,-2.1635,-2.1348,-2.1187,-2.1202,-2.1187,0.0,0.0,0.0,0.0,0.0,0.0,0.0,0.0,0.0,0.0,-2.0907,-2.0865,-2.0953,-2.1176,-2.1305,-2.139,-2.1454,-2.1351,-2.0979,-2.0235,-2.0661,-2.0956,-2.0981,-2.1367,-2.1769,-2.2143,-2.2173,-2.2308,-2.2607,-2.2936,-2.3152,-2.3161,-2.34,-2.3595,-2.3595,-2.3595,-2.3595,-2.3595,-2.3595,-2.3595,-2.3595,-2.3362,-2.2912,-2.2294,-2.137,-2.0468,-1.9864,-1.9797,-1.9815,-1.9777,-1.9744,-1.9726,-1.9708,-1.9723,-1.9723,-1.9723,-1.9723,-1.9723,-1.9723,-1.9723,-1.9723,-1.9723,-1.9723,-1.948,-1.8882,-1.8448,-1.7758,-1.6548,-1.6009,-1.5827,-2.6233,-2.5777,-2.5568,-2.5233,-2.4813,-2.4855,-2.4973,-2.5146,0.0,0.0,0.0,-2.5287,-2.5563,-2.5577,-2.6015,-2.6312,-2.6457,-2.6578,-2.6445,-2.6104,-2.613,-2.5769,-2.5194,-2.5301,-2.4987,-2.4361,-2.4345,-2.4088,-2.3541,-2.3532,-2.3531,-2.3516,-2.3566,-2.3595,-2.3595,-2.3538,-2.3473,-2.3334,-2.2766,-2.2479,-2.2464,-2.1984,-2.1724,-2.1724,-2.1724,-2.1724,-2.1724,-2.1642,-2.158,-2.158,-2.1565,-2.158,-2.158,-2.1565,-2.1565,-2.1565,-2.1512,-2.1718,-2.2206,-2.2322,-2.2416,-2.2438,-2.2091,-2.1737,-2.1469,-2.1604,-2.1718,-2.1704,-2.1903,-2.2263,-2.2808,-2.2868,-2.3062,-2.355,-2.3595,-2.3595,-2.3595,-2.3616,-2.3616,-2.3595,-2.3616,-2.3616,-2.3595,-2.3595,-2.3595,-2.361,-2.3586,-2.3194,-2.2044,-2.1102,-2.0362,-1.9936,-1.9919,-1.9955,-1.9884,-1.983,-1.9815,-1.9795,-1.9777,-1.9744,-1.9744,-1.9762,-1.9744,-1.9777,-1.9762,-1.9762,-1.9744,-1.9759,-1.9528,-1.9004,-1.8777,-1.8388,-1.7309,-1.6503,-1.6036,-2.7444,-2.6963,-2.7229,-2.6859,-2.614,-2.614,-2.6064,-2.5907,-2.5439,-2.5231,-2.5315,-2.5906,-2.6176,-2.6188,-2.6484,-2.6788,-2.7063,-2.7089,-2.7185,-2.7349,-2.7349,-2.6932,-2.6209,-2.6331,-2.5974,-2.5216,-2.4774,-2.4515,-2.4365,-2.3872,-2.3573,-2.361,-2.3595,-2.3595,-2.3595,-2.3588,-2.3588,-2.3551,-2.3303,-2.3164,-2.3164,-2.3076,-2.3017,-2.3039,-2.3024,-2.3032,-2.3032,-2.3002,-2.2995,-2.2995,-2.2995,-2.301,-2.2995,-2.298,-2.2995,-2.2995,-2.2988,-2.3017,-2.3106,-2.3157,-2.3186,-2.3295,-2.3314,-2.2799,-2.1639,-2.2122,-2.2532,-2.2562,-2.2981,-2.337,-2.3475,-2.3467,-2.3496,-2.3565,-2.3595,-2.3595,-2.3616,-2.3717,-2.3739,-2.3616,-2.3717,-2.3739,-2.3638,-2.3595,-2.3595,-2.3595,-2.3546,-2.3275,-2.2056,-2.0894,-2.0167,-1.9985,-1.9973,-2.0005,-1.9973,-1.9955,-1.9955,-1.9955,-1.9937,-1.9919,-1.9937,-1.9919,-1.9935,-1.9952,-1.9952,-1.9937,-1.9937,-1.9866,-1.9737,-1.9554,-1.9174,-1.8674,-1.8315,-1.7449,-1.6577,-2.8302,-2.7896,-2.8146,-2.7664,-2.675,-2.6552,-2.6487,-2.6537,-2.6431,-2.6229,-2.6068,-2.6563,-2.6788,-2.6814,-2.7074,-2.7321,-2.7514,-2.7539,-2.764,-2.7815,-2.7831,-2.7625,-2.7304,-2.7323,-2.6992,-2.6281,-2.6027,-2.5561,-2.4844,-2.4497,-2.4143,-2.3747,-2.3638,-2.3595,-2.3595,-2.3595,-2.3595,-2.3595,-2.3523,-2.3458,-2.3458,-2.348,-2.3458,-2.348,-2.348,-2.3458,-2.3458,-2.3429,-2.3422,-2.3422,-2.3407,-2.3407,-2.3422,-2.3436,-2.348,-2.3458,-2.3458,-2.3458,-2.3458,-2.3458,-2.348,-2.356,-2.3588,-2.3349,-2.2688,-2.2975,-2.3191,-2.3197,-2.3524,-2.3717,-2.3696,-2.376,-2.3818,-2.3839,-2.3818,-2.3818,-2.3839,-2.3876,-2.3882,-2.3839,-2.3861,-2.3861,-2.3717,-2.3696,-2.3674,-2.3608,-2.3233,-2.2485,-2.1641,-2.077,-2.0131,-2.008,-2.0113,-2.0131,-2.0063,-2.0061,-2.0043,-1.999,-2.0005,-2.0005,-2.0005,-2.0005,-2.0005,-2.0005,-2.0005,-2.0005,-2.0005,-1.9952,-1.9902,-1.9887,-1.9703,-1.9338,-1.8887,-1.7893,-1.6863,-2.9122,-2.8827,-2.904,-2.8524,-2.7537,-2.6963,-2.6852,-2.7122,-2.728,-2.7178,-2.6956,-2.7218,-2.7361,-2.7397,-2.7625,-2.7825,-2.7965,-2.7989,-2.8039,-2.8152,-2.8177,-2.8152,-2.8128,-2.8128,-2.7853,-2.7326,-2.7144,-2.6511,-2.5583,-2.518,-2.4613,-2.3936,-2.3739,-2.3696,-2.3674,-2.3696,-2.3696,-2.3696,-2.3696,-2.3653,-2.3595,-2.3595,-2.3595,-2.3595,-2.3595,-2.3595,-2.3595,-2.356,-2.3516,-2.3516,-2.3516,-2.3531,-2.3531,-2.3566,-2.3595,-2.3595,-2.3595,-2.3595,-2.3595,-2.3595,-2.3595,-2.3595,-2.3595,-2.3595,-2.3595,-2.3616,-2.3638,-2.3653,-2.376,-2.3839,-2.3861,-2.3946,-2.4009,-2.4024,-2.403,-2.4067,-2.4067,-2.4088,-2.4067,-2.403,-2.4046,-2.4024,-2.3882,-2.3839,-2.3743,-2.3405,-2.2647,-2.1843,-2.1219,-2.0665,-2.0283,-2.0202,-2.0235,-2.0252,-2.0168,-2.015,-2.0115,-2.0076,-2.0061,-2.0093,-2.0093,-2.0076,-2.0076,-2.0093,-2.0061,-2.0078,-2.0076,-2.0043,-2.0025,-2.0008,-1.9929,-1.9747,-1.9096,-1.8339,-1.7303,-2.9964,-2.9983,-3.0257,-2.9857,-2.8796,-2.775,-2.7463,-2.7715,-2.786,-2.7999,-2.7999,-2.784,-2.7825,-2.7934,-2.8088,-2.8284,-2.8501,-2.8525,-2.8589,-2.87,-2.8723,-2.866,-2.8549,-2.8565,-2.8462,-2.8187,-2.757,-2.7155,-2.6849,-2.5651,-2.4672,-2.4058,-2.3982,-2.3961,-2.3961,-2.3961,-2.3961,-2.3961,-2.3961,-2.3839,-2.3616,-2.3595,-2.3595,-2.3595,-2.3595,-2.3595,-2.3595,-2.3595,-2.3573,-2.3595,-2.3588,-2.3588,-2.3595,-2.3595,-2.3595,-2.3595,-2.3595,-2.3595,-2.3595,-2.3595,-2.3595,-2.3595,-2.3595,-2.361,-2.3625,-2.3732,-2.3797,-2.3878,-2.3949,-2.3982,-2.4003,-2.4051,-2.412,-2.4141,-2.4219,-2.4276,-2.4297,-2.4395,-2.4359,-2.4099,-2.4219,-2.4213,-2.4046,-2.4003,-2.3745,-2.3178,-2.2543,-2.1843,-2.1218,-2.0685,-2.0287,-2.0287,-2.0287,-2.0287,-2.0254,-2.027,-2.0252,-2.0252,-2.0252,-2.0235,-2.025,-2.025,-2.027,-2.0218,-2.0252,-2.0235,-2.0218,-2.0185,-2.0098,-2.0098,-2.0032,-1.9843,-1.9272,-1.8923,-1.8358,-3.0507,-3.0523,-3.0866,-3.0435,-2.9346,-2.8231,-2.7915,-2.8177,-2.8293,-2.8462,-2.859,-2.8494,-2.8446,-2.8422,-2.8542,-2.8708,-2.8889,-2.8905,-2.8928,-2.899,-2.8975,-2.8951,-2.8905,-2.8905,-2.8834,-2.8685,-2.8358,-2.7946,-2.7396,-2.644,-2.558,-2.4943,-2.4823,-2.4597,-2.4202,-2.4094,-2.4057,-2.4036,-2.4009,-2.394,-2.3839,-2.3839,-2.3797,-2.3717,-2.3717,-2.3696,-2.3595,-2.3595,-2.3595,-2.3595,-2.3595,-2.3595,-2.3595,-2.3595,-2.3595,-2.3595,-2.3595,-2.3595,-2.3595,-2.3595,-2.3595,-2.3595,-2.3595,-2.3766,-2.4258,-2.445,-2.4717,-2.5153,-2.4646,-2.4193,-2.4193,-2.4323,-2.4426,-2.4508,-2.4564,-2.4605,-2.462,-2.4661,-2.4584,-2.4446,-2.4431,-2.4426,-2.4297,-2.4172,-2.3656,-2.288,-2.2294,-2.1807,-2.0901,-2.0456,-2.0333,-2.0287,-2.0287,-2.0287,-2.0287,-2.0287,-2.0287,-2.0287,-2.0287,-2.0287,-2.0287,-2.0287,-2.0287,-2.0287,-2.0287,-2.0287,-2.0287,-2.027,-2.022,-2.0202,-2.0202,-2.0076,-1.9849,-1.9498,-1.8976,-3.1014,-3.1058,-3.1021,-3.0569,-2.9788,-2.8646,-2.8293,-2.8541,-2.8668,-2.8842,-2.9013,-2.9067,-2.9082,-2.8997,-2.8997,-2.9082,-2.9252,-2.9275,-2.9259,-2.9289,-2.9305,-2.9282,-2.9275,-2.9275,-2.919,-2.9098,-2.902,-2.8582,-2.7825,-2.7311,-2.6648,-2.6034,-2.5802,-2.549,-2.505,-2.4883,-2.4798,-2.4814,-2.4771,-2.4744,-2.4759,-2.4729,-2.4454,-2.3943,-2.4042,-2.409,-2.4003,-2.4131,-2.4124,-2.3944,-2.3901,-2.3789,-2.361,-2.3595,-2.3595,-2.3595,-2.3595,-2.3595,-2.3595,-2.3595,-2.3684,-2.3849,-2.3901,-2.4273,-2.4904,-2.5264,-2.5678,-2.6171,-2.5571,-2.5066,-2.4746,-2.4885,-2.495,-2.4914,-2.4906,-2.4922,-2.4942,-2.4942,-2.4886,-2.4771,-2.4735,-2.469,-2.4584,-2.4354,-2.3825,-2.2701,-2.2289,-2.1738,-2.0659,-2.032,-2.0287,-2.0287,-2.0287,-2.0287,-2.0287,-2.0287,-2.0287,-2.0287,-2.0287,-2.0287,-2.0287,-2.0287,-2.0287,-2.0287,-2.0287,-2.0287,-2.0287,-2.0287,-2.0287,-2.0287,-2.0287,-2.0272,-2.021,-1.9842,-1.9549,-3.1552,-3.153,-3.0654,-3.0322,-3.0279,-2.9088,-2.87,-2.8873,-2.9029,-2.916,-2.9328,-2.9531,-2.9687,-2.9722,-2.9448,-2.9434,-2.9637,-2.9659,-2.9704,-2.9744,-2.975,-2.9738,-2.9675,-2.9675,-2.9608,-2.9457,-2.935,-2.8926,-2.818,-2.8079,-2.7699,-2.7073,-2.6902,-2.6806,-2.6659,-2.652,-2.6526,-2.6417,-2.6433,-2.6489,-2.6526,-2.6511,-2.5673,-2.4362,-2.4626,-2.496,-2.4962,-2.5417,-2.5402,-2.4768,-2.4635,-2.4298,-2.3699,-2.361,-2.3595,-2.3616,-2.3646,-2.3646,-2.3661,-2.3721,-2.3961,-2.4462,-2.4702,-2.504,-2.5727,-2.6107,-2.6387,-2.647,-2.6823,-2.6613,-2.59,-2.5805,-2.5638,-2.5187,-2.5201,-2.5275,-2.5259,-2.5256,-2.5201,-2.5088,-2.5048,-2.497,-2.4806,-2.4666,-2.4017,-2.3051,-2.2559,-2.2006,-2.0837,-2.04,-2.0304,-2.0304,-2.0304,-2.0287,-2.0287,-2.0287,-2.0287,-2.0287,-2.0287,-2.0287,-2.0287,-2.0287,-2.0287,-2.0287,-2.0287,-2.0287,-2.0287,-2.0287,-2.0287,-2.0287,-2.0287,-2.0287,-2.0287,-2.0287,-2.004,-3.2092,-3.2161,-3.1067,-3.0654,-3.0641,-2.9532,-2.9098,-2.9175,-2.9373,-2.9531,-2.9633,-2.982,-2.9951,-3.0044,-2.9913,-2.993,-3.0033,-3.0033,-3.0055,-3.006,-3.0044,-3.006,-3.0017,-3.0033,-2.9968,-2.9836,-2.9792,-2.9559,-2.9245,-2.914,-2.8766,-2.8158,-2.7976,-2.7705,-2.7286,-2.7131,-2.7089,-2.7067,-2.7008,-2.6944,-2.6997,-2.6944,-2.6612,-2.6039,-2.601,-2.5935,-2.5772,-2.5978,-2.591,-2.5576,-2.5516,-2.5191,-2.4541,-2.4087,-2.3876,-2.3891,-2.4254,-2.4495,-2.4541,-2.4888,-2.5221,-2.5447,-2.5516,-2.594,-2.665,-2.6972,-2.7326,-2.7966,-2.825,-2.7971,-2.7162,-2.6627,-2.6106,-2.5602,-2.5513,-2.553,-2.5505,-2.5486,-2.5429,-2.5278,-2.522,-2.5182,-2.5123,-2.4989,-2.4532,-2.3677,-2.3014,-2.2235,-2.1381,-2.0752,-2.0356,-2.0371,-2.0321,-2.0287,-2.0287,-2.0287,-2.0287,-2.0287,-2.0287,-2.0287,-2.0287,-2.0287,-2.0287,-2.0287,-2.0287,-2.0287,-2.0287,-2.0287,-2.0287,-2.0287,-2.0287,-2.0287,-2.0287,-2.0287,-2.0179,-3.2617,-3.2616,-3.1481,-3.1058,-3.104,-2.9916,-2.948,-2.9531,-2.9726,-2.9842,-2.9919,-3.006,-3.0167,-3.0318,-3.052,-3.064,-3.0657,-3.0635,-3.075,-3.0991,-3.1007,-3.0986,-3.0909,-3.0712,-3.0533,-3.0392,-3.0141,-3.0017,-2.9919,-2.9902,-2.9605,-2.9113,-2.9022,-2.8732,-2.8297,-2.8148,-2.81,-2.8078,-2.8019,-2.7976,-2.7976,-2.796,-2.7955,-2.789,-2.7709,-2.7317,-2.6778,-2.6842,-2.675,-2.6482,-2.6359,-2.6009,-2.5355,-2.4944,-2.47,-2.4687,-2.5111,-2.5392,-2.5438,-2.5811,-2.6153,-2.6436,-2.6528,-2.688,-2.7697,-2.7884,-2.8381,-2.8965,-2.9243,-2.8936,-2.8172,-2.7413,-2.6662,-2.5947,-2.5772,-2.5735,-2.5694,-2.5694,-2.5637,-2.5543,-2.547,-2.5451,-2.5432,-2.5336,-2.4907,-2.4225,-2.3399,-2.2593,-2.181,-2.103,-2.0458,-2.044,-2.0388,-2.0354,-2.0321,-2.0321,-2.0304,-2.0287,-2.0287,-2.0287,-2.0287,-2.0287,-2.0287,-2.0287,-2.0287,-2.0287,-2.0287,-2.0287,-2.0287,-2.0287,-2.0287,-2.0287,-2.0287,-2.0287,-2.021,-3.3176,-3.3129,-3.1933,-3.1525,-3.1438,-3.0335,-2.9863,-2.9989,-3.0017,-3.0103,-3.0231,-3.0408,-3.057,-3.062,-3.1295,-3.1615,-3.1714,-3.1703,-3.1935,-3.2426,-3.2497,-3.2447,-3.2286,-3.1748,-3.1375,-3.1177,-3.0571,-3.0259,-3.0189,-3.0167,-3.0135,-3.0135,-2.994,-2.9794,-2.993,-2.9659,-2.968,-2.961,-2.9577,-2.9642,-2.9777,-2.961,-2.955,-2.9559,-2.9498,-2.8972,-2.7944,-2.8186,-2.7997,-2.7473,-2.7185,-2.6701,-2.6207,-2.6046,-2.6092,-2.5955,-2.61,-2.6206,-2.6229,-2.6344,-2.6796,-2.7273,-2.7527,-2.7907,-2.849,-2.881,-2.9042,-2.9289,-2.9493,-2.9431,-2.8879,-2.8237,-2.7385,-2.6176,-2.5981,-2.5899,-2.5881,-2.5897,-2.5915,-2.5844,-2.5754,-2.5701,-2.5682,-2.5624,-2.529,-2.4581,-2.3815,-2.3002,-2.2193,-2.1392,-2.0769,-2.0527,-2.0475,-2.0457,-2.0405,-2.0354,-2.0321,-2.0287,-2.0287,-2.0287,-2.0287,-2.0287,-2.0287,-2.0287,-2.0287,-2.0287,-2.0287,-2.0287,-2.0287,-2.0287,-2.0287,-2.0287,-2.0287,-2.0287,-2.0287,-3.3503,-3.3624,-3.2835,-3.2281,-3.1882,-3.1169,-3.0686,-3.029,-3.0422,-3.0489,-3.0667,-3.122,-3.1516,-3.1683,-3.2288,-3.2911,-3.3356,-3.3351,-3.3151,-3.2829,-3.284,-3.2835,-3.2641,-3.242,-3.2034,-3.1561,-3.1275,-3.0879,-3.0483,-3.0375,-3.0338,-3.0312,-3.0189,-3.0146,-3.0146,-3.0103,-3.0081,-3.0065,-3.0081,-3.0065,-3.0081,-3.0065,-3.006,-3.0017,-2.9864,-2.9548,-2.9223,-2.8995,-2.8732,-2.8428,-2.8318,-2.7914,-2.7264,-2.676,-2.655,-2.6536,-2.6977,-2.7225,-2.7294,-2.772,-2.8085,-2.8404,-2.856,-2.8769,-2.9051,-2.9175,-2.935,-2.9531,-2.9694,-2.9578,-2.9069,-2.8509,-2.7803,-2.6939,-2.6411,-2.6061,-2.599,-2.5952,-2.5915,-2.5915,-2.5862,-2.5844,-2.5828,-2.5826,-2.5691,-2.5303,-2.4563,-2.3761,-2.2947,-2.2074,-2.1318,-2.0854,-2.0739,-2.0543,-2.0492,-2.0407,-2.0356,-2.0321,-2.0304,-2.0287,-2.0287,-2.0287,-2.0287,-2.0287,-2.0287,-2.0287,-2.0287,-2.0287,-2.0287,-2.0287,-2.0287,-2.0287,-2.0287,-2.0287,-2.0287,-3.394,-3.4028,-3.347,-3.3059,-3.2676,-3.2232,-3.1667,-3.1116,-3.1215,-3.1297,-3.1435,-3.1845,-3.229,-3.2627,-3.3282,-3.3854,-3.4325,-3.4639,-3.4432,-3.3851,-3.3773,-3.3751,-3.3594,-3.3322,-3.2818,-3.2177,-3.2039,-3.1636,-3.0936,-3.086,-3.0702,-3.0471,-3.0359,-3.0316,-3.0333,-3.0316,-3.0316,-3.0316,-3.0316,-3.0316,-3.0316,-3.0316,-3.0312,-3.0253,-3.0108,-2.9979,-2.9853,-2.9538,-2.9266,-2.9082,-2.8959,-2.8685,-2.8231,-2.7861,-2.7633,-2.7704,-2.8009,-2.8299,-2.8346,-2.8714,-2.909,-2.919,-2.9259,-2.9373,-2.9531,-2.956,-2.9665,-2.9842,-2.9935,-2.9848,-2.9559,-2.898,-2.8372,-2.7763,-2.6783,-2.6234,-2.6096,-2.6043,-2.6007,-2.6025,-2.6026,-2.6045,-2.6045,-2.6115,-2.6061,-2.5837,-2.5224,-2.4364,-2.351,-2.2662,-2.1854,-2.1179,-2.0824,-2.0677,-2.0577,-2.0492,-2.039,-2.0356,-2.0354,-2.0304,-2.0287,-2.0287,-2.0287,-2.0287,-2.0287,-2.0287,-2.0287,-2.0287,-2.0287,-2.0287,-2.0287,-2.0287,-2.0287,-2.0287,-2.0287,-3.4399,-3.4447,-3.3926,-3.377,-3.3725,-3.3339,-3.2786,-3.2268,-3.2324,-3.2385,-3.2418,-3.2642,-3.2964,-3.3592,-3.4304,-3.4694,-3.4757,-3.537,-3.562,-3.5436,-3.5341,-3.5171,-3.4979,-3.4363,-3.3723,-3.3067,-3.2857,-3.237,-3.1702,-3.1532,-3.125,-3.0704,-3.0567,-3.0485,-3.0447,-3.0489,-3.0468,-3.0447,-3.0485,-3.0468,-3.0468,-3.0485,-3.0464,-3.0417,-3.0375,-3.0253,-3.0038,-2.9848,-2.9627,-2.9335,-2.919,-2.9129,-2.9136,-2.9243,-2.9123,-2.9,-2.9234,-2.9225,-2.928,-2.9309,-2.9425,-2.9653,-2.9704,-2.9808,-2.993,-2.9951,-2.9995,-3.0124,-3.0167,-3.0236,-3.0157,-2.9655,-2.8986,-2.8321,-2.7031,-2.6268,-2.6185,-2.6185,-2.6168,-2.6187,-2.6241,-2.6312,-2.6294,-2.6398,-2.6345,-2.6157,-2.5606,-2.4838,-2.3962,-2.3141,-2.2149,-2.1567,-2.1148,-2.0826,-2.0744,-2.0594,-2.0509,-2.0492,-2.0424,-2.0356,-2.0304,-2.0304,-2.0287,-2.0287,-2.0287,-2.0287,-2.0287,-2.0287,-2.0287,-2.0287,-2.0287,-2.0287,-2.0287,-2.0287,-2.0287,-3.4739,-3.4913,-3.4888,-3.462,-3.4292,-3.4242,-3.3922,-3.3383,-3.3453,-3.3534,-3.3714,-3.4212,-3.4486,-3.4775,-3.5479,-3.5822,-3.5856,-3.6049,-3.6152,-3.611,-3.6067,-3.5822,-3.5554,-3.5194,-3.4662,-3.4057,-3.374,-3.3301,-3.2546,-3.1994,-3.1565,-3.13,-3.0803,-3.0522,-3.0489,-3.0522,-3.0489,-3.0489,-3.0489,-3.0489,-3.0489,-3.0489,-3.0489,-3.0468,-3.0438,-3.0316,-3.0146,-3.0017,-2.9798,-2.948,-2.9502,-2.9563,-2.9547,-2.9605,-2.9633,-2.9611,-2.9633,-2.9677,-2.9677,-2.9738,-2.9842,-2.9924,-2.9995,-3.0098,-3.0124,-3.0146,-3.0184,-3.0227,-3.029,-3.0375,-3.0302,-2.9782,-2.9095,-2.8357,-2.7181,-2.6318,-2.6285,-2.6185,-2.6221,-2.6276,-2.6311,-2.6348,-2.6434,-2.6485,-2.6468,-2.6382,-2.6077,-2.554,-2.4592,-2.3848,-2.298,-2.2134,-2.1616,-2.1166,-2.0876,-2.0727,-2.0643,-2.0626,-2.0543,-2.0409,-2.0356,-2.0304,-2.0304,-2.0287,-2.0287,-2.0287,-2.0287,-2.0287,-2.0287,-2.0287,-2.0287,-2.0287,-2.0287,-2.0287,-2.0287,-3.5095,-3.5234,-3.5435,-3.5335,-3.5101,-3.5266,-3.5025,-3.4585,-3.4604,-3.4703,-3.4866,-3.5235,-3.5635,-3.5983,-3.64,-3.6591,-3.6591,-3.6591,-3.655,-3.6506,-3.6464,-3.6251,-3.5888,-3.5672,-3.5318,-3.4953,-3.4689,-3.4119,-3.3428,-3.2824,-3.2442,-3.1984,-3.1317,-3.0969,-3.0969,-3.0621,-3.0506,-3.0489,-3.0489,-3.0489,-3.0489,-3.0489,-3.0489,-3.0489,-3.0464,-3.038,-3.029,-3.0146,-2.9989,-2.9858,-2.988,-2.9924,-2.9924,-2.9935,-2.9962,-2.9979,-2.9979,-2.9962,-2.9979,-3.0022,-3.0103,-3.0146,-3.0253,-3.0295,-3.0316,-3.0338,-3.0338,-3.0338,-3.0401,-3.0422,-3.0327,-2.9806,-2.9264,-2.8804,-2.7793,-2.7131,-2.7114,-2.6919,-2.674,-2.6712,-2.6582,-2.6452,-2.6537,-2.6555,-2.6572,-2.652,-2.645,-2.5862,-2.516,-2.4527,-2.3783,-2.2866,-2.2069,-2.1584,-2.1085,-2.0842,-2.0711,-2.0694,-2.0644,-2.0495,-2.0443,-2.0373,-2.0337,-2.0321,-2.0304,-2.0304,-2.0304,-2.0304,-2.0287,-2.0287,-2.0287,-2.0287,-2.0287,-2.0287,-2.0287,-3.5447,-3.5498,-3.5756,-3.5927,-3.6028,-3.6259,-3.599,-3.5647,-3.5737,-3.5834,-3.5891,-3.5917,-3.6357,-3.7029,-3.6935,-3.7027,-3.7009,-3.6989,-3.6948,-3.6869,-3.6768,-3.6564,-3.6301,-3.5997,-3.5771,-3.5593,-3.5521,-3.497,-3.4298,-3.4063,-3.3567,-3.2868,-3.2122,-3.1769,-3.1615,-3.1151,-3.0787,-3.0874,-3.0787,-3.0754,-3.0688,-3.0605,-3.0489,-3.0489,-3.0468,-3.0464,-3.038,-3.0295,-3.021,-3.0231,-3.0227,-3.0205,-3.0227,-3.021,-3.0231,-3.0231,-3.0231,-3.0231,-3.0253,-3.0274,-3.0316,-3.0438,-3.0443,-3.0443,-3.0506,-3.0506,-3.0447,-3.0464,-3.0489,-3.0485,-3.0402,-2.9877,-2.9645,-2.945,-2.892,-2.8694,-2.8514,-2.7987,-2.7528,-2.7514,-2.7073,-2.6774,-2.6724,-2.6708,-2.6657,-2.6606,-2.6555,-2.6234,-2.5646,-2.5077,-2.4263,-2.334,-2.2621,-2.1988,-2.1454,-2.0956,-2.0826,-2.076,-2.0695,-2.0596,-2.0561,-2.0492,-2.0423,-2.0388,-2.039,-2.0373,-2.0356,-2.0339,-2.0321,-2.0304,-2.0304,-2.0304,-2.0287,-2.0287,-2.0287,-3.5822,-3.6036,-3.6131,-3.6276,-3.6419,-3.6561,-3.6603,-3.6646,-3.6685,-3.6749,-3.6917,-3.6955,-3.7063,-3.7239,-3.7239,-3.7239,-3.7239,-3.722,-3.7201,-3.7182,-3.7068,-3.7009,-3.6794,-3.6426,-3.6195,-3.6067,-3.5827,-3.5543,-3.5172,-3.4622,-3.4136,-3.3706,-3.3034,-3.2574,-3.242,-3.2238,-3.2238,-3.2138,-3.1669,-3.1366,-3.1234,-3.082,-3.0555,-3.0506,-3.0443,-3.0464,-3.0464,-3.0401,-3.0396,-3.0417,-3.0396,-3.0396,-3.038,-3.0401,-3.0443,-3.0443,-3.0443,-3.0485,-3.0568,-3.0568,-3.063,-3.0729,-3.0688,-3.0651,-3.0667,-3.0568,-3.051,-3.0489,-3.0489,-3.0489,-3.0456,-3.0357,-3.0212,-3.0129,-3.0128,-3.0089,-2.9972,-2.9024,-2.8436,-2.8313,-2.79,-2.7483,-2.7467,-2.6978,-2.6843,-2.6725,-2.6607,-2.6471,-2.6083,-2.5596,-2.4844,-2.3981,-2.3127,-2.2458,-2.1759,-2.1211,-2.0892,-2.0844,-2.0794,-2.0794,-2.0745,-2.0661,-2.0577,-2.0526,-2.0444,-2.0443,-2.0441,-2.039,-2.0373,-2.0356,-2.0321,-2.0304,-2.0304,-2.0304,-2.0287,-3.6208,-3.6335,-3.644,-3.6568,-3.6748,-3.6809,-3.6965,-3.7124,-3.7164,-3.7241,-3.7353,-3.741,-3.7447,-3.7447,-3.7447,-3.7447,-3.7428,-3.7354,-3.7336,-3.7317,-3.7241,-3.7203,-3.7145,-3.6814,-3.6571,-3.6426,-3.6191,-3.5975,-3.5664,-3.5267,-3.4863,-3.4605,-3.389,-3.3467,-3.3223,-3.3001,-3.2713,-3.2602,-3.2348,-3.2116,-3.2017,-3.1399,-3.077,-3.0555,-3.0464,-3.0485,-3.0468,-3.0526,-3.0564,-3.0605,-3.0643,-3.0605,-3.0564,-3.0568,-3.063,-3.0671,-3.0692,-3.0729,-3.079,-3.0794,-3.0814,-3.0892,-3.0831,-3.081,-3.0773,-3.0712,-3.0651,-3.0593,-3.0572,-3.0572,-3.0489,-3.0489,-3.051,-3.0572,-3.0651,-3.0733,-3.063,-2.9831,-2.9183,-2.9162,-2.8713,-2.8177,-2.779,-2.7418,-2.7012,-2.6877,-2.6708,-2.659,-2.6521,-2.6032,-2.5527,-2.4709,-2.3735,-2.2914,-2.213,-2.15,-2.0957,-2.0909,-2.0925,-2.0974,-2.1006,-2.0876,-2.076,-2.0694,-2.0628,-2.0527,-2.0509,-2.0475,-2.0441,-2.0405,-2.0371,-2.0354,-2.0321,-2.0304,-2.0287,-3.6568,-3.6588,-3.6725,-3.6869,-3.7027,-3.7046,-3.7126,-3.7316,-3.7373,-3.7374,-3.7448,-3.7558,-3.7576,-3.7577,-3.7577,-3.7595,-3.7558,-3.7521,-3.7483,-3.7749,-3.771,-3.7797,-3.7792,-3.7727,-3.7389,-3.6923,-3.6516,-3.6272,-3.6041,-3.5805,-3.5537,-3.5358,-3.4785,-3.4376,-3.4102,-3.3628,-3.3384,-3.3294,-3.3033,-3.2862,-3.2746,-3.2144,-3.1482,-3.1135,-3.1035,-3.1073,-3.1115,-3.1145,-3.1125,-3.1066,-3.1169,-3.1186,-3.1074,-3.0783,-3.0753,-3.0892,-3.0871,-3.0871,-3.0912,-3.0912,-3.0932,-3.0932,-3.0912,-3.0895,-3.0895,-3.0892,-3.0814,-3.0753,-3.0712,-3.0692,-3.0589,-3.0609,-3.063,-3.0692,-3.0733,-3.0834,-3.0838,-3.0446,-3.0159,-3.0027,-2.9561,-2.899,-2.8449,-2.801,-2.7469,-2.7012,-2.6826,-2.6691,-2.6623,-2.6453,-2.5946,-2.5441,-2.4493,-2.3224,-2.2374,-2.1598,-2.1086,-2.1039,-2.1055,-2.1151,-2.123,-2.1199,-2.1071,-2.0876,-2.0777,-2.0727,-2.0661,-2.0627,-2.0577,-2.0474,-2.0405,-2.0371,-2.0321,-2.0304,-2.0287,-3.6851,-3.7011,-3.7011,-3.7126,-3.7239,-3.7239,-3.7297,-3.7373,-3.7393,-3.7466,-3.7558,-3.7594,-3.7595,-3.7595,-3.7595,-3.7595,-3.7613,-3.7665,-3.795,-3.8396,-3.8518,-3.8732,-3.9085,-3.9006,-3.8748,-3.806,-3.7268,-3.6648,-3.6318,-3.6195,-3.5997,-3.5744,-3.5453,-3.5256,-3.5064,-3.4877,-3.4551,-3.4316,-3.3948,-3.3647,-3.3458,-3.2928,-3.2381,-3.2116,-3.2089,-3.2182,-3.2352,-3.244,-3.2572,-3.2675,-3.2718,-3.2744,-3.2463,-3.1599,-3.1109,-3.1012,-3.1049,-3.1069,-3.1009,-3.0975,-3.1052,-3.1092,-3.1052,-3.0995,-3.0975,-3.0952,-3.0912,-3.0892,-3.0871,-3.0851,-3.0851,-3.081,-3.0831,-3.0871,-3.0895,-3.0955,-3.0982,-3.0923,-3.0847,-3.0746,-3.0258,-2.9753,-2.9176,-2.8551,-2.7891,-2.7351,-2.6945,-2.6776,-2.6674,-2.6572,-2.6333,-2.5826,-2.5271,-2.3879,-2.2569,-2.1777,-2.1183,-2.1199,-2.1262,-2.1356,-2.1434,-2.1512,-2.1419,-2.1246,-2.1071,-2.1006,-2.0925,-2.0826,-2.0744,-2.0677,-2.0543,-2.0405,-2.0371,-2.0321,-2.0304,-3.7124,-3.7203,-3.7203,-3.726,-3.7336,-3.7372,-3.7411,-3.7485,-3.7503,-3.754,-3.7577,-3.7595,-3.7595,-3.7595,-3.7595,-3.7595,-3.7684,-3.8094,-3.8433,-3.8826,-3.9181,-3.9502,-3.9948,-3.9888,-3.958,-3.8965,-3.8128,-3.7233,-3.6623,-3.6444,-3.6297,-3.6105,-3.5954,-3.58,-3.5622,-3.5413,-3.5297,-3.5088,-3.4738,-3.4423,-3.431,-3.3624,-3.3183,-3.2818,-3.2796,-3.2851,-3.2895,-3.3064,-3.3108,-3.3172,-3.3198,-3.3296,-3.3132,-3.274,-3.2012,-3.1742,-3.1625,-3.1443,-3.1176,-3.1112,-3.1134,-3.1171,-3.1165,-3.1112,-3.1112,-3.1092,-3.1032,-3.0972,-3.0912,-3.0912,-3.0892,-3.0912,-3.0932,-3.0952,-3.0975,-3.1035,-3.1112,-3.1171,-3.119,-3.119,-3.0852,-3.0362,-2.9871,-2.9178,-2.8399,-2.774,-2.7165,-2.6894,-2.6742,-2.6606,-2.6486,-2.601,-2.5419,-2.424,-2.2993,-2.2231,-2.1569,-2.1519,-2.1434,-2.1526,-2.1602,-2.1664,-2.1694,-2.1617,-2.1464,-2.1294,-2.1151,-2.1038,-2.0957,-2.0844,-2.0712,-2.0577,-2.0457,-2.0371,-2.0354,-3.7334,-3.7353,-3.7353,-3.7391,-3.7448,-3.743,-3.7503,-3.7594,-3.7595,-3.7595,-3.7595,-3.7595,-3.7595,-3.7595,-3.7613,-3.7666,-3.7844,-3.8558,-3.8933,-3.9504,-3.9914,-4.0217,-4.0376,-4.0319,-4.0277,-3.9951,-3.9447,-3.8331,-3.7294,-3.6818,-3.6568,-3.6423,-3.6335,-3.6165,-3.591,-3.5756,-3.5554,-3.5389,-3.5245,-3.5088,-3.4804,-3.4343,-3.3756,-3.3216,-3.3278,-3.3428,-3.3595,-3.38,-3.3893,-3.392,-3.3917,-3.3892,-3.3842,-3.3846,-3.3491,-3.2886,-3.2632,-3.2192,-3.1884,-3.1729,-3.1847,-3.1884,-3.1715,-3.1613,-3.136,-3.134,-3.1134,-3.1072,-3.1012,-3.1009,-3.1009,-3.0972,-3.0992,-3.1032,-3.1052,-3.1092,-3.1151,-3.119,-3.119,-3.119,-3.119,-3.0937,-3.0429,-2.9837,-2.9042,-2.8281,-2.7689,-2.6996,-2.6843,-2.6674,-2.6469,-2.6043,-2.5402,-2.4421,-2.3469,-2.2785,-2.2232,-2.1986,-2.1769,-2.1663,-2.1738,-2.1781,-2.1811,-2.184,-2.1751,-2.1555,-2.1402,-2.123,-2.1135,-2.1023,-2.0893,-2.0712,-2.0526,-2.0423,-2.0371,-3.7448,-3.7558,-3.7576,-3.7576,-3.7558,-3.7558,-3.7594,-3.7595,-3.7595,-3.7595,-3.7595,-3.7595,-3.7595,-3.7595,-3.7595,-3.7987,-3.8504,-3.8861,-3.9539,-4.0414,-4.0842,-4.127,-4.1861,-4.2002,-4.137,-4.092,-4.0648,-3.9673,-3.8415,-3.7543,-3.6981,-3.6818,-3.6661,-3.6447,-3.6233,-3.6041,-3.5822,-3.56,-3.5424,-3.5258,-3.5071,-3.4837,-3.4665,-3.4622,-3.4665,-3.4731,-3.4755,-3.4891,-3.5015,-3.5155,-3.5245,-3.5312,-3.5368,-3.5346,-3.4945,-3.4286,-3.3694,-3.3237,-3.3034,-3.2899,-3.2882,-3.2831,-3.2933,-3.2747,-3.2273,-3.1718,-3.1427,-3.119,-3.1202,-3.1165,-3.1165,-3.1151,-3.1171,-3.1151,-3.1151,-3.1151,-3.119,-3.119,-3.119,-3.119,-3.119,-3.119,-3.0937,-3.0345,-2.9702,-2.8941,-2.818,-2.7486,-2.6945,-2.6775,-2.6589,-2.6214,-2.5787,-2.4886,-2.4226,-2.3489,-2.3031,-2.2653,-2.2253,-2.198,-2.2069,-2.2145,-2.1972,-2.1972,-2.1913,-2.184,-2.1709,-2.1527,-2.1356,-2.1183,-2.1023,-2.0794,-2.0512,-2.0443,-2.0405,-3.754,-3.7595,-3.7595,-3.7595,-3.7595,-3.7595,-3.7595,-3.7595,-3.7595,-3.7595,-3.7595,-3.7595,-3.7595,-3.7631,-3.7595,-3.8041,-3.8754,-3.9254,-4.0003,-4.1074,-4.1538,-4.1948,-4.2183,-4.2308,-4.1999,-4.1729,-4.1245,-4.0744,-3.9611,-3.8587,-3.7796,-3.7562,-3.7096,-3.671,-3.6665,-3.6331,-3.6088,-3.5849,-3.5588,-3.535,-3.5228,-3.5175,-3.5128,-3.5128,-3.5245,-3.5337,-3.5423,-3.552,-3.5554,-3.56,-3.5616,-3.56,-3.56,-3.5566,-3.538,-3.5199,-3.4839,-3.4247,-3.3541,-3.3457,-3.3491,-3.3423,-3.3423,-3.3203,-3.2882,-3.2611,-3.2154,-3.187,-3.1836,-3.1667,-3.1345,-3.119,-3.119,-3.119,-3.119,-3.119,-3.119,-3.119,-3.119,-3.119,-3.119,-3.119,-3.1123,-3.0598,-3.0057,-2.9516,-2.8636,-2.7774,-2.7232,-2.6893,-2.6706,-2.6486,-2.606,-2.552,-2.4973,-2.4379,-2.3951,-2.3506,-2.2891,-2.2666,-2.262,-2.2593,-2.2505,-2.2298,-2.2168,-2.2097,-2.1997,-2.1784,-2.1556,-2.1356,-2.1151,-2.0893,-2.0645,-2.051,-2.0441,-3.7595,-3.7595,-3.7595,-3.7595,-3.7595,-3.7595,-3.7595,-3.7595,-3.7595,-3.7595,-3.7595,-3.7613,-3.7702,-3.788,-3.8023,-3.854,-3.945,-3.9968,-4.0663,-4.1395,-4.193,-4.2236,-4.2308,-4.2308,-4.2308,-4.2308,-4.177,-4.1393,-4.0925,-4.0026,-3.9069,-3.8604,-3.8201,-3.7725,-3.7365,-3.704,-3.6717,-3.6092,-3.5766,-3.5554,-3.5458,-3.5406,-3.536,-3.5383,-3.5452,-3.5537,-3.5514,-3.5571,-3.56,-3.56,-3.5616,-3.5616,-3.5616,-3.56,-3.5583,-3.5481,-3.538,-3.5042,-3.4421,-3.4134,-3.3981,-3.3914,-3.3711,-3.3744,-3.3677,-3.3575,-3.3254,-3.2594,-3.2598,-3.2192,-3.1701,-3.1512,-3.1393,-3.1309,-3.119,-3.119,-3.119,-3.119,-3.119,-3.119,-3.119,-3.119,-3.1038,-3.07,-3.0311,-2.9937,-2.9125,-2.8094,-2.7468,-2.6994,-2.6774,-2.6554,-2.635,-2.5976,-2.5693,-2.5211,-2.4829,-2.4381,-2.3764,-2.3425,-2.3415,-2.3323,-2.3249,-2.2975,-2.2682,-2.2608,-2.2675,-2.2197,-2.1736,-2.151,-2.1278,-2.1022,-2.0794,-2.0627,-2.0475,-3.7595,-3.7595,-3.7595,-3.7595,-3.7595,-3.7595,-3.7595,-3.7595,-3.7595,-3.7595,-3.7595,-3.7684,-3.8076,-3.8522,-3.8808,-3.9468,-4.0842,-4.0985,-4.1413,-4.1895,-4.2269,-4.2308,-4.2308,-4.2308,-4.2308,-4.2308,-4.2055,-4.2073,-4.2002,-4.1212,-4.0386,-3.9757,-3.9323,-3.9287,-3.8875,-3.8146,-3.7342,-3.6688,-3.6216,-3.5939,-3.579,-3.5667,-3.5577,-3.5492,-3.5532,-3.5571,-3.5498,-3.5616,-3.5644,-3.5644,-3.5639,-3.56,-3.5622,-3.56,-3.5616,-3.5616,-3.5616,-3.538,-3.5126,-3.5092,-3.5329,-3.5211,-3.4878,-3.4421,-3.4421,-3.3795,-3.344,-3.3372,-3.3322,-3.2949,-3.2513,-3.2175,-3.1968,-3.1616,-3.1444,-3.1309,-3.1275,-3.119,-3.119,-3.119,-3.119,-3.119,-3.119,-3.0903,-3.0717,-3.0395,-2.9397,-2.8366,-2.7435,-2.691,-2.6741,-2.6572,-2.6537,-2.6385,-2.6317,-2.5949,-2.548,-2.513,-2.466,-2.4406,-2.4299,-2.4143,-2.3834,-2.3816,-2.3577,-2.3444,-2.3211,-2.27,-2.2207,-2.1733,-2.1388,-2.1119,-2.0826,-2.0577,-2.0441,-3.7595,-3.7595,-3.7595,-3.7595,-3.7595,-3.7595,-3.7595,-3.7595,-3.7595,-3.7595,-3.7648,-3.8112,-3.8504,-3.8879,-3.9377,-4.0037,-4.1002,-4.1109,-4.1627,-4.2055,-4.2308,-4.2308,-4.2308,-4.2308,-4.2308,-4.2308,-4.2308,-4.2308,-4.2218,-4.1877,-4.1749,-4.1192,-4.0386,-3.9706,-3.9276,-3.9041,-3.8196,-3.7428,-3.6999,-3.675,-3.6144,-3.6084,-3.598,-3.591,-3.591,-3.5905,-3.5839,-3.5839,-3.58,-3.5734,-3.5728,-3.5689,-3.5644,-3.5622,-3.5622,-3.56,-3.56,-3.5616,-3.5616,-3.5616,-3.5616,-3.5566,-3.5312,-3.5165,-3.5115,-3.4861,-3.4472,-3.4286,-3.4066,-3.3744,-3.3136,-3.2933,-3.273,-3.2158,-3.1819,-3.1667,-3.1444,-3.1376,-3.1207,-3.1224,-3.1207,-3.119,-3.119,-3.1157,-3.1004,-3.0768,-2.9704,-2.8671,-2.779,-2.7012,-2.6894,-2.6724,-2.6673,-2.6589,-2.6504,-2.6302,-2.605,-2.5799,-2.5495,-2.5309,-2.5055,-2.4529,-2.4305,-2.4355,-2.4406,-2.4203,-2.3821,-2.3212,-2.2647,-2.2101,-2.161,-2.1182,-2.0893,-2.056,-2.0424,-3.7631,-3.7631,-3.7613,-3.7595,-3.7595,-3.7595,-3.7595,-3.7595,-3.7595,-3.7773,-3.7988,-3.8576,-3.9129,-3.9521,-4.0003,-4.0717,-4.1341,-4.1556,-4.1823,-4.2109,-4.2308,-4.2308,-4.2308,-4.2308,-4.2308,-4.2308,-4.2308,-4.2308,-4.2308,-4.2308,-4.2162,-4.1803,-4.1227,-4.0659,-4.0318,-3.9775,-3.9147,-3.8405,-3.8098,-3.7707,-3.7016,-3.6849,-3.654,-3.6422,-3.6276,-3.6191,-3.6084,-3.6041,-3.5997,-3.5932,-3.5866,-3.58,-3.5734,-3.5689,-3.5667,-3.5644,-3.5622,-3.56,-3.5616,-3.5616,-3.5616,-3.5583,-3.5583,-3.5549,-3.5616,-3.56,-3.5143,-3.4945,-3.481,-3.4539,-3.3846,-3.3694,-3.3389,-3.2852,-3.2666,-3.2459,-3.1935,-3.1698,-3.1427,-3.1258,-3.1224,-3.119,-3.119,-3.1157,-3.092,-3.0717,-3.0091,-2.9179,-2.8416,-2.774,-2.7249,-2.7063,-2.6843,-2.6742,-2.6623,-2.6472,-2.6354,-2.6337,-2.6101,-2.5999,-2.5711,-2.5203,-2.5083,-2.5388,-2.532,-2.4965,-2.4529,-2.4048,-2.3239,-2.2403,-2.1884,-2.1311,-2.0877,-2.0594,-2.0458,-3.7721,-3.7685,-3.7631,-3.7595,-3.7595,-3.7595,-3.7595,-3.7631,-3.7702,-3.813,-3.8736,-3.8968,-3.97,-4.0646,-4.0931,-4.1466,-4.193,-4.2126,-4.2216,-4.2272,-4.2308,-4.2308,-4.2308,-4.2308,-4.2308,-4.2308,-4.2308,-4.2308,-4.2308,-4.2308,-4.2308,-4.2308,-4.1945,-4.1795,-4.1869,-4.1162,-4.0332,-3.9576,-3.9412,-3.8854,-3.8228,-3.7971,-3.7554,-3.7172,-3.6988,-3.6957,-3.683,-3.6784,-3.6737,-3.665,-3.649,-3.6356,-3.6159,-3.6031,-3.5897,-3.5773,-3.5667,-3.5622,-3.5616,-3.5616,-3.5616,-3.5616,-3.5616,-3.5616,-3.5616,-3.5583,-3.5566,-3.5295,-3.5397,-3.5148,-3.4759,-3.4438,-3.4032,-3.3643,-3.3457,-3.3136,-3.2611,-3.2256,-3.2053,-3.1684,-3.1396,-3.1207,-3.119,-3.1106,-3.0801,-3.0531,-3.0226,-2.9668,-2.9008,-2.84,-2.7841,-2.7401,-2.7164,-2.6894,-2.6776,-2.6725,-2.6657,-2.6691,-2.6623,-2.6438,-2.6404,-2.6167,-2.6184,-2.6387,-2.6099,-2.5642,-2.5288,-2.4936,-2.4007,-2.3071,-2.2052,-2.1423,-2.097,-2.0849,-2.098,-3.781,-3.7685,-3.7667,-3.7667,-3.7595,-3.7595,-3.7613,-3.7702,-3.8165,-3.8826,-3.9557,-4.0057,-4.0503,-4.1127,-4.1645,-4.2019,-4.2236,-4.2308,-4.2308,-4.2308,-4.2308,-4.2308,-4.2308,-4.2308,-4.2308,-4.2308,-4.2308,-4.2308,-4.2308,-4.2308,-4.2308,-4.2308,-4.2287,-4.2207,-4.205,-4.1644,-4.1167,-4.0512,-4.03,-3.9979,-3.9214,-3.905,-3.8848,-3.8427,-3.8368,-3.8213,-3.8014,-3.7916,-3.7849,-3.7737,-3.7611,-3.7364,-3.6984,-3.6766,-3.6433,-3.6043,-3.5785,-3.5689,-3.5644,-3.5616,-3.5616,-3.5616,-3.5616,-3.5616,-3.5616,-3.5616,-3.5616,-3.5616,-3.5616,-3.538,-3.5261,-3.5233,-3.4895,-3.4353,-3.4049,-3.3711,-3.3322,-3.3102,-3.2848,-3.2327,-3.1938,-3.1515,-3.1326,-3.1224,-3.0937,-3.0734,-3.0497,-3.0277,-2.9719,-2.9042,-2.845,-2.7891,-2.7519,-2.7165,-2.6945,-2.6996,-2.6928,-2.6877,-2.6793,-2.664,-2.6657,-2.6725,-2.6691,-2.6572,-2.6454,-2.6285,-2.5948,-2.5494,-2.4695,-2.3769,-2.3062,-2.2438,-2.2106,-2.2074,-2.2185,-3.7948,-3.7827,-3.7739,-3.7667,-3.7685,-3.7898,-3.813,-3.8451,-3.8986,-3.9611,-4.0324,-4.0895,-4.1288,-4.1591,-4.2002,-4.2308,-4.2308,-4.2308,-4.2308,-4.2308,-4.2308,-4.2308,-4.2308,-4.2308,-4.2308,-4.2308,-4.2308,-4.2308,-4.2308,-4.2308,-4.2308,-4.2308,-4.2308,-4.2267,-4.2166,-4.1997,-4.1848,-4.1407,-4.1283,-4.0966,-4.0397,-4.0111,-3.9946,-3.9673,-3.9525,-3.9405,-3.93,-3.9249,-3.9182,-3.9046,-3.879,-3.8503,-3.7969,-3.7629,-3.7307,-3.6859,-3.6349,-3.6248,-3.6101,-3.5667,-3.565,-3.5616,-3.5616,-3.5616,-3.5616,-3.5616,-3.5616,-3.5616,-3.5616,-3.56,-3.5583,-3.5616,-3.538,-3.4844,-3.4726,-3.4404,-3.4015,-3.3795,-3.3508,-3.2987,-3.2344,-3.1904,-3.1427,-3.1292,-3.1106,-3.0954,-3.0801,-3.0598,-3.0395,-2.977,-2.9178,-2.8704,-2.8263,-2.801,-2.7689,-2.7418,-2.7317,-2.7097,-2.6962,-2.6826,-2.6775,-2.6809,-2.6792,-2.6775,-2.669,-2.6589,-2.6505,-2.6084,-2.543,-2.5012,-2.4622,-2.4018,-2.3399,-2.3106,-2.2988,-3.8118,-3.8086,-3.7827,-3.7721,-3.7811,-3.8488,-3.9218,-3.9877,-3.995,-4.0378,-4.1056,-4.1056,-4.1288,-4.1968,-4.2183,-4.2165,-4.2218,-4.2236,-4.2308,-4.2308,-4.2308,-4.2308,-4.2308,-4.2308,-4.2308,-4.2308,-4.2308,-4.2308,-4.2308,-4.2308,-4.2308,-4.2308,-4.2308,-4.2287,-4.2267,-4.2228,-4.2175,-4.2032,-4.1961,-4.166,-4.1234,-4.1127,-4.082,-4.0548,-4.0313,-4.0215,-4.0096,-3.9997,-3.9823,-3.9627,-3.9434,-3.9155,-3.8912,-3.8718,-3.8589,-3.8151,-3.7399,-3.7052,-3.6598,-3.6045,-3.5701,-3.565,-3.5616,-3.5616,-3.5616,-3.5616,-3.5616,-3.5616,-3.5616,-3.5616,-3.5616,-3.5616,-3.5583,-3.5447,-3.5447,-3.5115,-3.4692,-3.4387,-3.41,-3.3558,-3.2852,-3.2276,-3.1681,-3.1427,-3.141,-3.1123,-3.1004,-3.0987,-3.0784,-3.0531,-3.0006,-2.9685,-2.9279,-2.901,-2.8637,-2.8112,-2.7977,-2.7858,-2.7249,-2.7029,-2.6962,-2.6944,-2.6859,-2.6859,-2.6892,-2.6842,-2.6708,-2.6607,-2.637,-2.6012,-2.5518,-2.5022,-2.4231,-2.3549,-2.3288,-3.8401,-3.8239,-3.8001,-3.7827,-3.79,-3.9078,-4.0039,-4.0699,-4.077,-4.0931,-4.1109,-4.1109,-4.0949,-4.0663,-4.1163,-4.1413,-4.168,-4.1966,-4.2236,-4.2308,-4.2308,-4.2308,-4.2308,-4.2308,-4.2308,-4.2308,-4.2308,-4.2308,-4.2308,-4.2308,-4.2308,-4.2308,-4.2308,-4.2308,-4.2308,-4.2308,-4.2308,-4.2308,-4.2308,-4.2149,-4.2009,-4.1882,-4.1629,-4.1504,-4.1455,-4.1377,-4.1314,-4.1291,-4.1227,-4.1197,-4.1061,-4.0762,-4.004,-3.9769,-3.9425,-3.834,-3.7865,-3.7562,-3.692,-3.6569,-3.6231,-3.5785,-3.5633,-3.5616,-3.5616,-3.5616,-3.5616,-3.5616,-3.5616,-3.5616,-3.5616,-3.5616,-3.5616,-3.5616,-3.5616,-3.543,-3.5098,-3.5013,-3.4709,-3.4083,-3.3376,-3.2716,-3.2104,-3.187,-3.1802,-3.141,-3.119,-3.119,-3.1123,-3.0869,-3.0666,-3.0328,-3.0108,-2.9771,-2.9281,-2.8773,-2.8722,-2.857,-2.796,-2.7521,-2.7589,-2.7487,-2.713,-2.6942,-2.6975,-2.6925,-2.6859,-2.6742,-2.6623,-2.6399,-2.5971,-2.5571,-2.5104,-2.4321,-2.3964,-3.8562,-3.8352,-3.8136,-3.8275,-3.8778,-3.9542,-4.034,-4.102,-4.1109,-4.0967,-4.0646,-4.059,-4.036,-4.0162,-4.077,-4.1163,-4.1234,-4.193,-4.2308,-4.2308,-4.2308,-4.2308,-4.2308,-4.2308,-4.2308,-4.2308,-4.2308,-4.2308,-4.2308,-4.2308,-4.2308,-4.2308,-4.2308,-4.2308,-4.2308,-4.2308,-4.2308,-4.2308,-4.2308,-4.2328,-4.2328,-4.2366,-4.2366,-4.2387,-4.2486,-4.2447,-4.2387,-4.2369,-4.2331,-4.2228,-4.204,-4.1711,-4.1024,-4.0665,-4.0274,-3.9328,-3.8805,-3.8425,-3.7858,-3.7083,-3.6603,-3.6146,-3.5769,-3.5616,-3.5616,-3.5616,-3.5616,-3.5616,-3.5616,-3.5616,-3.5616,-3.5616,-3.5616,-3.5616,-3.5616,-3.5616,-3.5583,-3.5583,-3.5148,-3.4573,-3.3914,-3.3254,-3.278,-3.253,-3.2073,-3.1478,-3.119,-3.119,-3.119,-3.1106,-3.0954,-3.0768,-3.0632,-3.0429,-2.9958,-2.9551,-2.9467,-2.9281,-2.8721,-2.8385,-2.832,-2.7964,-2.7537,-2.7229,-2.7022,-2.6974,-2.6926,-2.6842,-2.6708,-2.6503,-2.6329,-2.6035,-2.554,-2.4883,-2.4754,-3.8624,-3.8478,-3.8219,-3.8743,-3.9869,-3.9791,-4.0182,-4.086,-4.0788,-4.0503,-3.9895,-3.9805,-3.9718,-3.9593,-4.0342,-4.0824,-4.1145,-4.177,-4.2308,-4.2308,-4.2308,-4.2308,-4.2308,-4.2308,-4.2308,-4.2308,-4.2308,-4.2308,-4.2308,-4.2308,-4.2308,-4.2308,-4.2308,-4.2308,-4.2308,-4.2308,-4.2308,-4.2308,-4.2308,-4.2346,-4.2425,-4.2483,-4.2483,-4.2465,-4.2526,-4.2548,-4.2526,-4.2528,-4.2552,-4.2452,-4.231,-4.2124,-4.1687,-4.1298,-4.0897,-4.0453,-3.9747,-3.9197,-3.8611,-3.7845,-3.7151,-3.662,-3.6146,-3.5825,-3.5701,-3.5633,-3.5616,-3.5616,-3.5616,-3.5616,-3.5616,-3.5616,-3.5616,-3.5616,-3.5616,-3.5616,-3.5616,-3.5583,-3.5346,-3.4928,-3.4709,-3.4032,-3.3326,-3.3004,-3.2462,-3.1681,-3.119,-3.119,-3.1207,-3.1207,-3.114,-3.1055,-3.0954,-3.0852,-3.0751,-3.0395,-3.0243,-2.9939,-2.9431,-2.9234,-2.9154,-2.8595,-2.7895,-2.7653,-2.7393,-2.7107,-2.6975,-2.6909,-2.6809,-2.6606,-2.6468,-2.6398,-2.5956,-2.5331,-2.5234,-3.8743,-3.8538,-3.8121,-3.8438,-3.9136,-3.9095,-3.9163,-3.9361,-3.9361,-3.9289,-3.9074,-3.904,-3.879,-3.8629,-3.9771,-4.0324,-4.061,-4.1698,-4.22,-4.2308,-4.2308,-4.2308,-4.2308,-4.2308,-4.2308,-4.2308,-4.2308,-4.2308,-4.2308,-4.2308,-4.2308,-4.2308,-4.2308,-4.2308,-4.2308,-4.2308,-4.2308,-4.2308,-4.2308,-4.2308,-4.2366,-4.2366,-4.2346,-4.2387,-4.2447,-4.2548,-4.2548,-4.2589,-4.2649,-4.2667,-4.2526,-4.2222,-4.1823,-4.1493,-4.1146,-4.0741,-4.036,-3.9849,-3.9212,-3.8556,-3.7946,-3.7151,-3.6586,-3.6146,-3.5859,-3.5684,-3.5616,-3.5633,-3.5616,-3.5616,-3.5616,-3.5616,-3.5616,-3.5616,-3.5616,-3.5616,-3.5616,-3.5549,-3.5464,-3.5397,-3.5318,-3.4742,-3.4003,-3.3393,-3.2797,-3.2154,-3.1478,-3.1207,-3.1241,-3.1258,-3.119,-3.114,-3.1157,-3.1089,-3.1106,-3.1038,-3.0768,-3.0581,-3.0192,-3.0031,-2.9937,-2.9244,-2.8511,-2.8097,-2.7768,-2.7397,-2.7093,-2.6992,-2.6876,-2.6674,-2.6572,-2.6502,-2.63,-2.576,-2.5701,-3.8788,-3.8538,-3.8087,-3.8313,-3.8905,-3.8846,-3.8789,-3.8789,-3.8789,-3.8789,-3.87,-3.8451,-3.8183,-3.8183,-3.9377,-4.0199,-4.0556,-4.1698,-4.2183,-4.2308,-4.2308,-4.2308,-4.2308,-4.2308,-4.2308,-4.2308,-4.2308,-4.2308,-4.2308,-4.2308,-4.2308,-4.2308,-4.2308,-4.2308,-4.2308,-4.2308,-4.2308,-4.2308,-4.2308,-4.2308,-4.2308,-4.2308,-4.2308,-4.2346,-4.2407,-4.2508,-4.2589,-4.2649,-4.2746,-4.2727,-4.257,-4.2302,-4.1927,-4.1644,-4.129,-4.0982,-4.0659,-4.0363,-3.9751,-3.9205,-3.8722,-3.7953,-3.733,-3.7009,-3.64,-3.6231,-3.5926,-3.5893,-3.565,-3.5616,-3.5616,-3.5616,-3.5616,-3.5616,-3.5616,-3.5616,-3.5616,-3.5583,-3.5549,-3.5532,-3.5402,-3.5081,-3.4438,-3.4104,-3.3508,-3.2882,-3.2171,-3.1752,-3.1647,-3.1529,-3.141,-3.1275,-3.1326,-3.1241,-3.1157,-3.1157,-3.1089,-3.0937,-3.0784,-3.0523,-3.019,-2.9687,-2.9144,-2.8613,-2.8047,-2.7552,-2.7281,-2.7162,-2.6926,-2.6708,-2.6623,-2.6572,-2.6353,-2.6202,-2.6147,-3.8755,-3.8523,-3.807,-3.8294,-3.8852,-3.874,-3.8611,-3.8647,-3.8735,-3.8789,-3.8771,-3.8255,-3.838,-3.8986,-3.9716,-4.0431,-4.1145,-4.1877,-4.2236,-4.2308,-4.2308,-4.2308,-4.2308,-4.2308,-4.2308,-4.2308,-4.2308,-4.2308,-4.2308,-4.2308,-4.2308,-4.2308,-4.2308,-4.2308,-4.2308,-4.2308,-4.2308,-4.2308,-4.2308,-4.2308,-4.2308,-4.2308,-4.2308,-4.2328,-4.2407,-4.2526,-4.2607,-4.2688,-4.2804,-4.2747,-4.2611,-4.2348,-4.2055,-4.1797,-4.1488,-4.1175,-4.0935,-4.0645,-4.0273,-3.9776,-3.9346,-3.8841,-3.8335,-3.7794,-3.7185,-3.6812,-3.6485,-3.6231,-3.5988,-3.565,-3.565,-3.5616,-3.5616,-3.5616,-3.5616,-3.5616,-3.5616,-3.5616,-3.5616,-3.5616,-3.543,-3.5233,-3.4996,-3.4658,-3.415,-3.3541,-3.3068,-3.2696,-3.2395,-3.2188,-3.2036,-3.1782,-3.165,-3.1512,-3.1275,-3.119,-3.119,-3.114,-3.0973,-3.0741,-3.0459,-3.0042,-2.9552,-2.8972,-2.8408,-2.8015,-2.7572,-2.7351,-2.7063,-2.6793,-2.6674,-2.6623,-2.659,-2.6471,-2.6471,-3.8728,-3.8417,-3.8054,-3.8025,-3.8133,-3.7953,-3.7827,-3.7933,-3.8594,-3.8789,-3.9004,-3.9397,-3.9591,-3.9734,-4.0521,-4.1092,-4.1324,-4.1984,-4.2236,-4.2308,-4.2308,-4.2308,-4.2308,-4.2308,-4.2308,-4.2308,-4.2308,-4.2308,-4.2308,-4.2308,-4.2308,-4.2308,-4.2308,-4.2308,-4.2308,-4.2308,-4.2308,-4.2308,-4.2308,-4.2308,-4.2308,-4.2308,-4.2308,-4.2308,-4.2308,-4.245,-4.255,-4.2627,-4.2765,-4.2767,-4.2671,-4.247,-4.2205,-4.1931,-4.167,-4.1403,-4.1152,-4.0912,-4.0566,-4.0319,-3.9924,-3.9387,-3.8921,-3.8577,-3.8085,-3.7709,-3.7422,-3.7161,-3.6732,-3.5977,-3.5808,-3.565,-3.5616,-3.5616,-3.5616,-3.5616,-3.5616,-3.5616,-3.5616,-3.5616,-3.5549,-3.5447,-3.5419,-3.5047,-3.4624,-3.4066,-3.3643,-3.3305,-3.3169,-3.2933,-3.2662,-3.2374,-3.2107,-3.165,-3.1326,-3.1207,-3.119,-3.119,-3.1157,-3.0992,-3.0779,-3.0461,-2.9972,-2.9446,-2.9072,-2.8714,-2.8271,-2.7674,-2.7318,-2.7063,-2.6793,-2.6691,-2.6674,-2.6674,-2.6623]},{"header":{"parameterUnit":"m.s-1","parameterCategory":1,"la1":31.0,"la2":29.5877,"lo1":-88.7671,"lo2":-86.6584,"dy":0.0162,"dx":0.0185,"nx":115,"ny":88,"refTime":"2023-04-05T18:00:00:Z","depth":0,"parameterNumber":3,"parameterNumberName":"V-component_of_WINDS"},"data":[0.0,0.0,0.0,0.0,0.0,0.0,0.0,0.0,0.0,0.0,0.0,0.0,0.0,0.0,0.0,0.0,0.0,0.0,0.0,0.0,0.0,0.0,0.0,0.0,0.0,0.0,0.0,0.0,0.0,0.0,0.0,0.0,0.0,0.0,0.0,0.0,0.0,0.0,0.0,0.0,0.0,0.0,0.0,0.0,0.0,0.0,0.0,0.0,0.0,0.0,0.0,0.0,0.0,0.0,0.0,0.0,0.0,0.0,0.0,0.0,0.0,0.0,0.0,0.0,0.0,0.0,0.0,0.0,0.0,0.0,0.0,0.0,0.0,0.0,0.0,0.0,0.0,0.0,0.0,0.0,0.0,0.0,0.0,0.0,0.0,0.0,0.0,0.0,0.0,0.0,0.0,0.0,0.0,0.0,0.0,0.0,0.0,0.0,0.0,0.0,0.0,0.0,0.0,0.0,0.0,0.0,0.0,0.0,0.0,0.0,0.0,0.0,0.0,0.0,0.0,0.0,0.0,0.0,0.0,0.0,0.0,0.0,0.0,0.0,0.0,0.0,0.0,0.0,0.0,0.0,0.0,0.0,0.0,0.0,0.0,0.0,0.0,0.0,0.0,0.0,0.0,0.0,0.0,0.0,0.0,0.0,0.0,0.0,0.0,0.0,0.0,0.0,0.0,0.0,0.0,0.0,0.0,0.0,0.0,0.0,0.0,0.0,0.0,0.0,0.0,0.0,0.0,0.0,0.0,0.0,0.0,0.0,0.0,0.0,0.0,0.0,0.0,0.0,0.0,0.0,0.0,0.0,0.0,0.0,0.0,0.0,0.0,0.0,0.0,0.0,0.0,0.0,0.0,0.0,0.0,0.0,0.0,0.0,0.0,0.0,0.0,0.0,0.0,0.0,0.0,0.0,0.0,0.0,0.0,0.0,0.0,0.0,0.0,0.0,0.0,0.0,0.0,0.0,0.0,0.0,0.0,0.0,0.0,0.0,0.0,0.0,0.0,0.0,0.0,0.0,0.0,0.0,0.0,0.0,0.0,0.0,0.0,0.0,0.0,0.0,0.0,0.0,0.0,0.0,0.0,0.0,0.0,0.0,0.0,0.0,0.0,0.0,0.0,0.0,0.0,0.0,0.0,0.0,0.0,0.0,0.0,0.0,0.0,0.0,0.0,0.0,0.0,0.0,0.0,0.0,0.0,0.0,0.0,0.0,0.0,0.0,0.0,0.0,0.0,0.0,0.0,0.0,0.0,0.0,0.0,0.0,0.0,0.0,0.0,0.0,0.0,0.0,0.0,0.0,0.0,0.0,0.0,0.0,0.0,0.0,0.0,0.0,0.0,0.0,0.0,0.0,0.0,0.0,0.0,0.0,0.0,0.0,0.0,0.0,0.0,0.0,0.0,0.0,0.0,0.0,0.0,0.0,0.0,0.0,0.0,0.0,0.0,0.0,0.0,0.0,0.0,0.0,0.0,0.0,0.0,0.0,0.0,0.0,0.0,0.0,0.0,0.0,0.0,0.0,0.0,0.0,0.0,0.0,0.0,0.0,0.0,0.0,0.0,0.0,0.0,0.0,0.0,0.0,0.0,0.0,0.0,0.0,0.0,0.0,0.0,0.0,0.0,0.0,0.0,0.0,0.0,0.0,0.0,0.0,0.0,0.0,0.0,0.0,0.0,0.0,0.0,0.0,0.0,0.0,0.0,0.0,0.0,0.0,0.0,0.0,0.0,0.0,0.0,0.0,0.0,0.0,0.0,0.0,0.0,0.0,0.0,0.0,0.0,0.0,0.0,0.0,0.0,0.0,0.0,0.0,0.0,0.0,0.0,0.0,0.0,0.0,0.0,0.0,0.0,0.0,0.0,0.0,0.0,0.0,0.0,0.0,0.0,0.0,0.0,0.0,0.0,0.0,0.0,0.0,0.0,0.0,0.0,0.0,0.0,0.0,0.0,0.0,0.0,0.0,0.0,0.0,0.0,0.0,0.0,0.0,0.0,0.0,0.0,0.0,0.0,0.0,0.0,0.0,0.0,0.0,0.0,0.0,0.0,0.0,0.0,0.0,0.0,0.0,0.0,0.0,0.0,0.0,0.0,0.0,0.0,0.0,0.0,0.0,0.0,0.0,0.0,0.0,0.0,0.0,0.0,0.0,0.0,0.0,0.0,0.0,0.0,0.0,0.0,0.0,0.0,0.0,0.0,0.0,0.0,0.0,0.0,0.0,0.0,0.0,0.0,0.0,0.0,0.0,0.0,0.0,0.0,0.0,0.0,0.0,0.0,0.0,0.0,0.0,0.0,0.0,0.0,0.0,0.0,0.0,0.0,0.0,0.0,0.0,0.0,0.0,0.0,0.0,0.0,0.0,0.0,0.0,0.0,0.0,0.0,0.0,0.0,0.0,0.0,0.0,0.0,0.0,0.0,0.0,0.0,0.0,0.0,0.0,0.0,0.0,0.0,0.0,0.0,0.0,0.0,0.0,0.0,0.0,0.0,0.0,0.0,0.0,0.0,0.0,0.0,0.0,0.0,0.0,0.0,0.0,0.0,0.0,0.0,0.0,0.0,0.0,0.0,0.0,0.0,0.0,0.0,0.0,0.0,0.0,0.0,0.0,0.0,0.0,0.0,0.0,0.0,0.0,0.0,0.0,0.0,0.0,0.0,0.0,0.0,0.0,0.0,0.0,0.0,0.0,0.0,0.0,0.0,0.0,0.0,0.0,0.0,0.0,0.0,0.0,0.0,0.0,0.0,0.0,0.0,0.0,0.0,0.0,0.0,0.0,0.0,0.0,0.0,0.0,0.0,0.0,0.0,0.0,0.0,0.0,0.0,0.0,0.0,0.0,0.0,0.0,0.0,0.0,0.0,0.0,0.0,0.0,0.0,0.0,0.0,0.0,0.0,0.0,0.0,0.0,0.0,0.0,0.0,0.0,0.0,0.0,0.0,0.0,0.0,0.0,0.0,0.0,0.0,0.0,0.0,0.0,0.0,0.0,0.0,0.0,0.0,0.0,0.0,0.0,0.0,0.0,0.0,0.0,0.0,0.0,0.0,0.0,0.0,0.0,0.0,0.0,0.0,0.0,0.0,0.0,0.0,0.0,0.0,0.0,0.0,0.0,0.0,0.0,0.0,0.0,0.0,0.0,0.0,0.0,0.0,0.0,0.0,0.0,0.0,0.0,0.0,0.0,0.0,0.0,0.0,0.0,0.0,0.0,0.0,0.0,0.0,0.0,0.0,0.0,0.0,0.0,0.0,0.0,0.0,0.0,0.0,0.0,0.0,0.0,0.0,0.0,0.0,0.0,0.0,0.0,0.0,0.0,0.0,0.0,0.0,0.0,0.0,0.0,0.0,0.0,0.0,0.0,0.0,0.0,0.0,0.0,0.0,0.0,0.0,0.0,0.0,0.0,0.0,0.0,0.0,0.0,0.0,0.0,0.0,0.0,0.0,0.0,0.0,0.0,0.0,0.0,0.0,0.0,0.0,0.0,0.0,0.0,0.0,0.0,0.0,0.0,0.0,0.0,0.0,0.0,0.0,0.0,0.0,0.0,0.0,0.0,0.0,0.0,0.0,0.0,0.0,0.0,0.0,0.0,0.0,0.0,0.0,0.0,0.0,0.0,0.0,0.0,0.0,0.0,0.0,0.0,0.0,0.0,0.0,0.0,0.0,0.0,0.0,0.0,0.0,0.0,0.0,0.0,0.0,0.0,0.0,0.0,0.0,0.0,0.0,0.0,0.0,0.0,0.0,0.0,0.0,0.0,0.0,0.0,0.0,0.0,0.0,0.0,0.0,0.0,0.0,0.0,0.0,0.0,0.0,0.0,0.0,0.0,0.0,0.0,0.0,0.0,0.0,0.0,0.0,0.0,0.0,0.0,0.0,0.0,0.0,0.0,0.0,0.0,0.0,0.0,0.0,0.0,0.0,0.0,0.0,0.0,0.0,0.0,0.0,0.0,0.0,0.0,0.0,0.0,0.0,0.0,0.0,0.0,0.0,0.0,0.0,0.0,0.0,0.0,0.0,0.0,0.0,0.0,0.0,0.0,0.0,0.0,0.0,0.0,0.0,0.0,0.0,0.0,0.0,0.0,0.0,0.0,0.0,0.0,0.0,0.0,0.0,0.0,0.0,0.0,0.0,0.0,0.0,0.0,0.0,0.0,0.0,0.0,0.0,0.0,0.0,0.0,0.0,0.0,0.0,0.0,0.0,0.0,0.0,0.0,0.0,0.0,0.0,0.0,0.0,0.0,0.0,0.0,0.0,0.0,0.0,0.0,2.5031,0.0,0.0,0.0,0.0,0.0,0.0,0.0,0.0,0.0,0.0,0.0,0.0,0.0,0.0,0.0,0.0,0.0,0.0,0.0,0.0,0.0,0.0,0.0,0.0,0.0,0.0,0.0,0.0,0.0,0.0,0.0,0.0,0.0,0.0,0.0,0.0,0.0,0.0,0.0,0.0,0.0,0.0,0.0,0.0,0.0,0.0,0.0,0.0,0.0,0.0,0.0,0.0,0.0,0.0,0.0,0.0,0.0,0.0,0.0,0.0,0.0,0.0,0.0,0.0,0.0,0.0,0.0,0.0,0.0,0.0,0.0,0.0,0.0,0.0,0.0,0.0,0.0,0.0,0.0,0.0,0.0,0.0,0.0,0.0,0.0,0.0,0.0,0.0,0.0,0.0,0.0,0.0,0.0,0.0,0.0,0.0,0.0,0.0,0.0,0.0,0.0,0.0,0.0,0.0,0.0,0.0,0.0,0.0,0.0,0.0,2.5214,2.5156,2.5107,2.5038,2.4941,0.0,0.0,0.0,0.0,0.0,0.0,0.0,0.0,0.0,0.0,0.0,0.0,0.0,0.0,0.0,0.0,0.0,0.0,0.0,0.0,0.0,0.0,0.0,0.0,0.0,0.0,0.0,0.0,0.0,0.0,0.0,0.0,0.0,0.0,0.0,0.0,0.0,0.0,0.0,0.0,0.0,0.0,0.0,0.0,0.0,0.0,0.0,0.0,0.0,0.0,0.0,0.0,0.0,0.0,0.0,0.0,0.0,0.0,0.0,0.0,0.0,0.0,0.0,0.0,0.0,0.0,0.0,0.0,0.0,0.0,0.0,0.0,0.0,0.0,0.0,0.0,0.0,0.0,0.0,0.0,0.0,0.0,0.0,0.0,0.0,0.0,0.0,0.0,0.0,0.0,0.0,0.0,0.0,0.0,0.0,0.0,0.0,0.0,0.0,0.0,0.0,0.0,0.0,0.0,0.0,0.0,0.0,0.0,0.0,0.0,0.0,0.0,2.4991,2.4903,2.4813,0.0,0.0,0.0,0.0,0.0,0.0,0.0,0.0,0.0,0.0,0.0,0.0,0.0,0.0,0.0,0.0,0.0,0.0,0.0,0.0,0.0,0.0,0.0,0.0,0.0,0.0,0.0,0.0,0.0,0.0,0.0,0.0,0.0,0.0,0.0,0.0,0.0,0.0,0.0,0.0,0.0,0.0,0.0,0.0,0.0,0.0,0.0,0.0,0.0,0.0,0.0,0.0,0.0,0.0,0.0,0.0,0.0,0.0,0.0,0.0,0.0,0.0,0.0,0.0,0.0,0.0,0.0,0.0,0.0,0.0,0.0,0.0,0.0,0.0,0.0,0.0,0.0,0.0,0.0,0.0,0.0,0.0,0.0,0.0,0.0,0.0,0.0,0.0,0.0,0.0,0.0,0.0,0.0,0.0,0.0,0.0,0.0,0.0,0.0,0.0,0.0,0.0,0.0,0.0,0.0,0.0,0.0,0.0,0.0,0.0,2.4973,2.4912,2.4856,0.0,2.4545,0.0,0.0,0.0,0.0,0.0,0.0,0.0,0.0,0.0,0.0,0.0,0.0,0.0,0.0,0.0,0.0,0.0,0.0,0.0,0.0,0.0,0.0,0.0,0.0,0.0,0.0,0.0,0.0,0.0,0.0,0.0,0.0,0.0,0.0,0.0,0.0,0.0,0.0,0.0,0.0,0.0,0.0,0.0,0.0,0.0,0.0,0.0,0.0,0.0,0.0,0.0,0.0,0.0,0.0,0.0,0.0,0.0,0.0,0.0,0.0,0.0,0.0,0.0,0.0,0.0,0.0,0.0,0.0,0.0,0.0,0.0,0.0,0.0,0.0,0.0,0.0,0.0,0.0,0.0,0.0,0.0,0.0,0.0,0.0,0.0,0.0,0.0,0.0,0.0,0.0,0.0,0.0,0.0,0.0,0.0,0.0,0.0,0.0,0.0,0.0,0.0,0.0,0.0,0.0,0.0,0.0,0.0,0.0,0.0,0.0,2.3656,2.4054,2.4467,2.4639,0.0,0.0,0.0,0.0,0.0,0.0,0.0,0.0,0.0,0.0,0.0,0.0,0.0,0.0,0.0,0.0,0.0,0.0,0.0,0.0,0.0,0.0,0.0,0.0,0.0,0.0,0.0,0.0,0.0,0.0,0.0,0.0,0.0,0.0,0.0,0.0,0.0,0.0,0.0,0.0,0.0,0.0,0.0,0.0,0.0,0.0,0.0,0.0,0.0,0.0,0.0,0.0,0.0,0.0,0.0,0.0,0.0,0.0,0.0,0.0,0.0,0.0,0.0,0.0,0.0,0.0,0.0,0.0,0.0,0.0,0.0,0.0,0.0,0.0,0.0,0.0,0.0,0.0,0.0,0.0,0.0,0.0,0.0,0.0,0.0,0.0,0.0,0.0,0.0,0.0,0.0,0.0,0.0,0.0,0.0,0.0,0.0,0.0,0.0,0.0,0.0,0.0,0.0,0.0,0.0,0.0,0.0,0.0,0.0,0.0,2.2325,2.2681,2.3431,2.3966,2.4298,2.4437,0.0,0.0,0.0,0.0,0.0,0.0,0.0,0.0,0.0,0.0,0.0,0.0,0.0,0.0,0.0,0.0,0.0,0.0,0.0,0.0,0.0,0.0,0.0,0.0,0.0,0.0,0.0,0.0,0.0,0.0,0.0,0.0,0.0,0.0,0.0,0.0,0.0,0.0,0.0,0.0,0.0,0.0,0.0,0.0,0.0,0.0,0.0,0.0,0.0,0.0,0.0,0.0,0.0,0.0,0.0,0.0,0.0,0.0,0.0,0.0,0.0,0.0,0.0,0.0,0.0,0.0,0.0,0.0,0.0,0.0,0.0,0.0,0.0,0.0,0.0,0.0,0.0,0.0,0.0,0.0,0.0,0.0,0.0,0.0,0.0,0.0,0.0,0.0,0.0,0.0,0.0,0.0,0.0,0.0,0.0,0.0,0.0,0.0,0.0,0.0,0.0,0.0,0.0,0.0,0.0,0.0,0.0,0.0,2.2164,2.2128,2.2496,2.3241,2.3337,2.3663,0.0,0.0,0.0,0.0,0.0,0.0,0.0,0.0,0.0,0.0,0.0,0.0,0.0,0.0,0.0,0.0,0.0,0.0,0.0,0.0,0.0,0.0,0.0,0.0,0.0,0.0,0.0,0.0,0.0,0.0,0.0,0.0,0.0,0.0,0.0,0.0,0.0,0.0,0.0,0.0,0.0,0.0,0.0,0.0,0.0,0.0,0.0,0.0,0.0,0.0,0.0,0.0,0.0,0.0,0.0,0.0,0.0,0.0,0.0,0.0,0.0,0.0,0.0,0.0,0.0,0.0,0.0,0.0,0.0,0.0,0.0,0.0,0.0,0.0,0.0,0.0,0.0,0.0,0.0,0.0,0.0,0.0,0.0,0.0,0.0,0.0,0.0,0.0,0.0,0.0,0.0,0.0,0.0,0.0,0.0,0.0,0.0,0.0,0.0,0.0,0.0,0.0,0.0,0.0,0.0,0.0,0.0,0.0,0.0,2.0579,2.0971,2.1339,2.1651,2.2629,2.3265,0.0,0.0,0.0,0.0,0.0,0.0,0.0,0.0,0.0,0.0,0.0,0.0,0.0,0.0,0.0,0.0,0.0,0.0,0.0,0.0,0.0,0.0,0.0,0.0,0.0,0.0,0.0,0.0,0.0,0.0,0.0,0.0,0.0,0.0,0.0,0.0,0.0,0.0,0.0,0.0,0.0,0.0,0.0,0.0,0.0,0.0,0.0,0.0,0.0,0.0,0.0,0.0,0.0,0.0,0.0,0.0,0.0,0.0,0.0,0.0,0.0,0.0,0.0,0.0,0.0,0.0,0.0,0.0,0.0,0.0,0.0,0.0,0.0,0.0,0.0,0.0,0.0,0.0,0.0,0.0,0.0,0.0,0.0,0.0,0.0,0.0,0.0,0.0,0.0,0.0,0.0,0.0,0.0,0.0,0.0,0.0,0.0,0.0,0.0,0.0,0.0,0.0,0.0,0.0,0.0,0.0,0.0,0.0,0.0,1.961,0.0,2.0441,2.0737,2.2009,2.2798,0.0,0.0,0.0,0.0,0.0,0.0,0.0,0.0,0.0,0.0,0.0,0.0,0.0,0.0,0.0,0.0,0.0,0.0,0.0,0.0,0.0,0.0,0.0,0.0,0.0,0.0,0.0,0.0,0.0,0.0,0.0,0.0,0.0,0.0,0.0,0.0,0.0,0.0,0.0,0.0,0.0,0.0,0.0,0.0,0.0,0.0,0.0,0.0,0.0,0.0,0.0,0.0,0.0,0.0,0.0,0.0,0.0,0.0,0.0,0.0,0.0,0.0,0.0,0.0,0.0,0.0,0.0,0.0,0.0,0.0,0.0,0.0,0.0,0.0,0.0,0.0,0.0,0.0,0.0,0.0,0.0,0.0,0.0,0.0,0.0,0.0,0.0,0.0,0.0,0.0,0.0,0.0,0.0,0.0,0.0,0.0,0.0,0.0,0.0,0.0,0.0,0.0,0.0,0.0,0.0,0.0,0.0,0.0,1.9501,1.9501,1.952,1.9908,2.0665,2.1496,2.2255,0.0,0.0,0.0,0.0,0.0,0.0,0.0,0.0,0.0,0.0,0.0,0.0,0.0,0.0,0.0,0.0,0.0,0.0,0.0,0.0,0.0,0.0,0.0,0.0,0.0,0.0,0.0,0.0,0.0,0.0,0.0,0.0,0.0,0.0,0.0,0.0,0.0,0.0,0.0,0.0,0.0,0.0,0.0,0.0,0.0,0.0,0.0,0.0,0.0,0.0,0.0,0.0,0.0,0.0,0.0,0.0,0.0,0.0,0.0,0.0,0.0,0.0,0.0,0.0,0.0,0.0,0.0,0.0,0.0,0.0,0.0,0.0,0.0,0.0,0.0,0.0,0.0,0.0,0.0,0.0,0.0,0.0,0.0,0.0,0.0,0.0,0.0,0.0,0.0,0.0,0.0,0.0,0.0,0.0,0.0,0.0,0.0,0.0,0.0,0.0,0.0,0.0,0.0,0.0,0.0,0.0,0.0,0.0,0.0,1.929,1.929,1.9674,2.048,2.1275,2.2054,0.0,0.0,0.0,0.0,0.0,0.0,0.0,0.0,0.0,0.0,0.0,0.0,0.0,0.0,0.0,0.0,0.0,0.0,0.0,0.0,0.0,0.0,0.0,0.0,0.0,0.0,0.0,0.0,0.0,0.0,0.0,0.0,0.0,0.0,0.0,0.0,0.0,0.0,0.0,0.0,0.0,0.0,0.0,0.0,0.0,0.0,0.0,0.0,0.0,0.0,0.0,0.0,0.0,0.0,0.0,0.0,0.0,0.0,0.0,0.0,0.0,0.0,0.0,0.0,0.0,0.0,0.0,0.0,0.0,0.0,0.0,0.0,0.0,0.0,0.0,0.0,0.0,0.0,0.0,0.0,0.0,0.0,0.0,0.0,0.0,0.0,0.0,0.0,0.0,0.0,0.0,0.0,0.0,0.0,0.0,0.0,0.0,0.0,0.0,0.0,0.0,0.0,0.0,0.0,0.0,0.0,0.0,0.0,0.0,1.9062,1.9392,1.9808,2.0308,2.1389,2.2216,2.2725,0.0,0.0,0.0,0.0,0.0,0.0,0.0,0.0,0.0,0.0,0.0,0.0,0.0,0.0,0.0,0.0,0.0,0.0,0.0,0.0,0.0,0.0,0.0,0.0,0.0,0.0,0.0,0.0,0.0,0.0,0.0,0.0,0.0,0.0,0.0,0.0,0.0,0.0,0.0,0.0,0.0,0.0,0.0,0.0,0.0,0.0,0.0,0.0,0.0,0.0,0.0,0.0,0.0,0.0,0.0,0.0,0.0,0.0,0.0,0.0,0.0,0.0,0.0,0.0,0.0,0.0,0.0,0.0,0.0,0.0,0.0,0.0,0.0,0.0,0.0,0.0,0.0,0.0,0.0,0.0,0.0,0.0,0.0,0.0,0.0,0.0,0.0,0.0,0.0,0.0,0.0,0.0,0.0,0.0,0.0,0.0,0.0,0.0,0.0,0.0,0.0,0.0,0.0,0.0,0.0,0.0,0.0,0.0,1.8921,1.984,2.0291,2.0291,2.1765,2.2614,0.0,0.0,0.0,0.0,0.0,0.0,0.0,0.0,0.0,0.0,0.0,0.0,0.0,0.0,0.0,0.0,0.0,0.0,0.0,0.0,0.0,0.0,0.0,0.0,0.0,0.0,0.0,0.0,0.0,0.0,0.0,0.0,0.0,0.0,0.0,0.0,0.0,0.0,0.0,0.0,0.0,0.0,0.0,0.0,0.0,0.0,0.0,0.0,0.0,0.0,0.0,0.0,0.0,0.0,0.0,0.0,0.0,0.0,0.0,0.0,0.0,0.0,0.0,0.0,0.0,0.0,0.0,0.0,0.0,0.0,0.0,0.0,0.0,0.0,0.0,0.0,0.0,0.0,0.0,0.0,0.0,0.0,0.0,0.0,0.0,0.0,0.0,0.0,0.0,0.0,0.0,0.0,0.0,0.0,0.0,0.0,0.0,0.0,0.0,0.0,0.0,0.0,0.0,0.0,0.0,0.0,0.0,0.0,0.0,2.0305,2.1057,2.127,2.091,2.1859,2.2654,0.0,0.0,0.0,0.0,0.0,0.0,0.0,0.0,0.0,0.0,0.0,0.0,0.0,0.0,0.0,0.0,0.0,0.0,0.0,0.0,0.0,0.0,0.0,0.0,0.0,0.0,0.0,0.0,0.0,0.0,0.0,0.0,0.0,0.0,0.0,0.0,0.0,0.0,0.0,0.0,0.0,0.0,0.0,0.0,0.0,0.0,0.0,0.0,0.0,0.0,0.0,0.0,0.0,0.0,0.0,0.0,0.0,0.0,0.0,0.0,0.0,0.0,0.0,0.0,0.0,0.0,0.0,0.0,0.0,0.0,0.0,0.0,0.0,0.0,0.0,0.0,0.0,0.0,0.0,0.0,0.0,0.0,0.0,0.0,0.0,0.0,0.0,0.0,0.0,0.0,0.0,0.0,0.0,0.0,0.0,0.0,0.0,0.0,0.0,0.0,0.0,0.0,0.0,0.0,0.0,0.0,0.0,0.0,2.0656,2.0651,2.1365,2.1581,2.1292,2.2152,2.2846,0.0,0.0,0.0,0.0,0.0,0.0,0.0,0.0,0.0,0.0,0.0,0.0,0.0,0.0,0.0,0.0,0.0,0.0,0.0,0.0,0.0,0.0,0.0,0.0,0.0,0.0,0.0,0.0,0.0,0.0,0.0,0.0,0.0,0.0,0.0,0.0,0.0,0.0,0.0,0.0,0.0,0.0,0.0,0.0,0.0,0.0,0.0,0.0,0.0,0.0,0.0,0.0,0.0,0.0,0.0,0.0,0.0,0.0,0.0,0.0,0.0,0.0,0.0,0.0,0.0,0.0,0.0,0.0,0.0,0.0,0.0,0.0,0.0,0.0,0.0,0.0,0.0,0.0,0.0,0.0,0.0,0.0,0.0,0.0,0.0,0.0,0.0,0.0,0.0,0.0,0.0,0.0,0.0,0.0,0.0,0.0,0.0,0.0,0.0,0.0,0.0,0.0,0.0,0.0,0.0,0.0,0.0,0.0,2.0701,2.0617,2.1253,2.1609,2.1627,2.2549,2.307,0.0,0.0,0.0,0.0,0.0,0.0,0.0,0.0,0.0,0.0,0.0,0.0,0.0,0.0,0.0,0.0,0.0,0.0,0.0,0.0,0.0,0.0,0.0,0.0,0.0,0.0,0.0,0.0,0.0,0.0,0.0,0.0,0.0,0.0,0.0,0.0,0.0,0.0,0.0,0.0,0.0,0.0,0.0,0.0,0.0,0.0,0.0,0.0,0.0,0.0,0.0,0.0,0.0,0.0,0.0,0.0,0.0,0.0,0.0,0.0,0.0,0.0,0.0,0.0,0.0,0.0,0.0,0.0,0.0,0.0,0.0,0.0,0.0,0.0,0.0,0.0,0.0,0.0,0.0,0.0,0.0,0.0,0.0,0.0,0.0,0.0,0.0,0.0,0.0,0.0,0.0,0.0,0.0,0.0,0.0,0.0,0.0,0.0,0.0,0.0,0.0,0.0,0.0,0.0,0.0,0.0,0.0,0.0,2.2032,2.1983,2.2136,2.2204,2.2221,2.2586,2.2799,0.0,0.0,0.0,0.0,0.0,0.0,0.0,0.0,0.0,0.0,0.0,0.0,0.0,0.0,0.0,0.0,0.0,0.0,0.0,0.0,0.0,0.0,0.0,0.0,0.0,0.0,0.0,0.0,0.0,0.0,0.0,0.0,0.0,0.0,0.0,0.0,0.0,0.0,0.0,0.0,0.0,0.0,0.0,0.0,0.0,0.0,0.0,0.0,1.4825,0.0,0.0,0.0,0.0,0.0,0.0,0.0,0.0,0.0,0.0,0.0,0.0,0.0,0.0,0.0,0.0,0.0,0.0,0.0,0.0,0.0,0.0,0.0,0.0,0.0,0.0,0.0,0.0,0.0,0.0,0.0,0.0,0.0,0.0,0.0,0.0,0.0,0.0,0.0,0.0,0.0,0.0,0.0,0.0,0.0,0.0,0.0,0.0,0.0,0.0,0.0,0.0,0.0,0.0,0.0,0.0,0.0,0.0,0.0,2.229,2.2178,2.2161,2.2161,2.2161,2.2274,2.2426,0.0,0.0,0.0,0.0,0.0,0.0,0.0,0.0,0.0,0.0,0.0,0.0,0.0,0.0,0.0,0.0,0.0,0.0,0.0,0.0,0.0,0.0,0.0,0.0,0.0,0.0,0.0,0.0,0.0,0.0,0.0,0.0,0.0,0.0,0.0,0.0,0.0,0.0,0.0,0.0,0.0,0.0,0.0,0.0,0.0,0.0,0.0,0.0,0.0,0.0,0.0,0.0,0.0,0.0,0.0,0.0,0.0,0.0,0.0,0.0,0.0,0.0,0.0,0.0,0.0,0.0,0.0,0.0,0.0,0.0,0.0,0.0,0.0,0.0,0.0,0.0,0.0,0.0,0.0,0.0,0.0,0.0,0.0,0.0,0.0,0.0,0.0,0.0,0.0,0.0,0.0,0.0,0.0,0.0,0.0,0.0,0.0,0.0,0.0,0.0,0.0,0.0,0.0,0.0,0.0,0.0,0.0,2.2149,2.2032,2.1855,2.1855,2.1855,2.1855,2.1855,2.2032,2.2402,0.0,0.0,0.0,0.0,0.0,0.0,0.0,0.0,0.0,0.0,0.0,0.0,0.0,0.0,0.0,0.0,0.0,0.0,0.0,0.0,0.0,0.0,0.0,0.0,0.0,0.0,0.0,0.0,0.0,0.0,0.0,0.0,0.0,0.0,0.0,0.0,0.0,0.0,1.5669,1.4897,0.0,0.0,0.0,0.0,0.0,0.0,0.0,0.0,1.4576,0.0,0.0,0.0,0.0,0.0,0.0,0.0,0.0,0.0,0.0,0.0,0.0,0.0,0.0,0.0,0.0,0.0,0.0,0.0,0.0,0.0,0.0,0.0,0.0,0.0,0.0,0.0,0.0,0.0,0.0,0.0,0.0,0.0,0.0,0.0,0.0,0.0,0.0,0.0,0.0,0.0,0.0,0.0,0.0,0.0,0.0,0.0,0.0,0.0,0.0,0.0,0.0,0.0,0.0,0.0,0.0,2.1943,2.1884,2.1783,2.1649,2.1665,2.1649,2.165,2.1634,2.1753,2.1986,0.0,0.0,0.0,0.0,0.0,0.0,0.0,0.0,0.0,0.0,0.0,0.0,0.0,0.0,0.0,0.0,0.0,0.0,0.0,0.0,0.0,0.0,0.0,0.0,0.0,0.0,0.0,0.0,0.0,0.0,0.0,0.0,0.0,0.0,0.0,0.0,0.0,0.0,0.0,1.4556,1.4049,0.0,0.0,0.0,0.0,0.0,0.0,0.0,0.0,1.4625,0.0,0.0,0.0,0.0,0.0,0.0,0.0,0.0,0.0,0.0,0.0,0.0,0.0,0.0,0.0,0.0,0.0,0.0,0.0,0.0,0.0,0.0,0.0,0.0,0.0,0.0,0.0,0.0,0.0,0.0,0.0,0.0,0.0,0.0,0.0,0.0,0.0,0.0,0.0,0.0,0.0,0.0,0.0,0.0,0.0,0.0,0.0,0.0,0.0,0.0,0.0,0.0,0.0,0.0,0.0,2.163,2.1616,2.1494,2.1341,2.1341,2.1341,2.1341,2.1357,2.1419,0.0,0.0,0.0,0.0,0.0,0.0,0.0,0.0,0.0,0.0,0.0,0.0,0.0,0.0,0.0,0.0,0.0,0.0,0.0,0.0,0.0,0.0,0.0,0.0,0.0,0.0,0.0,0.0,0.0,0.0,0.0,0.0,0.0,0.0,0.0,0.0,0.0,0.0,0.0,0.0,1.4302,1.3848,1.3765,0.0,0.0,0.0,0.0,0.0,0.0,1.4289,1.4497,0.0,0.0,0.0,0.0,0.0,0.0,0.0,0.0,0.0,0.0,0.0,0.0,0.0,0.0,0.0,0.0,0.0,0.0,0.0,0.0,0.0,0.0,0.0,0.0,0.0,0.0,0.0,0.0,0.0,0.0,0.0,0.0,0.0,0.0,0.0,0.0,0.0,0.0,0.0,0.0,0.0,0.0,0.0,0.0,0.0,0.0,0.0,0.0,0.0,0.0,0.0,0.0,0.0,0.0,0.0,2.1371,2.1324,2.1198,2.099,2.0974,2.099,2.099,2.099,2.1055,0.0,0.0,0.0,0.0,0.0,0.0,0.0,0.0,0.0,0.0,0.0,0.0,0.0,0.0,0.0,0.0,0.0,0.0,0.0,0.0,0.0,0.0,0.0,0.0,0.0,0.0,0.0,0.0,0.0,0.0,0.0,0.0,0.0,0.0,0.0,0.0,0.0,0.0,0.0,0.0,0.0,1.3826,1.3676,1.3574,0.0,0.0,0.0,0.0,1.396,1.4144,0.0,0.0,0.0,0.0,0.0,0.0,0.0,0.0,0.0,0.0,0.0,0.0,0.0,0.0,0.0,0.0,0.0,0.0,0.0,0.0,0.0,0.0,0.0,0.0,0.0,0.0,0.0,0.0,0.0,0.0,0.0,0.0,0.0,0.0,0.0,0.0,0.0,0.0,0.0,0.0,0.0,0.0,0.0,0.0,0.0,0.0,0.0,0.0,0.0,0.0,0.0,0.0,0.0,0.0,0.0,0.0,2.1231,2.1039,2.0844,2.0595,2.0562,2.0561,2.0562,2.0562,2.0679,0.0,0.0,0.0,0.0,0.0,0.0,0.0,0.0,0.0,0.0,0.0,0.0,0.0,0.0,0.0,0.0,0.0,0.0,0.0,0.0,0.0,0.0,0.0,0.0,0.0,0.0,0.0,0.0,0.0,0.0,0.0,0.0,0.0,0.0,0.0,0.0,0.0,0.0,0.0,0.0,0.0,1.4236,1.4205,1.38,1.348,0.0,0.0,1.3791,1.3808,1.4075,0.0,0.0,0.0,0.0,0.0,0.0,0.0,0.0,0.0,0.0,0.0,0.0,0.0,0.0,0.0,0.0,0.0,0.0,0.0,0.0,0.0,0.0,0.0,0.0,0.0,0.0,0.0,0.0,0.0,0.0,0.0,0.0,0.0,0.0,0.0,0.0,0.0,0.0,0.0,0.0,0.0,0.0,0.0,0.0,0.0,0.0,0.0,0.0,0.0,0.0,0.0,0.0,0.0,0.0,0.0,2.1151,2.0974,2.0762,2.0562,2.0392,2.0323,2.0289,2.0272,2.0273,2.0359,0.0,0.0,0.0,0.0,0.0,0.0,0.0,0.0,0.0,0.0,0.0,0.0,0.0,0.0,0.0,0.0,0.0,0.0,0.0,0.0,0.0,0.0,0.0,0.0,0.0,0.0,0.0,0.0,0.0,0.0,0.0,0.0,0.0,0.0,0.0,0.0,0.0,0.0,0.0,0.0,0.0,0.0,1.4645,1.4194,0.0,0.0,0.0,1.4253,1.46,0.0,0.0,0.0,0.0,0.0,0.0,0.0,0.0,0.0,0.0,0.0,0.0,0.0,0.0,0.0,0.0,0.0,0.0,0.0,0.0,0.0,0.0,0.0,0.0,0.0,0.0,0.0,0.0,0.0,0.0,0.0,0.0,0.0,0.0,0.0,0.0,0.0,0.0,0.0,0.0,0.0,0.0,0.0,0.0,0.0,0.0,0.0,0.0,0.0,0.0,0.0,0.0,0.0,0.0,0.0,0.0,0.0,2.0728,2.0544,2.034,2.0168,2.0065,2.0028,2.0045,2.0013,0.0,0.0,0.0,0.0,0.0,0.0,0.0,0.0,0.0,0.0,0.0,0.0,0.0,0.0,0.0,0.0,0.0,0.0,0.0,0.0,0.0,0.0,0.0,0.0,0.0,0.0,0.0,1.9227,0.0,0.0,0.0,0.0,0.0,0.0,0.0,0.0,0.0,0.0,0.0,0.0,0.0,0.0,1.5156,1.513,1.4651,1.445,0.0,0.0,1.471,1.5202,1.5008,1.5136,0.0,0.0,0.0,0.0,0.0,0.0,0.0,0.0,0.0,0.0,0.0,0.0,0.0,0.0,0.0,0.0,0.0,0.0,0.0,0.0,0.0,0.0,0.0,0.0,0.0,0.0,0.0,0.0,0.0,0.0,0.0,0.0,0.0,0.0,0.0,0.0,0.0,0.0,0.0,0.0,0.0,0.0,0.0,0.0,0.0,0.0,0.0,0.0,0.0,0.0,0.0,0.0,0.0,0.0,0.0,2.0527,2.039,2.0166,1.9851,1.9815,1.9815,1.9815,1.98,1.9869,0.0,0.0,0.0,0.0,0.0,0.0,0.0,0.0,0.0,0.0,0.0,0.0,0.0,0.0,0.0,0.0,0.0,0.0,0.0,0.0,0.0,0.0,0.0,0.0,0.0,0.0,0.0,0.0,0.0,0.0,0.0,0.0,0.0,0.0,0.0,0.0,0.0,0.0,0.0,0.0,0.0,1.5663,1.5643,1.5185,1.4846,0.0,0.0,1.5019,1.5178,1.4883,1.4923,1.5801,0.0,0.0,0.0,0.0,0.0,0.0,0.0,0.0,0.0,0.0,0.0,0.0,0.0,0.0,0.0,0.0,0.0,0.0,0.0,0.0,0.0,0.0,0.0,0.0,0.0,0.0,0.0,0.0,0.0,0.0,0.0,0.0,0.0,0.0,0.0,0.0,0.0,0.0,0.0,0.0,0.0,0.0,0.0,0.0,0.0,0.0,0.0,0.0,0.0,0.0,0.0,0.0,0.0,2.061,2.0375,2.02,2.0008,1.9815,1.9762,1.9744,1.9744,1.9687,1.9723,0.0,0.0,0.0,0.0,0.0,0.0,0.0,0.0,0.0,0.0,0.0,0.0,0.0,0.0,0.0,0.0,0.0,0.0,0.0,0.0,0.0,0.0,0.0,0.0,0.0,0.0,0.0,0.0,1.6352,1.5584,1.5708,0.0,0.0,0.0,0.0,0.0,0.0,0.0,0.0,0.0,0.0,1.6208,1.6195,1.5731,0.0,0.0,1.5719,1.5678,1.6074,1.5582,1.5524,1.6652,1.6561,0.0,0.0,0.0,0.0,0.0,0.0,0.0,0.0,0.0,0.0,0.0,0.0,0.0,0.0,0.0,0.0,0.0,0.0,0.0,0.0,0.0,0.0,0.0,0.0,0.0,0.0,0.0,0.0,0.0,0.0,0.0,0.0,0.0,0.0,0.0,0.0,0.0,0.0,0.0,0.0,0.0,0.0,0.0,0.0,0.0,0.0,0.0,0.0,0.0,0.0,0.0,0.0,2.0458,2.0235,2.0043,1.9866,1.9759,1.9687,1.9636,1.9614,1.956,1.956,0.0,0.0,0.0,0.0,0.0,0.0,0.0,0.0,0.0,0.0,0.0,0.0,0.0,0.0,0.0,0.0,0.0,0.0,0.0,0.0,0.0,0.0,0.0,0.0,0.0,0.0,0.0,0.0,1.5857,1.5438,1.6277,0.0,0.0,0.0,0.0,0.0,0.0,0.0,0.0,0.0,0.0,1.6513,1.65,1.6174,1.6082,1.6459,1.6271,1.6233,1.6646,1.6121,1.6016,1.7151,0.0,0.0,0.0,0.0,0.0,0.0,0.0,0.0,0.0,0.0,0.0,0.0,0.0,0.0,0.0,0.0,0.0,0.0,0.0,0.0,0.0,0.0,0.0,0.0,0.0,0.0,0.0,0.0,0.0,0.0,2.3835,0.0,0.0,0.0,0.0,0.0,0.0,0.0,0.0,0.0,0.0,0.0,0.0,0.0,0.0,0.0,0.0,0.0,0.0,0.0,0.0,0.0,0.0,2.0252,2.0115,1.9904,1.9756,1.9626,1.9593,1.9538,1.9428,1.9409,1.9395,1.938,0.0,0.0,0.0,0.0,0.0,0.0,0.0,0.0,0.0,0.0,0.0,0.0,0.0,0.0,0.0,0.0,0.0,0.0,0.0,0.0,0.0,0.0,0.0,0.0,0.0,0.0,1.6081,1.5608,1.5696,0.0,0.0,0.0,0.0,0.0,0.0,0.0,0.0,0.0,0.0,1.6522,1.6513,1.65,1.6488,1.6463,1.6522,1.6488,1.6518,1.6675,1.6286,1.625,0.0,0.0,0.0,0.0,0.0,0.0,0.0,0.0,0.0,0.0,0.0,0.0,0.0,0.0,0.0,0.0,0.0,0.0,0.0,0.0,0.0,0.0,0.0,0.0,0.0,0.0,0.0,2.5339,2.5053,0.0,0.0,0.0,0.0,0.0,0.0,0.0,0.0,0.0,0.0,0.0,2.4092,2.4213,0.0,0.0,0.0,0.0,0.0,0.0,0.0,0.0,0.0,0.0,0.0,0.0,2.015,1.9869,1.9762,1.9636,1.9483,1.9465,1.9428,1.9339,1.9265,1.8935,1.8404,0.0,0.0,0.0,0.0,0.0,0.0,0.0,0.0,0.0,0.0,0.0,0.0,0.0,0.0,0.0,0.0,0.0,0.0,0.0,0.0,0.0,0.0,0.0,0.0,0.0,1.5921,0.0,0.0,0.0,0.0,0.0,0.0,0.0,0.0,0.0,0.0,0.0,1.6513,1.6513,1.6513,1.6513,1.6513,1.6513,1.6513,0.0,0.0,0.0,0.0,0.0,0.0,0.0,0.0,0.0,0.0,0.0,0.0,0.0,0.0,1.7659,1.7963,1.7922,1.7882,1.7969,0.0,0.0,0.0,0.0,0.0,0.0,0.0,0.0,0.0,0.0,0.0,0.0,0.0,0.0,2.6218,0.0,2.6097,0.0,0.0,0.0,0.0,0.0,0.0,0.0,0.0,2.4701,2.4564,2.4426,2.4359,2.4333,0.0,2.3835,2.3114,0.0,0.0,0.0,0.0,0.0,0.0,0.0,0.0,1.9957,1.9708,1.9636,1.9505,1.9288,1.9288,1.9246,1.912,1.9007,1.8587,1.7797,1.7786,1.7605,0.0,0.0,0.0,0.0,0.0,0.0,0.0,0.0,0.0,0.0,0.0,0.0,0.0,0.0,0.0,0.0,0.0,0.0,0.0,0.0,0.0,0.0,0.0,1.5702,0.0,0.0,0.0,0.0,0.0,0.0,0.0,0.0,0.0,1.6509,1.6513,1.6513,1.6513,1.6513,1.6513,1.6513,0.0,0.0,0.0,0.0,0.0,0.0,0.0,1.6274,1.6748,1.6664,1.6658,1.7139,1.7225,1.7225,1.7225,0.0,0.0,1.7604,1.7584,1.7543,1.7625,1.7505,1.7183,1.6483,1.5822,1.5166,0.0,0.0,0.0,0.0,0.0,0.0,0.0,0.0,2.7352,2.7201,0.0,2.6988,0.0,0.0,0.0,0.0,0.0,2.4798,0.0,0.0,2.4359,2.4219,2.4099,2.4009,2.4003,2.3982,2.3967,2.357,2.2807,2.1888,0.0,0.0,0.0,0.0,0.0,0.0,1.9675,1.9672,1.9487,1.9284,1.9101,1.9082,1.8988,1.8803,1.8716,1.8318,1.7534,1.7492,1.7267,1.6817,1.6858,0.0,0.0,0.0,0.0,0.0,0.0,0.0,0.0,0.0,0.0,0.0,0.0,0.0,0.0,0.0,0.0,0.0,0.0,0.0,0.0,1.5489,0.0,0.0,0.0,0.0,0.0,0.0,0.0,0.0,0.0,0.0,1.65,1.6513,1.6513,1.6513,0.0,0.0,0.0,0.0,1.6513,1.6513,1.6513,1.6513,1.6513,1.6599,1.6684,1.6697,0.0,0.0,1.6897,1.691,1.6897,1.691,1.6876,1.6939,1.7136,1.7199,1.7199,1.7186,1.6808,1.6218,1.5617,1.5027,1.4375,3.0212,0.0,0.0,0.0,0.0,2.8445,2.7923,2.7185,2.6912,2.6761,2.6682,2.6557,0.0,0.0,0.0,0.0,0.0,0.0,2.424,2.4166,2.4109,2.3967,2.3745,2.3739,2.3711,2.3625,2.364,2.3513,2.3283,2.2446,2.161,2.079,0.0,0.0,0.0,0.0,1.9417,1.9269,1.9168,1.9017,1.8827,1.8812,1.8683,1.8456,1.8279,1.7885,1.7239,1.7212,1.6973,1.6469,1.66,0.0,0.0,0.0,0.0,0.0,0.0,0.0,0.0,0.0,0.0,0.0,0.0,0.0,0.0,0.0,0.0,0.0,0.0,0.0,1.5972,1.5942,1.6093,0.0,0.0,0.0,0.0,0.0,0.0,0.0,0.0,0.0,1.6513,1.6513,1.6513,0.0,0.0,1.6513,1.6513,1.6513,1.6513,1.6513,1.6513,0.0,1.6513,1.6543,1.6599,1.6675,1.6812,1.691,1.691,1.6825,1.674,1.6761,1.6684,1.6629,1.668,1.6863,1.6968,1.6951,1.6537,1.595,1.5408,1.4754,1.4111,3.021,3.0172,3.0151,2.9772,2.914,2.8906,2.8364,2.7657,2.7409,2.7249,2.7149,2.7033,2.6834,2.6574,2.6214,0.0,0.0,0.0,2.4103,2.379,2.3827,2.3668,2.3399,2.3414,2.3348,2.326,2.326,2.3216,2.3194,2.2659,2.1901,2.0936,0.0,0.0,1.9759,1.9411,1.9168,1.8974,1.8908,1.8769,1.8528,1.8503,1.8392,1.8187,1.8042,1.7772,1.7345,1.7345,1.7098,1.6573,1.6706,1.6777,0.0,0.0,0.0,0.0,0.0,0.0,0.0,0.0,0.0,0.0,0.0,1.9453,0.0,0.0,0.0,0.0,1.7005,1.6445,1.6093,1.6166,0.0,0.0,0.0,0.0,0.0,0.0,0.0,1.7162,1.7187,1.7165,1.7165,1.7187,1.7024,1.6563,1.6513,1.6513,1.6513,0.0,1.6513,1.6513,1.6513,1.6513,1.6513,1.6513,1.6522,1.6599,1.6684,1.6748,1.6735,1.6671,1.662,1.6611,1.6556,1.6513,1.6513,1.6629,1.6748,1.6723,1.61,1.5464,1.5133,1.4417,1.3697,2.9935,2.9766,2.9728,2.9677,2.9614,2.9229,2.8912,2.8661,2.8429,2.8314,2.8162,2.8029,2.7622,2.6976,2.6139,0.0,2.4882,2.4664,2.4186,2.3503,2.348,2.3319,2.3061,2.3061,2.2994,2.283,2.2844,2.2777,2.2663,2.2563,2.2156,2.1403,2.049,2.0007,1.9931,1.932,1.8946,1.8779,1.8678,1.8523,1.826,1.8175,1.8089,1.7968,1.7875,1.7788,1.7679,1.7679,1.7444,1.6971,1.7019,1.6935,1.6641,0.0,0.0,0.0,0.0,0.0,0.0,0.0,0.0,0.0,0.0,0.0,0.0,0.0,0.0,0.0,1.6308,0.0,1.6303,1.6222,0.0,0.0,0.0,1.708,1.7454,1.752,1.7715,1.8141,0.0,0.0,1.8204,1.8204,1.7827,1.6763,1.6588,1.6563,1.6563,1.6525,1.6513,1.6513,1.6513,1.6513,1.6513,1.6513,1.65,1.6534,1.6513,1.6534,1.6522,1.6522,1.6522,1.65,1.6513,1.6513,1.6513,1.6522,1.6475,1.6434,1.5625,1.4903,1.4777,1.3991,1.3278,3.0012,2.9403,2.9205,2.9175,2.919,2.8826,2.8566,2.8444,2.8088,2.7915,2.789,2.775,2.755,2.726,2.6441,2.5958,2.5668,2.4658,2.4059,2.3702,2.3257,2.2926,2.2715,2.2715,2.2586,2.2379,2.2379,2.231,2.217,2.2067,2.1842,2.1521,2.0758,2.012,1.9561,1.9282,1.8913,1.8422,1.826,1.8042,1.7848,1.7713,1.7639,1.7618,1.7543,1.7508,1.7466,1.7466,1.7421,1.7282,1.7061,1.6911,1.6818,1.7079,0.0,0.0,0.0,0.0,0.0,0.0,0.0,0.0,0.0,1.875,1.8475,0.0,1.763,0.0,1.644,1.6316,1.6703,1.6641,0.0,0.0,1.7055,1.7327,1.7418,1.7773,1.81,1.8191,1.8204,1.8204,1.8204,1.8204,1.8116,1.7827,1.7451,1.7174,1.7184,1.6785,1.6513,1.6513,1.6513,1.6513,1.6513,1.6513,1.6513,1.6513,1.6513,1.6513,1.6513,1.6513,1.6513,1.6513,1.6513,1.6513,1.6513,1.6513,1.6337,1.5969,1.5349,1.4777,1.4362,1.3709,1.321,2.9927,2.9493,2.8833,2.8605,2.8605,2.851,2.8332,2.8128,2.789,2.774,2.7604,2.7412,2.7284,2.7181,2.6528,2.6054,2.5673,2.4854,2.4124,2.3469,2.315,2.2742,2.2324,2.2278,2.2137,2.1926,2.1864,2.1793,2.1736,2.1544,2.1399,2.1313,2.0783,2.0214,1.9564,1.9439,1.9181,1.8802,1.8384,1.8117,1.8005,1.7683,1.7496,1.7496,1.7432,1.7384,1.7384,1.7384,1.7384,1.7404,1.7243,1.7195,1.7248,1.7484,1.7697,0.0,0.0,0.0,0.0,0.0,0.0,0.0,0.0,0.0,0.0,0.0,1.7619,1.7023,1.6667,1.6653,1.7118,1.7073,1.7112,1.733,1.7609,1.784,1.8078,1.8392,1.8656,1.8882,1.8907,1.8907,1.8907,1.8907,1.8907,1.8907,1.8455,1.7928,1.7426,1.6886,1.6513,1.6513,1.6513,1.6513,1.6513,1.6513,1.6513,1.6513,1.6513,1.6513,1.6513,1.6513,1.6513,1.6513,1.6513,1.6513,1.6513,1.6513,1.6262,1.553,1.511,1.4727,1.4217,1.3639,1.3181,2.9859,2.9592,2.8652,2.81,2.7925,2.8137,2.8054,2.774,2.774,2.7564,2.7325,2.7055,2.691,2.6884,2.6445,2.5932,2.5381,2.5006,2.4273,2.3244,2.3146,2.2721,2.2013,2.1894,2.1708,2.152,2.1375,2.1302,2.1264,2.1033,2.0909,2.0898,2.0673,2.0287,1.9781,1.9708,1.9561,1.9346,1.8773,1.849,1.8455,1.7946,1.7667,1.768,1.7623,1.7594,1.7608,1.7594,1.7573,1.7594,1.7652,1.7756,1.7886,1.7997,1.8174,0.0,1.841,0.0,0.0,0.0,0.0,0.0,0.0,0.0,0.0,1.7773,1.758,1.7261,1.7055,1.7102,1.7546,1.7531,1.7677,1.8141,1.8267,1.8481,1.8933,1.9058,1.9284,1.9748,1.9798,1.9798,1.9761,1.9798,1.9798,1.9698,1.9233,1.8631,1.7777,1.7087,1.6647,1.6538,1.6513,1.6513,1.6513,1.6513,1.6513,1.6513,1.6513,1.6513,1.6513,1.6513,1.6513,1.6513,1.6513,1.6513,1.6513,1.6513,1.6162,1.5273,1.4997,1.4702,1.4085,1.3559,1.3206,3.0064,2.9048,2.8619,2.8028,2.7361,2.7412,2.7452,2.7478,2.7361,2.7207,2.7041,2.6618,2.6431,2.6404,2.6138,2.5755,2.5383,2.483,2.4337,2.3877,2.3347,2.2738,2.2081,2.1928,2.1547,2.097,2.0809,2.0684,2.0598,2.0548,2.0447,2.0359,2.0296,2.0219,2.0116,0.0,0.0,0.0,1.8982,1.8939,1.8809,1.8717,1.8638,1.8629,1.8629,0.0,1.862,1.862,1.8607,1.8607,1.8732,0.0,0.0,0.0,0.0,0.0,0.0,0.0,0.0,0.0,0.0,0.0,1.8945,1.8407,1.7601,1.7622,1.7643,1.7476,1.7829,1.809,1.8088,1.8064,1.8078,1.8204,1.8581,1.8895,1.9008,1.9371,1.9698,1.9786,1.9798,1.9798,1.9798,1.9798,1.9798,1.9773,1.9334,1.8958,1.8694,1.7802,1.7061,1.6635,1.65,1.65,1.6513,1.6513,1.65,1.6513,1.6513,1.6513,1.6513,1.6513,1.6513,1.6513,1.6513,1.6513,1.6513,1.6513,1.63,1.5668,1.5211,1.4595,1.3591,1.3303,1.3181,2.9884,0.0,2.8311,2.7598,0.0,2.6747,2.6709,2.6671,2.6881,2.6855,2.6618,2.6109,2.5851,2.5837,2.5508,2.5203,2.4937,2.4554,2.4132,2.3629,2.3296,2.2817,2.2181,2.2062,2.1668,2.1042,2.0914,2.0656,2.0322,2.0233,2.0156,2.0118,2.0042,1.9991,2.0016,2.008,1.9901,1.9545,1.9357,1.9201,1.9141,1.8846,1.8704,1.8717,1.8704,0.0,0.0,0.0,0.0,0.0,0.0,0.0,0.0,0.0,0.0,1.9074,1.912,1.9284,1.9618,1.9565,1.9472,1.9402,1.8931,1.8438,1.7981,1.8,1.8017,1.7959,1.8168,1.8388,1.8581,1.8606,1.8719,1.897,1.9246,1.9384,1.9434,1.9635,1.9798,1.9798,1.9798,1.9798,1.9798,1.9798,1.9798,1.9798,1.9559,1.9183,1.8583,1.7892,1.7174,1.6557,1.6392,1.6371,1.6448,1.6457,1.6479,1.65,1.6513,1.6513,1.6513,1.6513,1.6513,1.6513,1.6513,1.6513,1.6513,1.6513,1.6346,1.5844,1.548,1.4934,1.3885,1.3403,1.3163,2.9651,2.8881,2.8148,2.7237,2.6319,2.6307,2.6087,2.5757,0.0,0.0,0.0,2.5508,2.5231,2.5245,2.485,2.4536,2.435,2.4247,2.3812,2.3197,2.3168,2.2898,2.2339,2.2188,2.1865,2.1364,2.1116,2.0756,2.0284,2.0054,1.9965,1.9952,1.9862,1.9798,1.9798,1.9926,2.0003,2.0105,1.9747,1.9541,1.9528,1.9068,1.8801,1.8801,1.8801,1.8801,1.8801,1.8896,1.8967,1.8967,1.8954,1.8967,1.8967,1.8954,1.8954,1.8954,1.9074,1.9341,1.9733,1.9749,1.9702,1.9677,1.9035,1.8607,1.8499,1.8492,1.8508,1.8496,1.8502,1.8681,1.9096,1.9146,1.9309,1.9761,1.9798,1.9798,1.9798,1.9773,1.9773,1.9798,1.9773,1.9773,1.9798,1.9798,1.9798,1.9811,1.9747,1.9333,1.8212,1.7512,1.6935,1.647,1.6275,1.6231,1.6318,1.6383,1.6371,1.6426,1.6448,1.6457,1.6457,1.6436,1.6457,1.6448,1.6436,1.6436,1.6457,1.647,1.635,1.5911,1.5756,1.5429,1.4588,1.3817,1.3278,2.9688,2.9042,2.8631,2.7632,2.6312,2.6312,2.5781,2.5018,2.5384,2.5563,2.5481,2.4908,2.4624,2.4582,2.4321,2.4015,2.3734,2.3704,2.3475,2.3102,2.3102,2.29,2.2483,2.234,2.2037,2.1631,2.1066,2.0707,2.0581,2.0075,1.9824,1.9811,1.9798,1.9798,1.9798,1.9837,1.9837,1.985,1.9991,2.0092,2.0092,2.0015,1.9964,1.9939,1.9926,1.9977,1.9977,1.9951,1.9989,1.9989,1.9989,2.0002,1.9989,1.9976,1.9989,1.9989,2.0027,2.0053,2.013,2.013,2.0067,1.994,1.9737,1.9258,1.8481,1.8727,1.8907,1.8932,1.9284,1.961,1.9698,1.9647,1.9672,1.9773,1.9798,1.9798,1.9773,1.9682,1.9656,1.9773,1.9682,1.9656,1.9747,1.9798,1.9798,1.9798,1.9583,1.9144,1.7981,1.6995,1.6404,1.6256,1.621,1.62,1.621,1.6231,1.6231,1.6231,1.6253,1.6275,1.6253,1.6275,1.6287,1.6265,1.6265,1.6253,1.6253,1.634,1.6343,1.6227,1.5982,1.5635,1.5334,1.4512,1.3605,2.9117,2.8449,2.8146,2.7245,2.5889,2.5418,2.4862,2.4263,2.4379,2.4567,2.4738,2.4234,2.4015,2.3985,2.3691,2.3437,2.3241,2.321,2.309,2.2878,2.2891,2.2772,2.2608,2.2524,2.225,2.1761,2.1455,2.0977,2.0434,2.0149,1.9902,1.9707,1.9747,1.9798,1.9798,1.9798,1.9798,1.9798,1.9914,1.9991,1.9991,1.9965,1.9991,1.9965,1.9965,1.9991,1.9991,2.0054,2.0093,2.0093,2.008,2.008,2.0093,2.0016,1.9965,1.9991,1.9991,1.9991,1.9991,1.9991,1.9965,1.9901,1.9837,1.9635,1.9207,1.9321,1.9459,1.9421,1.9608,1.9682,1.9708,1.963,1.9591,1.9565,1.9591,1.9591,1.9565,1.9551,1.9512,1.9565,1.9539,1.9539,1.9682,1.9708,1.9734,1.9722,1.9195,1.829,1.7408,1.6558,1.6013,1.6044,1.6035,1.6013,1.6066,1.61,1.6122,1.6188,1.62,1.62,1.62,1.62,1.62,1.62,1.62,1.62,1.62,1.6265,1.6297,1.6284,1.617,1.5906,1.55,1.4587,1.3594,2.8493,2.7899,2.7678,2.6774,2.5455,2.4491,2.3914,2.3577,2.3454,2.3573,2.3796,2.3556,2.342,2.3348,2.3078,2.2836,2.2696,2.2665,2.2604,2.2494,2.2463,2.2494,2.2525,2.2525,2.2305,2.1932,2.1785,2.1325,2.0578,2.03,1.9976,1.96,1.9656,1.9708,1.9734,1.9708,1.9708,1.9708,1.9708,1.9759,1.9798,1.9798,1.9798,1.9798,1.9798,1.9798,1.9798,1.9901,1.9952,1.9952,1.9952,1.9965,1.9965,1.9862,1.9798,1.9798,1.9798,1.9798,1.9798,1.9798,1.9798,1.9798,1.9798,1.9798,1.9798,1.9773,1.9747,1.9759,1.963,1.9565,1.9539,1.9434,1.9356,1.9368,1.933,1.9316,1.9316,1.9289,1.9316,1.933,1.9342,1.9368,1.9512,1.9565,1.9529,1.9294,1.8462,1.7531,1.6841,1.6218,1.5883,1.5891,1.5881,1.5859,1.5935,1.5957,1.6001,1.6113,1.61,1.6091,1.6091,1.6113,1.6113,1.6091,1.61,1.6078,1.6113,1.6122,1.6144,1.6166,1.6139,1.5991,1.5429,1.4719,1.3763,2.8065,2.7959,2.7604,2.6648,2.5253,2.4016,2.33,2.3,2.2763,2.2622,2.2622,2.2848,2.2836,2.2671,2.2543,2.2297,2.2018,2.1987,2.1937,2.1824,2.1792,2.1843,2.1956,2.1968,2.2037,2.2072,2.1783,2.1552,2.1309,2.0587,1.9934,1.9482,1.942,1.9447,1.9447,1.9447,1.9447,1.9447,1.9447,1.9565,1.9773,1.9798,1.9798,1.9798,1.9798,1.9798,1.9798,1.9798,1.9824,1.9798,1.9837,1.9837,1.9798,1.9798,1.9798,1.9798,1.9798,1.9798,1.9798,1.9798,1.9798,1.9798,1.9798,1.9811,1.9823,1.9694,1.9617,1.964,1.9523,1.942,1.9394,1.9303,1.9186,1.916,1.9093,1.9052,1.9025,1.8931,1.8946,1.9212,1.9093,1.9131,1.9342,1.9394,1.9186,1.8644,1.8093,1.7374,1.6652,1.6161,1.5814,1.5814,1.5814,1.5814,1.5824,1.5836,1.5859,1.5859,1.5859,1.5881,1.5893,1.5893,1.5836,1.5903,1.5859,1.5881,1.5903,1.5913,1.6022,1.6022,1.6042,1.5997,1.5398,1.5052,1.457,2.759,2.7543,2.7188,2.6166,2.4734,2.3479,2.2757,2.2463,2.2254,2.2037,2.1839,2.1963,2.2025,2.2056,2.1901,2.1683,2.1474,2.1486,2.1454,2.1403,2.1391,2.1423,2.1486,2.1486,2.158,2.1714,2.1564,2.1395,2.1117,2.0565,1.9985,1.9531,1.9525,1.9434,1.9208,1.9251,1.9265,1.9291,1.9356,1.9473,1.9565,1.9565,1.9617,1.9682,1.9682,1.9708,1.9798,1.9798,1.9798,1.9798,1.9798,1.9798,1.9798,1.9798,1.9798,1.9798,1.9798,1.9798,1.9798,1.9798,1.9798,1.9798,1.9798,1.9898,2.0131,2.0021,1.9971,2.0052,1.956,1.9158,1.9158,1.896,1.8827,1.8721,1.8679,1.8625,1.8637,1.8583,1.8652,1.8801,1.8789,1.8827,1.9025,1.9184,1.8859,1.8078,1.7654,1.723,1.6329,1.5946,1.585,1.5814,1.5814,1.5814,1.5814,1.5814,1.5814,1.5814,1.5814,1.5814,1.5814,1.5814,1.5814,1.5814,1.5814,1.5814,1.5814,1.5836,1.5869,1.5891,1.5891,1.5862,1.5613,1.5302,1.4859,2.7019,2.6879,2.6261,2.5311,2.423,2.294,2.2254,2.1999,2.18,2.1537,2.1273,2.1167,2.1178,2.1262,2.1262,2.1178,2.101,2.0978,2.0967,2.0892,2.0903,2.0935,2.0978,2.0978,2.1063,2.119,2.123,2.1101,2.0778,2.0487,2.0035,1.9618,1.9665,1.9559,1.9265,1.9353,1.9462,1.9474,1.9528,1.9594,1.9606,1.9582,1.9582,1.9562,1.9687,1.9814,1.9919,2.007,2.0109,1.9959,2.0011,1.9962,1.9811,1.9798,1.9798,1.9798,1.9798,1.9798,1.9798,1.9798,1.9874,2.0012,2.0011,2.0143,2.0484,2.0413,2.0334,2.0401,1.971,1.9147,1.8988,1.8838,1.8589,1.8309,1.822,1.8232,1.8205,1.8205,1.8247,1.8371,1.8387,1.8479,1.8652,1.8857,1.8614,1.7577,1.7375,1.7098,1.6068,1.5804,1.5814,1.5814,1.5814,1.5814,1.5814,1.5814,1.5814,1.5814,1.5814,1.5814,1.5814,1.5814,1.5814,1.5814,1.5814,1.5814,1.5814,1.5814,1.5814,1.5814,1.5814,1.5802,1.5754,1.5432,1.5205,2.6358,2.6049,2.4713,2.4065,2.371,2.2472,2.1726,2.1463,2.1285,2.1138,2.0871,2.0582,2.0356,2.0237,2.0667,2.0754,2.0464,2.0432,2.0367,2.0204,2.0161,2.0248,2.0443,2.0443,2.054,2.0722,2.0839,2.0728,2.0427,2.04,2.0125,1.9625,1.9726,1.979,1.9727,1.9848,2.0035,1.9952,1.9964,2.0052,2.0035,2.0023,1.9833,1.9509,1.9897,2.0168,2.0259,2.0813,2.0893,2.0372,2.0534,2.0388,1.9886,1.9811,1.9798,1.9773,1.9798,1.9798,1.981,1.986,2.0061,2.0526,2.0453,2.0595,2.102,2.0767,2.0569,2.0495,2.003,1.9558,1.9078,1.8878,1.8542,1.7965,1.781,1.7739,1.7728,1.7767,1.781,1.7936,1.7991,1.81,1.8356,1.8545,1.8139,1.741,1.7154,1.6848,1.6061,1.5796,1.5792,1.5792,1.5792,1.5814,1.5814,1.5814,1.5814,1.5814,1.5814,1.5814,1.5814,1.5814,1.5814,1.5814,1.5814,1.5814,1.5814,1.5814,1.5814,1.5814,1.5814,1.5814,1.5814,1.5814,1.5622,2.5699,2.5297,2.4,2.3416,2.3142,2.1853,2.119,2.1051,2.0807,2.0582,2.0366,2.0161,1.9966,1.9791,1.9987,1.9998,1.9878,1.9878,1.9846,1.9802,1.9791,1.9802,1.9868,1.9878,1.9976,2.0172,2.0237,2.0268,2.0241,2.0357,2.0142,1.9717,1.9772,1.9716,1.9463,1.9577,1.9636,1.9666,1.9713,1.9801,1.9795,1.9801,1.9692,1.9578,2.0003,2.0354,2.0592,2.0803,2.0888,2.0804,2.0847,2.0627,2.0095,1.9724,1.9551,1.9563,1.986,2.0058,2.0095,2.038,2.0652,2.0838,2.0847,2.0913,2.1151,2.1121,2.1015,2.0883,2.0761,2.0183,1.9063,1.8601,1.8153,1.7473,1.729,1.7301,1.7407,1.7434,1.7518,1.77,1.7783,1.7838,1.792,1.8073,1.7905,1.7321,1.7068,1.6642,1.6185,1.5851,1.5726,1.5738,1.577,1.5814,1.5814,1.5814,1.5814,1.5814,1.5814,1.5814,1.5814,1.5814,1.5814,1.5814,1.5814,1.5814,1.5814,1.5814,1.5814,1.5814,1.5814,1.5814,1.5814,1.5814,1.573,2.5028,2.4578,2.3455,2.2877,2.2604,2.129,2.069,2.0582,2.0335,2.0129,1.9944,1.9802,1.9638,1.9548,1.9631,1.9661,1.9672,1.9705,1.9779,1.9839,1.9849,1.9883,1.9929,1.9802,1.9828,1.9973,1.9856,1.9868,1.9944,2.0074,1.9922,1.9637,1.9807,1.9747,1.9448,1.9527,1.963,1.9661,1.9711,1.9772,1.9772,1.976,1.9802,1.9894,2.0178,2.0445,2.0734,2.1066,2.1183,2.1112,2.1203,2.1014,2.0487,2.0064,1.9868,1.9947,2.0199,2.0379,2.0416,2.0762,2.099,2.1075,2.1054,2.1143,2.1397,2.1348,2.1241,2.1141,2.0955,2.0308,1.9181,1.849,1.7857,1.7133,1.6937,1.6994,1.7127,1.7127,1.7211,1.7351,1.7423,1.7451,1.7479,1.7617,1.7481,1.716,1.6806,1.6453,1.6101,1.5775,1.5592,1.5649,1.5715,1.576,1.577,1.577,1.5792,1.5814,1.5814,1.5814,1.5814,1.5814,1.5814,1.5814,1.5814,1.5814,1.5814,1.5814,1.5814,1.5814,1.5814,1.5814,1.5814,1.5814,1.5754,2.4381,2.4015,2.2936,2.2331,2.2013,2.0897,2.0238,1.9944,1.9868,1.9736,1.9539,1.9372,1.9335,1.9366,1.965,1.9803,1.9865,1.9955,2.0101,2.0311,2.0307,2.0423,2.0568,2.0177,2.0036,2.0198,1.9806,1.9604,1.9605,1.9638,1.9616,1.9616,1.977,1.9814,1.9857,1.9911,2.0019,2.0019,1.9997,2.0041,2.0085,2.0019,2.0073,2.0268,2.0321,2.0428,2.0584,2.1531,2.1776,2.1368,2.1576,2.1525,2.0986,2.0718,2.0754,2.0738,2.0807,2.0799,2.077,2.0814,2.1029,2.1212,2.117,2.1221,2.142,2.1318,2.1101,2.0892,2.0603,2.0039,1.9251,1.8557,1.7826,1.6999,1.6832,1.6779,1.6807,1.6818,1.679,1.6864,1.6965,1.7011,1.7039,1.7162,1.7098,1.6855,1.6521,1.6218,1.594,1.5614,1.5439,1.5468,1.557,1.5626,1.5693,1.576,1.577,1.5814,1.5814,1.5814,1.5814,1.5814,1.5814,1.5814,1.5814,1.5814,1.5814,1.5814,1.5814,1.5814,1.5814,1.5814,1.5814,1.5814,1.5814,2.3897,2.3489,2.2673,2.2031,2.1505,2.0533,1.988,1.9483,1.9241,1.9098,1.907,1.9179,1.9219,1.932,1.9641,1.9971,2.0291,2.0337,2.0365,2.0365,2.0273,2.0319,2.0446,2.0357,2.0163,1.9962,1.9829,1.9578,1.9327,1.9351,1.9374,1.945,1.9605,1.9671,1.9671,1.9736,1.9769,1.9758,1.9769,1.9758,1.9769,1.9758,1.9802,1.9868,2.0096,2.0213,2.0273,2.1066,2.1455,2.1373,2.1583,2.1468,2.0968,2.0534,2.0326,2.0408,2.07,2.089,2.0896,2.1079,2.1212,2.1307,2.123,2.1143,2.1155,2.1051,2.0839,2.0582,2.0313,1.9857,1.9104,1.8426,1.7755,1.7038,1.6704,1.6563,1.6637,1.6733,1.679,1.679,1.6835,1.6864,1.6853,1.6892,1.6884,1.6867,1.6568,1.6254,1.5956,1.5636,1.5417,1.5291,1.5381,1.548,1.5547,1.5659,1.5726,1.577,1.5792,1.5814,1.5814,1.5814,1.5814,1.5814,1.5814,1.5814,1.5814,1.5814,1.5814,1.5814,1.5814,1.5814,1.5814,1.5814,1.5814,2.3272,2.2898,2.2258,2.1675,2.1119,2.0288,1.9644,1.9162,1.8849,1.8713,1.8748,1.8899,1.9068,1.9267,1.9654,1.9991,2.027,2.0353,2.0434,2.0491,2.0545,2.0581,2.0687,2.057,2.0309,2.0009,1.9972,1.9768,1.9378,1.9424,1.9419,1.9273,1.9341,1.9407,1.9417,1.9407,1.9407,1.9407,1.9407,1.9407,1.9407,1.9407,1.945,1.9506,1.9693,1.9889,2.0042,2.0539,2.0924,2.1178,2.138,2.1323,2.0985,2.0663,2.0447,2.0547,2.0726,2.0892,2.0927,2.1054,2.1135,2.1063,2.0967,2.0807,2.0582,2.0506,2.0388,2.0129,1.9955,1.9662,1.9104,1.8596,1.7988,1.7306,1.6736,1.6472,1.6545,1.6591,1.6648,1.662,1.6581,1.6552,1.6552,1.6477,1.6563,1.6659,1.642,1.6164,1.5895,1.5612,1.5338,1.5142,1.5199,1.53,1.5435,1.5547,1.5681,1.5726,1.576,1.5792,1.5814,1.5814,1.5814,1.5814,1.5814,1.5814,1.5814,1.5814,1.5814,1.5814,1.5814,1.5814,1.5814,1.5814,1.5814,2.2553,2.2264,2.1665,2.1256,2.0921,2.0131,1.9457,1.8913,1.8662,1.8556,1.8576,1.8657,1.8841,1.9199,1.9606,1.9829,1.9916,2.0062,2.0256,2.0459,2.0662,2.0873,2.0966,2.0852,2.0514,2.0164,2.0283,2.0178,1.981,1.9751,1.9575,1.9233,1.9193,1.9142,1.9164,1.9098,1.9131,1.9164,1.9142,1.9131,1.9131,1.9142,1.9175,1.9285,1.9351,1.9506,1.9835,2.0085,2.041,2.0828,2.1063,2.1115,2.1071,2.0955,2.0821,2.0925,2.0901,2.0846,2.0837,2.0762,2.07,2.0475,2.0367,2.0248,1.9998,1.9966,1.99,1.9704,1.9638,1.9495,1.9258,1.8847,1.8333,1.774,1.6891,1.6454,1.6402,1.6402,1.6431,1.6363,1.6239,1.6124,1.6153,1.6058,1.6144,1.6226,1.6039,1.5938,1.571,1.5499,1.5152,1.5066,1.5085,1.5097,1.521,1.5413,1.5525,1.5547,1.5637,1.5726,1.5792,1.5792,1.5814,1.5814,1.5814,1.5814,1.5814,1.5814,1.5814,1.5814,1.5814,1.5814,1.5814,1.5814,1.5814,2.2025,2.1711,2.138,2.0956,2.0402,1.987,1.929,1.8695,1.8448,1.8302,1.8257,1.8527,1.8676,1.8881,1.9263,1.945,1.9468,1.9522,1.9578,1.9657,1.9736,2.0216,2.0683,2.0834,2.0621,2.0262,2.0524,2.0457,2.0042,1.9895,1.9772,1.9606,1.9295,1.9119,1.9098,1.9119,1.9098,1.9098,1.9098,1.9098,1.9098,1.9098,1.9098,1.9131,1.9252,1.9407,1.9671,1.9868,2.0194,2.069,2.0658,2.0604,2.0593,2.0442,2.0366,2.0399,2.0366,2.0302,2.0302,2.0248,2.0129,2.0042,1.99,1.978,1.9704,1.9671,1.9648,1.9583,1.9483,1.9351,1.9212,1.8791,1.8269,1.7719,1.6984,1.6485,1.6464,1.6402,1.6345,1.622,1.6163,1.6028,1.5961,1.5914,1.5943,1.6009,1.6058,1.5998,1.5742,1.5598,1.5318,1.507,1.4996,1.4958,1.5028,1.5233,1.538,1.5402,1.548,1.5625,1.5726,1.5792,1.5792,1.5814,1.5814,1.5814,1.5814,1.5814,1.5814,1.5814,1.5814,1.5814,1.5814,1.5814,1.5814,2.1454,2.1223,2.0925,2.0555,2.0062,1.9649,1.9116,1.8534,1.8206,1.8017,1.7957,1.805,1.8255,1.8433,1.8647,1.8745,1.8745,1.8745,1.8825,1.8953,1.9033,1.9478,2.0098,2.044,2.0545,2.0435,2.0689,2.0653,2.0435,2.0262,2.0174,1.9986,1.9616,1.9399,1.9399,1.9181,1.9108,1.9098,1.9098,1.9098,1.9098,1.9098,1.9098,1.9098,1.9175,1.9308,1.9483,1.9671,1.9944,2.014,2.0107,2.0042,2.0042,1.9955,1.9879,1.9889,1.9889,1.9879,1.9889,1.9824,1.9736,1.9671,1.9506,1.944,1.9407,1.9374,1.9374,1.9374,1.9274,1.9241,1.9135,1.8716,1.8331,1.7999,1.7367,1.6953,1.6943,1.6739,1.6547,1.6369,1.6131,1.5894,1.5827,1.5759,1.573,1.5817,1.5972,1.5848,1.5684,1.5626,1.5519,1.5242,1.5026,1.5008,1.4971,1.5142,1.5255,1.5278,1.5345,1.5479,1.558,1.5703,1.5782,1.577,1.5792,1.5792,1.5792,1.5792,1.5814,1.5814,1.5814,1.5814,1.5814,1.5814,1.5814,2.0828,2.0702,2.0333,2.0069,1.9766,1.9381,1.8885,1.836,1.8013,1.7818,1.7748,1.7518,1.7684,1.791,1.8014,1.7959,1.7951,1.7991,1.8121,1.8282,1.8482,1.8882,1.9301,1.9902,2.0187,2.0343,2.0663,2.0753,2.0659,2.067,2.062,2.0339,2.0023,1.9851,1.9803,1.9513,1.9285,1.9292,1.9285,1.9264,1.9222,1.917,1.9098,1.9098,1.9131,1.9175,1.9308,1.944,1.9572,1.9539,1.9583,1.9615,1.9583,1.9572,1.9539,1.9539,1.9539,1.9539,1.9506,1.9473,1.9407,1.9252,1.9208,1.9208,1.9108,1.9108,1.9164,1.9175,1.9098,1.9142,1.909,1.8714,1.8569,1.8402,1.8071,1.7843,1.7688,1.7277,1.6869,1.6778,1.6187,1.585,1.5703,1.5576,1.5468,1.5633,1.5759,1.5763,1.5678,1.5632,1.5532,1.5375,1.5222,1.5076,1.5057,1.5051,1.5131,1.5187,1.5244,1.5345,1.5424,1.5547,1.5671,1.5715,1.5681,1.5703,1.5726,1.5748,1.577,1.5792,1.5792,1.5792,1.5814,1.5814,1.5814,2.0216,1.9872,1.9618,1.939,1.9161,1.8931,1.855,1.8072,1.7992,1.7726,1.751,1.7429,1.7431,1.7514,1.7514,1.7514,1.7514,1.7554,1.7595,1.7635,1.7829,1.7951,1.8345,1.9063,1.9499,1.9736,2.0167,2.0469,2.0563,2.0496,2.0511,2.0655,2.0293,2.0109,2.0209,2.0096,2.0096,2.0034,1.9789,1.9647,1.9564,1.9305,1.9139,1.9108,1.9208,1.9175,1.9175,1.9274,1.9318,1.9285,1.9318,1.9318,1.9308,1.9274,1.9208,1.9208,1.9208,1.9142,1.9008,1.9008,1.8908,1.8785,1.8852,1.8875,1.8885,1.9008,1.9065,1.9098,1.9098,1.9098,1.9077,1.9015,1.8878,1.8827,1.8644,1.8484,1.8412,1.7829,1.7255,1.6928,1.6516,1.6108,1.6018,1.5655,1.5537,1.5508,1.5555,1.5671,1.5672,1.5647,1.56,1.5536,1.5308,1.5184,1.5201,1.513,1.5006,1.504,1.5108,1.5108,1.5176,1.5323,1.5435,1.5503,1.5546,1.558,1.5614,1.5681,1.5703,1.5726,1.577,1.5792,1.5792,1.5792,1.5814,1.9557,1.932,1.9121,1.8834,1.8523,1.8402,1.8129,1.7757,1.7627,1.7465,1.727,1.7147,1.7066,1.7066,1.7066,1.7066,1.7106,1.7221,1.7261,1.7302,1.7465,1.7546,1.7668,1.8304,1.8785,1.9063,1.9548,1.9942,2.0178,2.0361,2.0587,2.0793,2.0464,2.0409,2.0509,2.0422,2.0293,2.0323,2.0213,2.0069,2.0006,1.9668,1.9274,1.9139,1.9175,1.9142,1.9131,1.9075,1.9052,1.8985,1.8962,1.8985,1.9052,1.9008,1.8908,1.8841,1.8808,1.8785,1.8684,1.864,1.8607,1.8516,1.8617,1.865,1.8674,1.8774,1.8875,1.8931,1.8965,1.8965,1.9098,1.9098,1.9065,1.8965,1.8875,1.8741,1.8496,1.7968,1.7492,1.7221,1.6829,1.6391,1.6085,1.587,1.5596,1.5557,1.5459,1.5546,1.5739,1.5719,1.5797,1.5704,1.545,1.5311,1.5352,1.523,1.4949,1.4915,1.4926,1.4857,1.4846,1.5028,1.5187,1.5278,1.5334,1.5468,1.5525,1.557,1.5614,1.5693,1.5738,1.576,1.577,1.5792,1.5814,1.8834,1.8794,1.8612,1.8282,1.7959,1.7919,1.7708,1.7351,1.718,1.7131,1.7017,1.6771,1.6779,1.673,1.673,1.6689,1.6771,1.6902,1.7033,1.7203,1.7335,1.7474,1.7623,1.7944,1.8286,1.861,1.906,1.9439,1.9824,2.0206,2.0362,2.0672,2.0643,2.0604,2.0643,2.0557,2.0508,2.0653,2.0591,2.0534,2.0462,2.0135,1.972,1.9502,1.944,1.9417,1.9349,1.9226,1.9073,1.8944,1.8775,1.8785,1.8856,1.8771,1.8707,1.8516,1.8549,1.8549,1.8482,1.8482,1.8448,1.8448,1.8482,1.8472,1.8472,1.8516,1.8607,1.8707,1.8774,1.8808,1.8975,1.8942,1.8908,1.8808,1.8741,1.8573,1.8301,1.7889,1.7721,1.7599,1.7196,1.678,1.6467,1.6212,1.5899,1.5596,1.5488,1.5449,1.5643,1.5816,1.5861,1.5936,1.5716,1.5408,1.5377,1.5158,1.4902,1.4731,1.4743,1.4605,1.4523,1.4569,1.4754,1.5028,1.5165,1.5233,1.5323,1.5368,1.5435,1.5604,1.5693,1.5738,1.577,1.5792,1.5814,1.8273,1.7902,1.7902,1.7708,1.7514,1.7514,1.7392,1.718,1.709,1.6976,1.6771,1.6738,1.6689,1.6689,1.6689,1.6689,1.6697,1.6819,1.6996,1.7195,1.7351,1.7447,1.7709,1.793,1.8069,1.8154,1.8531,1.8976,1.9311,1.9499,1.9902,2.0274,2.0469,2.0612,2.0861,2.106,2.1069,2.108,2.1007,2.0974,2.0907,2.0576,2.0234,2.0069,2.0003,1.9963,1.9874,1.9879,1.9814,1.9681,1.961,1.9529,1.9313,1.8893,1.8646,1.8542,1.8518,1.8484,1.8357,1.8337,1.8245,1.8178,1.8245,1.8303,1.8337,1.8414,1.8482,1.8516,1.8549,1.8583,1.8583,1.865,1.8617,1.8549,1.8472,1.8371,1.825,1.8079,1.7899,1.7841,1.7513,1.7178,1.6887,1.6525,1.6144,1.5791,1.5557,1.5459,1.5517,1.573,1.5901,1.5982,1.6022,1.5693,1.5403,1.5072,1.4798,1.4569,1.4477,1.4303,1.4221,1.4138,1.4278,1.45,1.4754,1.488,1.496,1.5097,1.521,1.53,1.548,1.5693,1.5738,1.577,1.5792,1.7757,1.7546,1.7546,1.7424,1.7261,1.7229,1.7098,1.6935,1.6894,1.6812,1.673,1.6689,1.6689,1.6689,1.6689,1.6689,1.6729,1.6961,1.7111,1.7286,1.7496,1.7639,1.7838,1.802,1.8037,1.8066,1.8237,1.8513,1.8812,1.9073,1.935,1.9706,1.9981,2.0255,2.0566,2.0808,2.1156,2.1239,2.1288,2.1353,2.1387,2.101,2.0684,2.0457,2.0344,2.0181,2.0109,1.9867,1.9795,1.9687,1.9604,1.9515,1.937,1.9189,1.8809,1.8651,1.8582,1.8429,1.8227,1.8144,1.8066,1.8042,1.8129,1.8144,1.8144,1.8178,1.8279,1.8381,1.8482,1.8482,1.8516,1.8482,1.8448,1.8414,1.8337,1.8236,1.8144,1.8042,1.8008,1.8008,1.7812,1.7529,1.7246,1.6846,1.6396,1.6016,1.5684,1.5527,1.5439,1.5633,1.5875,1.6056,1.6116,1.5855,1.5473,1.5101,1.4755,1.4515,1.4221,1.4046,1.3928,1.3868,1.3821,1.3905,1.414,1.443,1.4673,1.48,1.4914,1.504,1.5221,1.5435,1.5626,1.5738,1.576,1.731,1.727,1.727,1.7188,1.7017,1.7009,1.6894,1.6738,1.6689,1.6689,1.6689,1.6689,1.6689,1.6689,1.6697,1.6721,1.6849,1.7167,1.7334,1.7588,1.7771,1.7906,1.8029,1.8109,1.8249,1.8259,1.8185,1.8129,1.8391,1.8558,1.8834,1.9112,1.932,1.9636,2.0059,2.0333,2.0683,2.1002,2.1282,2.1502,2.159,2.1408,2.1093,2.0705,2.0493,2.0435,2.0386,2.0159,1.9964,1.9881,1.973,1.9617,1.9588,1.9541,1.9336,1.8939,1.8792,1.8539,1.8408,1.8365,1.8433,1.8408,1.8311,1.8252,1.8105,1.814,1.8066,1.8212,1.8313,1.8357,1.8357,1.8381,1.8347,1.8279,1.8245,1.8178,1.8076,1.8008,1.8008,1.8008,1.8008,1.7861,1.7568,1.7227,1.6768,1.6328,1.5986,1.5586,1.5498,1.5595,1.5826,1.6077,1.6144,1.5935,1.557,1.5153,1.482,1.4484,1.4137,1.3834,1.3716,1.361,1.3563,1.3515,1.3658,1.3965,1.4233,1.4523,1.4662,1.4789,1.4971,1.5221,1.5503,1.5671,1.5738,1.7017,1.6771,1.6779,1.6779,1.6771,1.6771,1.6738,1.6689,1.6689,1.6689,1.6689,1.6689,1.6689,1.6689,1.6689,1.6913,1.7143,1.7302,1.7604,1.7993,1.8184,1.8375,1.8583,1.87,1.8582,1.8487,1.8471,1.8395,1.8272,1.8058,1.8187,1.8558,1.878,1.9024,1.9469,1.9824,2.0216,2.0605,2.0867,2.1185,2.1492,2.1611,2.1556,2.1477,2.1295,2.1075,2.0883,2.0655,2.0523,2.0399,2.04,2.0439,2.042,2.0458,2.0176,1.9795,1.9453,1.9189,1.9072,1.8994,1.8984,1.8955,1.9014,1.8906,1.8633,1.8266,1.8144,1.8008,1.8105,1.8129,1.8129,1.8076,1.8042,1.8076,1.8076,1.8076,1.8008,1.8008,1.8008,1.8008,1.8008,1.8008,1.7861,1.7519,1.7148,1.6709,1.6269,1.5869,1.5596,1.5693,1.574,1.5985,1.6192,1.6007,1.577,1.5327,1.4992,1.4606,1.4143,1.3734,1.359,1.3504,1.33,1.33,1.3396,1.3515,1.3797,1.408,1.4337,1.4593,1.4789,1.5108,1.5457,1.558,1.5693,1.6812,1.6689,1.6689,1.6689,1.6689,1.6689,1.6689,1.6689,1.6689,1.6689,1.6689,1.6689,1.6689,1.6705,1.6689,1.6937,1.7254,1.7477,1.7811,1.8287,1.8494,1.8676,1.8726,1.8781,1.8754,1.8688,1.8526,1.8354,1.8156,1.8045,1.8028,1.8422,1.8394,1.8554,1.8985,1.9369,1.9696,2.0128,2.0547,2.1031,2.1272,2.1397,2.1474,2.1474,2.1282,2.1128,2.1022,2.0819,2.0683,2.0605,2.0615,2.0605,2.0605,2.0586,2.0478,2.0322,2.0165,1.9822,1.9365,1.9316,1.9336,1.9297,1.9297,1.917,1.8984,1.8828,1.8564,1.8354,1.8334,1.8237,1.8052,1.8008,1.8008,1.8008,1.8008,1.8008,1.8008,1.8008,1.8008,1.8008,1.8008,1.8008,1.7969,1.7666,1.7353,1.7041,1.6533,1.6035,1.5802,1.5762,1.581,1.5875,1.6048,1.6102,1.5871,1.5568,1.5295,1.4903,1.4304,1.3924,1.3625,1.3441,1.3322,1.3135,1.3123,1.3244,1.3447,1.3678,1.3999,1.4303,1.4605,1.4971,1.5311,1.5491,1.5614,1.6689,1.6689,1.6689,1.6689,1.6689,1.6689,1.6689,1.6689,1.6689,1.6689,1.6689,1.6697,1.6737,1.6865,1.6929,1.7159,1.7564,1.7795,1.8105,1.843,1.8669,1.875,1.8781,1.8781,1.8781,1.8781,1.8597,1.8483,1.8382,1.8188,1.8166,1.8465,1.8221,1.84,1.8731,1.9026,1.9267,1.9648,2.0235,2.0683,2.0886,2.1012,2.1089,2.1051,2.0935,2.0829,2.0867,2.0693,2.0605,2.0605,2.0615,2.0615,2.0615,2.0605,2.0595,2.0537,2.0478,2.0282,1.9873,1.9707,1.9619,1.958,1.9463,1.9482,1.9443,1.9385,1.9199,1.8818,1.8773,1.8539,1.8256,1.8193,1.8125,1.8076,1.8008,1.8008,1.8008,1.8008,1.8008,1.8008,1.8008,1.8008,1.792,1.7725,1.75,1.7328,1.6858,1.6261,1.5979,1.5782,1.5771,1.5798,1.5911,1.6036,1.5899,1.5677,1.544,1.5161,1.4563,1.418,1.3931,1.3704,1.3559,1.3331,1.3096,1.3185,1.3457,1.3569,1.3681,1.4069,1.4454,1.4823,1.5142,1.5368,1.557,1.6689,1.6689,1.6689,1.6689,1.6689,1.6689,1.6689,1.6689,1.6689,1.6689,1.6689,1.6729,1.6953,1.7151,1.7278,1.7572,1.8184,1.8247,1.8438,1.8653,1.8819,1.8781,1.8781,1.8781,1.8781,1.8781,1.8724,1.8732,1.87,1.8457,1.8246,1.8118,1.8128,1.8529,1.8803,1.8915,1.9078,1.9405,1.9869,2.0127,2.0352,2.0489,2.0644,2.075,2.0722,2.0693,2.0858,2.0615,2.0527,2.0527,2.0576,2.0605,2.0566,2.0605,2.0615,2.0615,2.0615,2.0478,2.0331,2.0312,2.0449,2.038,2.0137,1.9873,1.9873,1.9512,1.9307,1.9268,1.9238,1.9023,1.8724,1.8529,1.8457,1.8208,1.8154,1.8076,1.8057,1.8008,1.8008,1.8008,1.8008,1.8008,1.8008,1.7842,1.7734,1.7549,1.6973,1.6377,1.588,1.5694,1.5673,1.573,1.5827,1.5853,1.5852,1.5669,1.55,1.5249,1.4817,1.452,1.4278,1.408,1.3796,1.375,1.3578,1.3535,1.3469,1.3606,1.3776,1.4013,1.4325,1.4685,1.5097,1.5435,1.5614,1.6689,1.6689,1.6689,1.6689,1.6689,1.6689,1.6689,1.6689,1.6689,1.6689,1.6713,1.6969,1.7143,1.731,1.7583,1.7878,1.8255,1.8303,1.8533,1.8724,1.8781,1.8781,1.8781,1.8781,1.8781,1.8781,1.8781,1.8781,1.8742,1.8645,1.8643,1.8502,1.8246,1.8463,1.8734,1.9042,1.9252,1.938,1.9569,1.9746,1.9676,1.9745,1.9893,2.0059,2.0059,2.0108,2.0225,2.0225,2.0255,2.0372,2.042,2.045,2.0527,2.0566,2.0566,2.0605,2.0605,2.0615,2.0615,2.0615,2.0615,2.0586,2.0439,2.0303,2.0273,2.0127,1.9902,1.9795,1.9668,1.9482,1.9131,1.9014,1.8896,1.852,1.8325,1.8237,1.8154,1.8115,1.8018,1.8027,1.8018,1.8008,1.8008,1.7988,1.79,1.7764,1.7106,1.6512,1.6085,1.5674,1.5684,1.5663,1.5751,1.574,1.5729,1.5648,1.5575,1.5311,1.5018,1.4834,1.4611,1.4233,1.3997,1.4026,1.4055,1.3938,1.3857,1.3776,1.3844,1.3945,1.4202,1.4524,1.4971,1.5458,1.5637,1.6607,1.6607,1.6648,1.6689,1.6689,1.6689,1.6689,1.6689,1.6689,1.6768,1.6864,1.7175,1.7421,1.7596,1.7811,1.8128,1.8406,1.8502,1.8621,1.8748,1.8781,1.8781,1.8781,1.8781,1.8781,1.8781,1.8781,1.8781,1.8781,1.8781,1.8772,1.8666,1.8518,1.8637,1.8908,1.9185,1.9358,1.9358,1.9359,1.9265,1.9115,1.9182,1.9225,1.9366,1.939,1.9548,1.9745,1.9824,1.9902,2.002,2.0137,2.0255,2.0372,2.045,2.0489,2.0527,2.0566,2.0605,2.0615,2.0615,2.0615,2.0595,2.0595,2.0576,2.0615,2.0605,2.0341,2.0176,2.0098,1.9941,1.9541,1.9453,1.9277,1.8919,1.8812,1.874,1.8437,1.8301,1.8144,1.8047,1.8027,1.8008,1.8008,1.7988,1.7852,1.7734,1.7373,1.6804,1.6406,1.6016,1.5772,1.5704,1.5654,1.5634,1.5604,1.5554,1.5485,1.5436,1.5221,1.5162,1.4919,1.4551,1.4445,1.4621,1.4582,1.4377,1.4233,1.4165,1.3998,1.383,1.4212,1.4681,1.496,1.5413,1.5592,1.6402,1.6435,1.6607,1.6689,1.6689,1.6689,1.6689,1.6705,1.6737,1.6927,1.7247,1.735,1.7676,1.8097,1.8224,1.8462,1.8669,1.8756,1.8796,1.8765,1.8781,1.8781,1.8781,1.8781,1.8781,1.8781,1.8781,1.8781,1.8781,1.8781,1.8781,1.8781,1.873,1.8827,1.9136,1.9085,1.8968,1.8877,1.8904,1.8846,1.8748,1.8828,1.8877,1.894,1.8999,1.9187,1.9429,1.9558,1.9688,1.9848,2.0019,2.0101,2.0095,2.0282,2.0361,2.0342,2.0489,2.0566,2.0615,2.0615,2.0615,2.0615,2.0615,2.0615,2.0615,2.0595,2.0586,2.0429,2.0488,2.0293,2.0068,1.9883,1.9648,1.9424,1.9316,1.9131,1.8828,1.8623,1.8506,1.8247,1.8081,1.8018,1.8008,1.7959,1.7783,1.7627,1.7451,1.7129,1.6748,1.6356,1.6074,1.586,1.5762,1.5606,1.5576,1.5469,1.5429,1.541,1.5371,1.5302,1.5283,1.5107,1.5117,1.5234,1.5068,1.4767,1.4637,1.4543,1.4425,1.4346,1.4596,1.4966,1.5165,1.5463,1.5809,1.6147,1.6386,1.6476,1.6574,1.6689,1.6689,1.6697,1.6737,1.6992,1.7286,1.7612,1.7834,1.8033,1.8311,1.8541,1.8708,1.875,1.8781,1.8781,1.8781,1.8781,1.8781,1.8781,1.8781,1.8781,1.8781,1.8781,1.8781,1.8781,1.8781,1.8781,1.8781,1.8827,1.8958,1.9163,1.9253,1.9306,1.8999,1.8899,1.8802,1.8547,1.8574,1.8634,1.8742,1.8817,1.9,1.9265,1.9371,1.9546,1.9802,1.9998,2.0129,2.0133,2.0328,2.0404,2.034,2.0401,2.045,2.0527,2.0615,2.0615,2.0615,2.0615,2.0615,2.0615,2.0615,2.0615,2.0615,2.0615,2.0478,2.041,2.0342,2.0146,1.9834,1.9658,1.9463,1.9238,1.9111,1.8965,1.8617,1.8393,1.8149,1.8086,1.8027,1.7861,1.7744,1.7607,1.748,1.7158,1.6768,1.6426,1.6144,1.5928,1.5684,1.5557,1.5586,1.5547,1.5518,1.5469,1.5381,1.5391,1.5391,1.5332,1.5264,1.5235,1.5176,1.5057,1.4943,1.4912,1.4961,1.5229,1.5421,1.5659,1.6038,1.6416,1.5767,1.6057,1.6312,1.6476,1.6631,1.6824,1.6976,1.7119,1.7358,1.7636,1.7954,1.8208,1.8383,1.8518,1.87,1.8781,1.8781,1.8781,1.8781,1.8781,1.8781,1.8781,1.8781,1.8781,1.8781,1.8781,1.8781,1.8781,1.8781,1.8781,1.8781,1.8781,1.8781,1.8874,1.905,1.9139,1.9182,1.8925,1.8868,1.8669,1.841,1.8332,1.8363,1.8395,1.8483,1.869,1.8956,1.9196,1.9376,1.9734,1.9978,2.015,2.0241,2.0378,2.052,2.0484,2.0513,2.0613,2.0791,2.0644,2.0635,2.0615,2.0615,2.0615,2.0615,2.0615,2.0615,2.0615,2.0615,2.0605,2.0595,2.0615,2.0478,2.0117,2.0049,1.9863,1.9639,1.9512,1.9346,1.8997,1.8627,1.8373,1.8144,1.8066,1.7959,1.7871,1.7783,1.7666,1.7549,1.7187,1.6846,1.6572,1.6359,1.6172,1.5986,1.583,1.5771,1.5684,1.5566,1.5488,1.5342,1.5284,1.5274,1.5264,1.5216,1.5235,1.5341,1.5327,1.5318,1.5516,1.5876,1.6049,1.6195,1.6443,1.674,1.5352,1.5484,1.6105,1.6353,1.649,1.7036,1.7461,1.7806,1.7787,1.7977,1.8279,1.8279,1.8383,1.8631,1.8726,1.8718,1.8742,1.875,1.8781,1.8781,1.8781,1.8781,1.8781,1.8781,1.8781,1.8781,1.8781,1.8781,1.8781,1.8781,1.8781,1.8781,1.8781,1.8827,1.8874,1.8912,1.8888,1.8824,1.8792,1.8603,1.8359,1.8311,1.8281,1.8266,1.8265,1.8433,1.8644,1.881,1.8995,1.9221,1.9393,1.9736,2.0041,2.0371,2.0572,2.0768,2.0838,2.1016,2.1024,2.081,2.0664,2.0635,2.0615,2.0615,2.0615,2.0615,2.0615,2.0615,2.0615,2.0615,2.0615,2.0615,2.0595,2.0517,2.0517,2.0273,2.0029,1.9853,1.9687,1.9375,1.8919,1.8588,1.8291,1.8144,1.8135,1.7969,1.79,1.7891,1.7773,1.7627,1.7324,1.7139,1.6904,1.6707,1.6492,1.623,1.6152,1.6084,1.5732,1.5605,1.541,1.5244,1.5196,1.5196,1.5176,1.5225,1.5303,1.5478,1.5688,1.594,1.6179,1.6444,1.6537,1.6527,1.6726,1.4741,1.5208,1.5692,1.6105,1.6529,1.7296,1.7826,1.812,1.8152,1.8224,1.8303,1.8303,1.8232,1.8105,1.8327,1.8438,1.8557,1.8684,1.875,1.8781,1.8781,1.8781,1.8781,1.8781,1.8781,1.8781,1.8781,1.8781,1.8781,1.8781,1.8781,1.8781,1.8781,1.8781,1.8781,1.8781,1.8781,1.8781,1.8781,1.8656,1.8539,1.8537,1.848,1.8425,1.8295,1.8422,1.8611,1.8709,1.8897,1.9101,1.953,1.9881,1.98,2.0209,2.0578,2.1034,2.1205,2.1306,2.1209,2.1113,2.0918,2.0713,2.0625,2.0615,2.0615,2.0615,2.0615,2.0615,2.0615,2.0615,2.0615,2.0615,2.0615,2.0615,2.0615,2.0507,2.0264,2.0215,2.0039,1.9678,1.9221,1.8841,1.8535,1.8354,1.8315,1.8135,1.8008,1.8008,1.7969,1.7822,1.7705,1.751,1.7383,1.7145,1.6863,1.657,1.6541,1.6453,1.6143,1.5809,1.5649,1.5473,1.5232,1.5088,1.5029,1.5117,1.5235,1.5439,1.5604,1.598,1.6229,1.6567,1.6814,1.6716,1.6819,1.437,1.4866,1.536,1.605,1.6861,1.7502,1.8013,1.8263,1.8303,1.824,1.8097,1.8125,1.7969,1.7934,1.8152,1.8327,1.8359,1.8669,1.8781,1.8781,1.8781,1.8781,1.8781,1.8781,1.8781,1.8781,1.8781,1.8781,1.8781,1.8781,1.8781,1.8781,1.8781,1.8781,1.8781,1.8781,1.8781,1.8781,1.8781,1.8735,1.8735,1.8697,1.8697,1.8651,1.8473,1.8512,1.8651,1.8643,1.8681,1.8912,1.9325,1.9617,1.9788,2.0385,2.1021,2.1465,2.1565,2.1684,2.1693,2.1356,2.1133,2.0869,2.0703,2.0615,2.0615,2.0615,2.0615,2.0615,2.0615,2.0615,2.0615,2.0615,2.0615,2.0615,2.0615,2.0615,2.0595,2.0595,2.0293,1.9961,1.958,1.9199,1.8926,1.8734,1.8471,1.8174,1.8008,1.8008,1.8008,1.7959,1.7871,1.7764,1.7686,1.7568,1.7252,1.7019,1.697,1.6863,1.6582,1.6265,1.6023,1.5621,1.5303,1.5054,1.4863,1.499,1.5156,1.5264,1.5459,1.5807,1.6134,1.6348,1.6507,1.6548,1.6775,1.4201,1.4482,1.5151,1.6246,1.7387,1.7664,1.789,1.8192,1.816,1.8033,1.7814,1.7775,1.7683,1.7628,1.7962,1.8176,1.8319,1.8597,1.8781,1.8781,1.8781,1.8781,1.8781,1.8781,1.8781,1.8781,1.8781,1.8781,1.8781,1.8781,1.8781,1.8781,1.8781,1.8781,1.8781,1.8781,1.8781,1.8781,1.8781,1.8743,1.8612,1.8527,1.8527,1.852,1.8381,1.828,1.8381,1.8326,1.8172,1.8404,1.8727,1.9142,1.994,2.0647,2.1346,2.185,2.1919,2.2064,2.2068,2.1795,2.1395,2.1143,2.0869,2.0684,2.0664,2.0625,2.0615,2.0615,2.0615,2.0615,2.0615,2.0615,2.0615,2.0615,2.0615,2.0615,2.0615,2.0595,2.0458,2.0166,2.0039,1.9648,1.9192,1.9007,1.8695,1.8291,1.8008,1.8008,1.8018,1.8018,1.7978,1.793,1.7871,1.7812,1.7754,1.7549,1.7461,1.7285,1.6992,1.6709,1.6453,1.5932,1.5383,1.5093,1.4835,1.491,1.5029,1.5147,1.5323,1.5672,1.5904,1.6058,1.618,1.6254,1.6583,1.3815,1.4265,1.545,1.6366,1.7017,1.7304,1.7488,1.7525,1.7525,1.7493,1.7448,1.7382,1.727,1.7199,1.7707,1.7954,1.8081,1.8565,1.8734,1.8781,1.8781,1.8781,1.8781,1.8781,1.8781,1.8781,1.8781,1.8781,1.8781,1.8781,1.8781,1.8781,1.8781,1.8781,1.8781,1.8781,1.8781,1.8781,1.8781,1.8781,1.8697,1.8697,1.8743,1.8651,1.8512,1.828,1.828,1.8133,1.7994,1.8001,1.8381,1.902,1.9837,2.0518,2.1248,2.1891,2.2142,2.2259,2.2355,2.2204,2.1853,2.1395,2.1123,2.0869,2.0703,2.0654,2.0615,2.0625,2.0615,2.0615,2.0615,2.0615,2.0615,2.0615,2.0615,2.0615,2.0615,2.0576,2.0527,2.0488,2.0391,2.0059,1.9582,1.9231,1.8936,1.8564,1.8174,1.8018,1.8037,1.8047,1.8008,1.7978,1.7988,1.7949,1.7959,1.792,1.7764,1.7656,1.7432,1.7164,1.6894,1.6294,1.5682,1.5176,1.4881,1.4992,1.5057,1.5039,1.5244,1.5556,1.573,1.5885,1.5842,1.5902,1.6255,1.3688,1.4265,1.5533,1.6362,1.6765,1.7143,1.7321,1.7321,1.7321,1.7321,1.7281,1.7119,1.7,1.7,1.7583,1.7898,1.8057,1.8565,1.8726,1.8781,1.8781,1.8781,1.8781,1.8781,1.8781,1.8781,1.8781,1.8781,1.8781,1.8781,1.8781,1.8781,1.8781,1.8781,1.8781,1.8781,1.8781,1.8781,1.8781,1.8781,1.8781,1.8781,1.8781,1.8743,1.8604,1.8373,1.8133,1.7994,1.7761,1.7807,1.8179,1.8889,1.9662,2.0255,2.0925,2.1562,2.1961,2.2259,2.2433,2.2407,2.2188,2.1802,2.1553,2.1367,2.1016,2.0918,2.0742,2.0723,2.0635,2.0615,2.0615,2.0615,2.0615,2.0615,2.0615,2.0615,2.0615,2.0595,2.0576,2.0566,2.0439,2.0254,1.9883,1.964,1.9346,1.8984,1.8574,1.8286,1.8271,1.8203,1.8135,1.8057,1.8086,1.8037,1.7988,1.7988,1.7949,1.7861,1.7773,1.7445,1.7081,1.6541,1.5989,1.5536,1.5228,1.5115,1.5161,1.5134,1.5195,1.5459,1.5604,1.573,1.5678,1.5627,1.5944,1.3724,1.4307,1.5575,1.6255,1.6592,1.6996,1.7191,1.7207,1.7297,1.7321,1.7313,1.7032,1.7088,1.7358,1.7735,1.8001,1.8319,1.8645,1.875,1.8781,1.8781,1.8781,1.8781,1.8781,1.8781,1.8781,1.8781,1.8781,1.8781,1.8781,1.8781,1.8781,1.8781,1.8781,1.8781,1.8781,1.8781,1.8781,1.8781,1.8781,1.8781,1.8781,1.8781,1.8735,1.8604,1.8381,1.8141,1.79,1.7621,1.7707,1.8032,1.8689,1.9387,1.9936,2.0572,2.115,2.1651,2.2069,2.2381,2.239,2.2317,2.2256,2.2077,2.1765,2.1414,2.12,2.1064,2.0918,2.083,2.0635,2.0635,2.0615,2.0615,2.0615,2.0615,2.0615,2.0615,2.0615,2.0615,2.0615,2.0507,2.0342,2.0205,2.001,1.9717,1.9365,1.9092,1.8877,1.8656,1.8584,1.8496,1.835,1.8227,1.8193,1.8057,1.8008,1.8008,1.7978,1.7837,1.7614,1.7321,1.6867,1.6423,1.6018,1.5747,1.5569,1.5402,1.5356,1.5429,1.5469,1.5478,1.5604,1.5584,1.5593,1.5709,1.3857,1.4699,1.5665,1.6141,1.6285,1.6651,1.6792,1.6889,1.7183,1.7321,1.7366,1.754,1.7679,1.7743,1.8041,1.8295,1.8398,1.8692,1.875,1.8781,1.8781,1.8781,1.8781,1.8781,1.8781,1.8781,1.8781,1.8781,1.8781,1.8781,1.8781,1.8781,1.8781,1.8781,1.8781,1.8781,1.8781,1.8781,1.8781,1.8781,1.8781,1.8781,1.8781,1.8781,1.8781,1.8458,1.8226,1.8094,1.7714,1.766,1.7839,1.8411,1.9012,1.9608,2.0155,2.0699,2.1195,2.1696,2.1968,2.2177,2.2244,2.2284,2.2076,2.2049,2.1768,2.1717,2.1551,2.1455,2.1261,2.0771,2.0674,2.0635,2.0615,2.0615,2.0615,2.0615,2.0615,2.0615,2.0615,2.0615,2.0576,2.0517,2.0449,2.0234,1.999,1.9668,1.9424,1.9228,1.915,1.9014,1.8857,1.8691,1.849,1.8227,1.8086,1.8018,1.8008,1.8008,1.7988,1.7803,1.7547,1.7278,1.6871,1.6533,1.624,1.604,1.5873,1.5697,1.5574,1.5586,1.5469,1.5449,1.5478,1.5517,1.5604]}]]